Site Date LOGGERID PROGID AIRTEMP_MEAN_150_0_04 AIRTEMP_MEAN_250_0_03 AIRTEMP_MEAN_350_0_02 AIRTEMP_MEAN_450_0_01 AIRTEMP_MEAN_350_0_08 RELHUM_MEAN_150_0_04 RELHUM_MEAN_450_0_01 DEWPT_MEAN_150_0_04 DEWPT_MEAN_450_0_01 SOILTEMP_MEAN_0_10_01 SOILTEMP_MEAN_0_20_02 SOILTEMP_MEAN_0_50_03 SOILTEMP_MEAN_0_100_04 SOILWC_MEAN_0_10_01 SOILWC_MEAN_0_20_02 SOILWC_MEAN_0_50_03 SOILWC_MEAN_0_100_04 WINDSPEED_Avg WIND_DIR PRECIP_INST_455_0_01 PRECIP_TOT_455_0_01 AIRTEMP_150_DIAG AIRTEMP_250_DIAG AIRTEMP_MAX_150_0_04 AIRTEMP_MAX_250_0_03 AIRTEMP_MAX_350_0_02 AIRTEMP_MAX_350_0_08 AIRTEMP_MAX_450_0_01 DEWPT_MAX_150_0_04 DEWPT_MAX_450_0_01 WSPD_PRO_MAX_1000_0_01 AIRTEMP_MIN_150_0_04 AIRTEMP_MIN_250_0_03 AIRTEMP_MIN_350_0_02 AIRTEMP_MIN_350_0_08 AIRTEMP_MIN_450_0_01 DEWPT_MIN_150_0_04 DEWPT_MIN_450_0_01 WSPD_PRO_MEAN_1000_0_01 WDIR_PRO_MEAN_1000_0_01 WDIR_PRO_STDDEV_1000_0_01 WDIAG_SNC_NS_1000_0_02 WDIAG_SNC_NSG_1000_0_02 diag_Max WUX_SNC_MEAN_1000_0_02 WUY_SNC_MEAN_1000_0_02 WAIR_SNC_MEAN_1000_0_02 WUX_SNC_STDEV_1000_0_02 WUY_SNC_STDEV_1000_0_02 WAIR_SNC_STDDEV_1000_0_02 WSPD_SNC_MEAN_1000_0_02 WDIR_SNC_MEAN_1000_0_02 WDIR_SNC_STDDEV_1000_0_02 WSPD_SNC_MAX_1000_0_02 BATTERY_V_CHECK PUMPVOLTS_Avg PUMPVOLTS_CHECK SATVP_MEAN_150_0_04 VAP_MEAN_150_0_04 VPD_MEAN_150_0_04 SATVP_MEAN_450_0_01 VAP_MEAN_450_0_01 VPD_MEAN_450_0_01
UPLMET_235 2016-10-01 00:00:00 235 11678.0 4.78 8.260 4.954 4.917 4.888 91.400 89.600 3.501 3.353 8.600 8.740 8.570 9.520 0.276 0.188 0.232 0.240     218.400 0.00 1 1 4.799 8.270 4.972 4.932 4.932 3.596 3.398 1.1140 4.756 8.230 4.933 4.844 4.892 3.416 3.306 0.4400 214.90 64.79 20 0                             8.590 7.851 0.739 8.672 7.769 0.902
UPLMET_235 2016-09-30 23:55:00 235 11678.0 4.77 8.240 4.933 4.895 4.849 91.500 89.600 3.501 3.330 8.600 8.740 8.570 9.530 0.276 0.188 0.232 0.240     218.500 0.00 1 1 4.783 8.270 4.940 4.884 4.909 3.566 3.374 0.5970 4.754 8.230 4.923 4.798 4.879 3.455 3.303 0.1020 89.00 37.49 20 0                             8.584 7.851 0.730 8.659 7.757 0.901
UPLMET_235 2016-09-30 23:50:00 235 11678.0 4.76 8.270 4.939 4.886 4.891 90.700 89.200 3.379 3.269 8.610 8.740 8.570 9.530 0.276 0.188 0.232 0.240     218.500 0.00 1 1 4.796 8.310 4.953 4.941 4.912 3.533 3.362 0.8640 4.727 8.260 4.926 4.824 4.862 3.308 3.206 0.1190 171.10 19.32 20 0                             8.577 7.784 0.798 8.653 7.723 0.935
UPLMET_235 2016-09-30 23:45:00 235 11678.0 4.72 8.280 4.922 4.869 4.818 91.600 89.600 3.475 3.301 8.620 8.740 8.570 9.530 0.276 0.188 0.232 0.240     218.400 0.00 1 1 4.740 8.300 4.942 4.878 4.889 3.619 3.440 2.0050 4.684 8.250 4.909 4.751 4.843 3.342 3.212 0.7670 134.90 72.96 20 0                             8.553 7.837 0.718 8.643 7.741 0.899
UPLMET_235 2016-09-30 23:40:00 235 11678.0 4.69 8.260 4.890 4.863 4.855 92.100 89.600 3.516 3.307 8.620 8.740 8.570 9.530 0.276 0.188 0.232 0.240     218.400 0.00 1 1 4.714 8.280 4.914 4.911 4.892 3.610 3.402 1.5060 4.651 8.230 4.858 4.769 4.823 3.442 3.225 0.3410 305.90 29.52 20 0                             8.535 7.859 0.674 8.640 7.744 0.899
UPLMET_235 2016-09-30 23:35:00 235 11678.0 4.66 8.210 4.860 4.833 4.764 93.000 90.200 3.627 3.372 8.630 8.740 8.570 9.530 0.276 0.188 0.232 0.240     218.400 0.00 1 1 4.685 8.250 4.885 4.889 4.853 3.716 3.500 0.9180 4.609 8.160 4.824 4.707 4.804 3.466 3.189 0.2070 298.50 17.12 20 0                             8.515 7.921 0.596 8.621 7.780 0.845
UPLMET_235 2016-09-30 23:30:00 235 11678.0 4.61 8.160 4.821 4.787 17.699 93.200 90.500 3.617 3.365 8.630 8.740 8.570 9.530 0.275 0.188 0.232 0.240     218.500 0.00 1 1 4.635 8.170 4.830   4.811 3.702 3.436 0.7040 4.593 8.140 4.803   4.751 3.569 3.294 0.2790 243.00 33.15 20 0                             8.489 7.916 0.577 8.594 7.776 0.816
UPLMET_235 2016-09-30 23:25:00 235 11678.0 4.60 8.140 4.795 4.783 30.635 93.200 91.200 3.602 3.473 8.640 8.740 8.570 9.530 0.275 0.188 0.232 0.240     218.400 0.00 1 1 4.622 8.170 4.805   4.811 3.646 3.554 0.8730 4.596 8.130 4.786   4.761 3.548 3.348 0.3510 344.90 54.36 20 0                             8.484 7.907 0.577 8.591 7.835 0.756
UPLMET_235 2016-09-30 23:20:00 235 11678.0 4.62 8.180 4.823 4.830 43.570 93.600 91.400 3.681 3.549 8.640 8.740 8.570 9.530 0.276 0.188 0.232 0.240     218.400 0.00 1 1 4.636 8.220 4.848 53.670 4.864 3.720 3.604 0.5790 4.596 8.150 4.797 32.240 4.794 3.632 3.493 0.1130 189.90 18.49 20 0                             8.495 7.951 0.544 8.620 7.878 0.741
UPLMET_235 2016-09-30 23:15:00 235 11678.0 4.66 8.230 4.873 4.869 29.200 93.400 91.100 3.683 3.540 8.640 8.740 8.570 9.530 0.275 0.188 0.232 0.239     218.500 0.00 1 1 4.692 8.270 4.912 31.710 4.904 3.725 3.632 0.7750 4.636 8.200 4.847 27.680 4.844 3.556 3.291 0.3580 78.29 9.69 20 0                             8.517 7.953 0.562 8.643 7.873 0.769
UPLMET_235 2016-09-30 23:10:00 235 11678.0 4.68 8.290 4.935 4.888 21.670 92.400 89.300 3.549 3.272 8.650 8.740 8.570 9.530 0.276 0.188 0.232 0.239     218.500 0.00 1 1 4.692 8.330 4.966 27.710 4.904 3.637 3.355 0.6680 4.652 8.250 4.908 19.110 4.864 3.473 3.178 0.1780 55.53 0.01 20 0                             8.527 7.878 0.648 8.655 7.725 0.926
UPLMET_235 2016-09-30 23:05:00 235 11678.0 4.64 8.300 4.910 4.841 15.440 92.400 89.600 3.516 3.287 8.650 8.740 8.570 9.530 0.275 0.188 0.232 0.239     218.400 0.00 1 1 4.666 8.330 4.952 18.810 4.881 3.633 3.430 0.9530 4.594 8.230 4.839 13.600 4.792 3.421 3.184 0.4730 77.00 23.86 20 0                             8.504 7.859 0.646 8.626 7.733 0.897
UPLMET_235 2016-09-30 23:00:00 235 11678.0 4.59 8.220 4.835 4.790 11.750 93.700 91.200 3.673 3.475 8.660 8.740 8.570 9.530 0.276 0.188 0.232 0.239     218.400 0.00 1 1 4.623 8.250 4.844 13.460 4.815 3.747 3.533 0.6500 4.547 8.190 4.825 10.900 4.759 3.533 3.395 0.1310 30.06 6.96 20 0                             8.478 7.947 0.534 8.596 7.837 0.756
UPLMET_235 2016-09-30 22:55:00 235 11678.0 4.49 8.140 4.799 4.706 10.480 93.600 90.800 3.544 3.334 8.660 8.740 8.570 9.530 0.276 0.188 0.232 0.239     218.400 0.00 1 1 4.557 8.230 4.857 10.910 4.776 3.664 3.564 1.4430 4.412 7.983 4.648 9.620 4.624 3.432 3.198 0.5200 44.42 15.00 20 0                             8.416 7.875 0.539 8.545 7.759 0.786
UPLMET_235 2016-09-30 22:50:00 235 11678.0 4.38 7.939 4.623 4.614 9.290 94.600 91.800 3.597 3.401 8.670 8.740 8.570 9.530 0.276 0.188 0.232 0.239     218.500 0.00 1 1 4.412 7.977 4.638 9.520 4.634 3.632 3.508 1.4250 4.360 7.890 4.600 9.120 4.597 3.549 3.321 0.3490 11.59 49.16 20 0                             8.354 7.904 0.451 8.490 7.796 0.696
UPLMET_235 2016-09-30 22:45:00 235 11678.0 4.34 7.905 4.612 4.588 8.830 94.300 91.500 3.513 3.322 8.670 8.740 8.580 9.530 0.276 0.188 0.232 0.239     218.400 0.00 1 1 4.379 7.948 4.640 9.100 4.617 3.588 3.406 0.6950 4.310 7.880 4.596 8.640 4.555 3.422 3.190 0.2630 196.70 45.18 20 0                             8.331 7.858 0.475 8.475 7.752 0.720
UPLMET_235 2016-09-30 22:40:00 235 11678.0 4.27 7.837 4.527 4.522 8.020 94.500 91.700 3.476 3.290 8.670 8.740 8.580 9.530 0.276 0.188 0.232 0.239     218.400 0.00 1 1 4.307 7.880 4.587 8.540 4.551 3.542 3.374 0.4630 4.234 7.805 4.504 7.711 4.505 3.431 3.210 0.0810 214.30 5.30 20 0                             8.290 7.837 0.456 8.436 7.735 0.700
UPLMET_235 2016-09-30 22:35:00 235 11678.0 4.20 7.731 4.467 4.482 7.592 94.900 91.400 3.457 3.208 8.680 8.740 8.580 9.530 0.276 0.188 0.232 0.239     218.400 0.00 1 1 4.241 7.794 4.507 7.728 4.522 3.502 3.322 0.7480 4.142 7.688 4.431 7.433 4.436 3.414 3.143 0.2480 269.60 32.60 20 0                             8.245 7.827 0.420 8.412 7.690 0.723
UPLMET_235 2016-09-30 22:30:00 235 11678.0 4.12 7.676 4.382 4.393 7.188 94.800 91.900 3.370 3.200 8.680 8.740 8.580 9.530 0.276 0.188 0.232 0.239     218.400 0.00 1 1 4.161 7.705 4.420 7.374 4.426 3.416 3.261 0.5080 4.082 7.596 4.313 6.971 4.333 3.301 3.139 0.2000 343.00 38.82 20 0                             8.201 7.779 0.426 8.360 7.686 0.677
UPLMET_235 2016-09-30 22:25:00 235 11678.0 4.05 7.577 4.286 4.298 6.862 94.800 92.100 3.302 3.128 8.680 8.740 8.580 9.530 0.276 0.188 0.232 0.239     218.400 0.00 1 1 4.082 7.592 4.303 6.950 4.333 3.323 3.169 0.6860 4.023 7.546 4.264 6.738 4.274 3.283 3.103 0.1740 12.39 19.66 20 0                             8.161 7.741 0.424 8.304 7.646 0.656
UPLMET_235 2016-09-30 22:20:00 235 11678.0 3.99 7.528 4.243 4.256 6.383 95.000 92.300 3.260 3.119 8.690 8.740 8.580 9.530 0.275 0.188 0.232 0.239     218.400 0.00 1 1 4.013 7.547 4.259 6.679 4.274 3.285 3.166 0.8820 3.954 7.492 4.225 6.100 4.238 3.238 3.088 0.2350 313.50 2.49 20 0                             8.124 7.718 0.406 8.280 7.642 0.638
UPLMET_235 2016-09-30 22:15:00 235 11678.0 3.93 7.491 4.197 4.245 5.904 94.800 91.900 3.175 3.055 8.690 8.740 8.580 9.530 0.276 0.188 0.232 0.239     218.500 0.00 1 1 3.963 7.522 4.207 6.050 4.277 3.253 3.099 0.4010 3.901 7.464 4.185 5.799 4.218 3.104 3.021 0.0760 177.00 20.48 20 0                             8.095 7.672 0.421 8.274 7.607 0.670
UPLMET_235 2016-09-30 22:10:00 235 11678.0 3.84 7.448 4.139 4.189 5.723 94.500 91.700 3.049 2.961 8.690 8.740 8.580 9.530 0.276 0.188 0.232 0.239     218.400 0.00 1 1 3.897 7.512 4.196 5.995 4.244 3.109 3.038 0.6770 3.798 7.360 4.053 5.487 4.115 2.976 2.874 0.0850 148.70 2.50 20 0                             8.042 7.604 0.442 8.241 7.556 0.684
UPLMET_235 2016-09-30 22:05:00 235 11678.0 3.82 7.402 4.071 4.169 5.275 94.400 91.400 3.007 2.889 8.690 8.740 8.580 9.530 0.276 0.188 0.232 0.239     218.400 0.00 1 1 3.831 7.497 4.100 5.388 4.214 3.042 2.947 0.5080 3.788 7.330 4.043 5.158 4.119 2.976 2.867 0.0710 155.60 0.26 20 0                             8.027 7.581 0.450 8.229 7.518 0.708
UPLMET_235 2016-09-30 22:00:00 235 11678.0 3.85 7.609 4.142 4.242 5.174 93.700 91.100 2.934 2.928 8.690 8.740 8.580 9.530 0.276 0.188 0.232 0.239     218.400 0.00 1 1 3.880 7.710 4.173 5.373 4.284 2.976 2.963 0.9090 3.818 7.523 4.109 5.007 4.217 2.900 2.896 0.0940 291.10 54.63 20 0                             8.048 7.542 0.507 8.272 7.539 0.736
UPLMET_235 2016-09-30 21:55:00 235 11678.0 3.85 7.933 4.220 4.284 5.329 94.500 91.200 3.044 2.987 8.700 8.740 8.580 9.530 0.276 0.188 0.232 0.239     218.400 0.00 1 1 3.900 8.050 4.262 5.521 4.320 3.140 3.021 1.2920 3.682 7.772 4.158 5.097 4.201 2.938 2.945 0.5280 298.90 63.85 20 0                             8.044 7.601 0.442 8.296 7.570 0.730
UPLMET_235 2016-09-30 21:50:00 235 11678.0 3.37 7.574 3.852 4.045 4.906 95.200 91.900 2.678 2.844 8.700 8.740 8.580 9.530 0.276 0.188 0.232 0.239     218.400 0.00 1 1 3.613 7.939 4.087 5.331 4.162 3.063 2.982 2.2990 3.305 7.420 3.765 4.640 3.999 2.495 2.741 0.8050 308.80 16.40 20 0                             7.779 7.406 0.373 8.158 7.494 0.661
UPLMET_235 2016-09-30 21:45:00 235 11678.0 3.48 7.609 3.821 4.086 4.627 93.500 91.000 2.538 2.746 8.700 8.740 8.580 9.530 0.276 0.188 0.232 0.239     218.400 0.00 1 1 3.629 7.865 3.943 4.898 4.175 2.697 2.798 2.0670 3.322 7.459 3.762 4.411 4.023 2.438 2.671 0.9070 302.60 28.75 20 0                             7.839 7.332 0.510 8.182 7.442 0.736
UPLMET_235 2016-09-30 21:40:00 235 11678.0 3.73 8.050 4.057 4.244 4.810 93.600 90.500 2.795 2.824 8.700 8.740 8.580 9.530 0.276 0.188 0.232 0.239     218.400 0.00 1 1 3.814 8.180 4.176 5.150 4.294 2.881 2.886 0.7660 3.643 7.969 3.931 4.655 4.178 2.705 2.771 0.1110 226.10 31.63 20 0                             7.978 7.468 0.511 8.273 7.483 0.786
UPLMET_235 2016-09-30 21:35:00 235 11678.0 3.88 8.270 4.146 4.282 4.932 93.300 90.500 2.911 2.871 8.700 8.740 8.580 9.530 0.276 0.188 0.232 0.239     218.400 0.00 1 1 3.937 8.410 4.189 5.165 4.307 2.982 2.894 1.2470 3.821 8.150 4.109 4.812 4.264 2.832 2.841 0.4480 216.70 42.88 20 0                             8.066 7.530 0.540 8.295 7.508 0.788
UPLMET_235 2016-09-30 21:30:00 235 11678.0 3.93 8.430 4.179 4.341 4.750 93.000 89.500 2.903 2.776 8.700 8.740 8.580 9.530 0.276 0.188 0.232 0.239     218.400 0.00 1 1 3.993 8.660 4.299 4.905 4.452 2.945 2.835 0.9270 3.854 8.250 4.075 4.634 4.247 2.877 2.735 0.1240 194.80 12.56 20 0                             8.092 7.525 0.566 8.329 7.458 0.875
UPLMET_235 2016-09-30 21:25:00 235 11678.0 3.98 8.800 4.367 4.477 5.044 92.200 88.600 2.835 2.764 8.700 8.740 8.580 9.530 0.276 0.188 0.232 0.239     218.400 0.00 1 1 4.003 8.880 4.451 5.235 4.528 2.923 2.805 0.8200 3.966 8.730 4.315 4.881 4.429 2.775 2.729 0.1810 208.10 25.04 20 0                             8.122 7.489 0.634 8.409 7.451 0.959
UPLMET_235 2016-09-30 21:20:00 235 11678.0 4.03 8.780 4.358 4.470 4.817 92.400 88.800 2.912 2.782 8.700 8.740 8.580 9.530 0.276 0.188 0.232 0.239     218.300 0.00 1 1 4.098 8.940 4.461 5.019 4.535 2.928 2.836 0.9270 3.956 8.670 4.282 4.750 4.406 2.846 2.688 0.1720 251.00 45.60 20 0                             8.149 7.530 0.619 8.405 7.461 0.941
UPLMET_235 2016-09-30 21:15:00 235 11678.0 4.05 9.030 4.509 4.551 5.079 92.200 88.400 2.908 2.802 8.700 8.740 8.580 9.530 0.276 0.188 0.232 0.239     218.300 0.00 1 1 4.108 9.200 4.583 5.269 4.607 2.950 2.825 1.1940 3.933 8.890 4.427 4.871 4.475 2.869 2.779 0.5090 124.90 28.67 20 0                             8.160 7.528 0.637 8.453 7.472 0.981
UPLMET_235 2016-09-30 21:10:00 235 11678.0 3.88 8.810 4.312 4.392 4.750 92.800 89.100 2.830 2.754 8.700 8.740 8.580 9.530 0.276 0.188 0.232 0.239     218.400 0.00 1 1 3.933 8.900 4.369 5.059 4.452 2.902 2.801 1.0870 3.867 8.730 4.280 4.557 4.362 2.754 2.671 0.3920 259.80 32.51 20 0                             8.065 7.486 0.581 8.359 7.446 0.911
UPLMET_235 2016-09-30 21:05:00 235 11678.0 3.81 8.670 4.294 4.348 4.605 92.600 88.700 2.725 2.647 8.700 8.740 8.580 9.530 0.276 0.188 0.232 0.239     218.400 0.00 1 1 3.896 8.750 4.391 4.930 4.395 2.781 2.687 0.9530 3.721 8.550 4.213 4.431 4.293 2.672 2.601 0.2420 192.00 15.22 20 0                             8.026 7.431 0.594 8.334 7.390 0.942
UPLMET_235 2016-09-30 21:00:00 235 11678.0 3.54 7.938 4.106 4.133 4.481 93.400 89.200 2.567 2.516 8.700 8.740 8.580 9.530 0.276 0.188 0.232 0.239     218.300 0.00 1 1 3.734 8.470 4.267 4.832 4.312 2.679 2.626 1.6570 3.354 7.362 3.889 4.018 3.975 2.443 2.395 0.8410 234.80 42.12 20 0                             7.870 7.348 0.519 8.209 7.321 0.887
UPLMET_235 2016-09-30 20:55:00 235 11678.0 3.27 7.441 3.934 3.968 4.441 94.200 89.400 2.434 2.392 8.700 8.740 8.580 9.530 0.276 0.188 0.232 0.239     218.300 0.00 1 1 3.357 7.610 4.033 5.032 4.057 2.567 2.505 1.0960 3.086 7.100 3.776 3.989 3.816 2.336 2.276 0.4140 281.00 37.05 20 0                             7.726 7.278 0.448 8.114 7.257 0.860
UPLMET_235 2016-09-30 20:50:00 235 11678.0 2.97 6.406 3.479 3.608 3.854 94.900 90.900 2.235 2.271 8.700 8.730 8.580 9.530 0.276 0.188 0.232 0.239     218.300 0.00 1 1 3.049 7.044 3.755 4.555 3.770 2.336 2.384 0.6590 2.937 6.104 3.349 3.441 3.535 2.156 2.186 0.2320 201.70 65.34 20 0                             7.564 7.176 0.386 7.911 7.194 0.720
UPLMET_235 2016-09-30 20:45:00 235 11678.0 3.02 5.906 3.386 3.633 3.508 94.200 90.300 2.174 2.200 8.700 8.730 8.580 9.530 0.276 0.188 0.232 0.239     218.300 0.00 1 1 3.121 6.060 3.405 3.659 3.670 2.229 2.222 0.4900 2.963 5.810 3.357 3.348 3.604 2.112 2.178 0.1550 151.70 1.17 20 0                             7.587 7.144 0.440 7.925 7.158 0.769
UPLMET_235 2016-09-30 20:40:00 235 11678.0 3.19 5.717 3.569 3.792 3.581 93.700 89.400 2.265 2.219 8.700 8.730 8.580 9.530 0.276 0.188 0.232 0.239     218.300 0.00 1 1 3.240 5.792 3.652 3.839 3.848 2.302 2.259 0.2410 3.118 5.616 3.417 3.322 3.693 2.223 2.189 0.0200 166.20 22.21 20 0                             7.678 7.191 0.484 8.014 7.167 0.849
UPLMET_235 2016-09-30 20:35:00 235 11678.0 3.26 5.493 3.719 3.892 3.862 93.700 89.000 2.345 2.242 8.690 8.730 8.580 9.530 0.276 0.188 0.232 0.239     218.300 0.00 1 1 3.276 5.621 3.756 4.013 3.921 2.375 2.267 1.0780 3.237 5.238 3.660 3.670 3.861 2.319 2.217 0.2390 260.70 4.86 20 0                             7.719 7.232 0.486 8.071 7.179 0.888
UPLMET_235 2016-09-30 20:30:00 235 11678.0 3.25 5.084 3.701 3.904 3.844 93.600 88.900 2.323 2.240 8.690 8.730 8.580 9.530 0.276 0.188 0.232 0.239     218.400 0.00 1 1 3.276 5.206 3.743 4.097 3.956 2.353 2.271 0.6150 3.206 4.979 3.664 3.722 3.861 2.287 2.220 0.1670 1.84 65.74 20 0                             7.714 7.221 0.494 8.077 7.178 0.897
UPLMET_235 2016-09-30 20:25:00 235 11678.0 3.05 4.768 3.577 3.770 3.927 94.400 89.400 2.231 2.191 8.690 8.730 8.580 9.530 0.276 0.188 0.232 0.239     218.300 0.00 1 1 3.199 5.003 3.760 4.676 3.936 2.355 2.261 1.1670 2.945 4.540 3.403 3.467 3.662 2.029 2.072 0.5220 194.00 45.13 20 0                             7.602 7.174 0.426 8.002 7.153 0.848
UPLMET_235 2016-09-30 20:20:00 235 11678.0 3.00 4.395 3.488 3.741 3.471 93.400 88.900 2.037 2.082 8.690 8.730 8.580 9.530 0.276 0.188 0.232 0.239     218.300 0.00 1 1 3.053 4.527 3.569 3.832 3.807 2.084 2.164 0.7840 2.958 4.231 3.423 3.327 3.692 2.007 2.017 0.1110 4.57 43.91 20 0                             7.575 7.075 0.500 7.985 7.098 0.886
UPLMET_235 2016-09-30 20:15:00 235 11678.0 3.14 4.212 3.541 3.781 3.521 92.700 88.500 2.072 2.059 8.680 8.730 8.580 9.530 0.276 0.188 0.232 0.239     218.400 0.00 1 1 3.198 4.257 3.635 3.687 3.846 2.151 2.103 0.7220 3.037 4.164 3.441 3.386 3.698 1.992 2.007 0.3850 196.90 73.17 20 0                             7.652 7.093 0.559 8.008 7.086 0.921
UPLMET_235 2016-09-30 20:10:00 235 11678.0 3.21 4.279 3.623 3.817 3.731 91.800 87.700 2.009 1.962 8.680 8.730 8.580 9.530 0.276 0.188 0.232 0.239     218.300 0.00 1 1 3.274 4.400 3.750 4.190 3.882 2.066 2.067 1.0420 3.172 4.200 3.547 3.511 3.747 1.955 1.876 0.4200 154.90 62.56 20 0                             7.690 7.061 0.631 8.028 7.037 0.987
UPLMET_235 2016-09-30 20:05:00 235 11678.0 3.32 4.395 3.768 4.007 3.784 91.300 86.400 2.044 1.942 8.680 8.730 8.580 9.530 0.276 0.188 0.232 0.239     218.300 0.00 1 1 3.376 4.499 3.889 4.152 4.073 2.082 1.983 0.4100 3.267 4.279 3.613 3.492 3.865 1.994 1.879 0.1420 151.90 0.70 20 0                             7.753 7.078 0.674 8.136 7.027 1.107
UPLMET_235 2016-09-30 20:00:00 235 11678.0 3.25 4.285 3.749 3.941 3.877 92.300 86.700 2.123 1.926 8.670 8.730 8.580 9.530 0.276 0.188 0.232 0.239     218.400 0.00 1 1 3.273 4.425 3.856 4.215 4.030 2.172 2.026 0.6410 3.237 4.218 3.700 3.721 3.898 2.035 1.843 0.2770 155.40 37.90 20 0                             7.714 7.118 0.594 8.099 7.019 1.077
UPLMET_235 2016-09-30 19:55:00 235 11678.0 3.24 4.199 3.734 3.907 3.742 92.500 86.900 2.145 1.932 8.670 8.730 8.580 9.530 0.276 0.188 0.232 0.239     218.300 0.00 1 1 3.256 4.265 3.779 3.876 3.950 2.216 1.978 0.8550 3.217 4.171 3.699 3.671 3.861 2.087 1.861 0.3390 283.60 1.52 20 0                             7.706 7.130 0.578 8.079 7.022 1.058
UPLMET_235 2016-09-30 19:50:00 235 11678.0 3.17 4.137 3.779 3.904 3.945 92.500 86.700 2.071 1.890 8.660 8.730 8.580 9.530 0.276 0.188 0.232 0.239     218.300 0.00 1 1 3.252 4.200 3.834 4.065 3.963 2.126 1.955 0.6060 3.020 4.022 3.694 3.741 3.807 2.003 1.824 0.1880 189.50 0.01 20 0                             7.667 7.092 0.575 8.077 7.001 1.074
UPLMET_235 2016-09-30 19:45:00 235 11678.0 2.94 3.767 3.528 3.673 10.300 93.600 87.700 2.001 1.832 8.660 8.730 8.580 9.530 0.276 0.188 0.232 0.239     218.300 0.00 1 1 2.997 3.975 3.663 41.050 3.787 2.025 1.878 0.7310 2.894 3.699 3.480 4.010 3.641 1.978 1.805 0.3510 289.10 73.73 20 0                             7.543 7.057 0.483 7.947 6.972 0.977
UPLMET_235 2016-09-30 19:40:00 235 11678.0 2.87 3.647 3.447 3.624 4.956 93.500 87.900 1.934 1.805 8.660 8.720 8.580 9.530 0.276 0.188 0.232 0.239     218.400 0.00 1 1 2.907 3.684 3.476 5.607 3.654 1.992 1.839 0.8370 2.817 3.580 3.382 4.432 3.561 1.846 1.742 0.4090 263.80 1.21 20 0                             7.509 7.023 0.488 7.920 6.958 0.958
UPLMET_235 2016-09-30 19:35:00 235 11678.0 2.81 3.523 3.333 3.512 4.041 93.000 88.100 1.788 1.729 8.650 8.720 8.580 9.530 0.276 0.188 0.232 0.239     218.300 0.00 1 1 2.830 3.567 3.399 4.303 3.544 1.827 1.765 0.5520 2.780 3.478 3.272 3.751 3.471 1.740 1.682 0.1510 262.30 0.06 20 0                             7.476 6.950 0.523 7.857 6.920 0.935
UPLMET_235 2016-09-30 19:30:00 235 11678.0 2.83 3.482 3.284 3.516 5.375 92.500 87.800 1.736 1.693 8.640 8.720 8.580 9.530 0.276 0.188 0.232 0.239     218.300 0.00 1 1 2.902 3.524 3.304   3.566 1.768 1.736 0.8110 2.783 3.460 3.267   3.467 1.710 1.651 0.4210 262.60 0.31 20 0                             7.487 6.924 0.562 7.859 6.903 0.959
UPLMET_235 2016-09-30 19:25:00 235 11678.0 3.01 3.667 3.362 3.601 6.709 92.100 87.500 1.853 1.731 8.640 8.720 8.580 9.530 0.276 0.188 0.232 0.239     218.200 0.00 1 1 3.086 3.822 3.446   3.654 2.032 1.872 0.3650 2.905 3.534 3.292   3.542 1.710 1.643 0.0990 189.30 7.28 20 0                             7.582 6.982 0.599 7.907 6.921 0.988
UPLMET_235 2016-09-30 19:20:00 235 11678.0 3.12 3.920 3.539 3.773 8.042 91.300 86.100 1.833 1.667 8.630 8.720 8.580 9.530 0.276 0.188 0.232 0.239     218.400 0.00 1 1 3.184 4.023 3.647   3.871 2.044 1.881 1.4610 3.066 3.837 3.457   3.674 1.688 1.545 0.3890 230.10 36.86 20 0                             7.640 6.972 0.665 8.003 6.890 1.112
UPLMET_235 2016-09-30 19:15:00 235 11678.0 3.19 4.060 3.737 3.968 9.376 90.900 84.500 1.843 1.593 8.630 8.720 8.580 9.530 0.276 0.188 0.232 0.239     218.200 0.00 1 1 3.203 4.124 3.824   4.043 1.881 1.616 0.4720 3.161 4.020 3.659   3.878 1.783 1.558 0.2360 263.30 0.03 20 0                             7.678 6.977 0.699 8.114 6.853 1.258
UPLMET_235 2016-09-30 19:10:00 235 11678.0 3.25 4.156 3.860 4.118 10.710 90.800 83.700 1.896 1.615 8.620 8.720 8.580 9.530 0.276 0.188 0.232 0.239     218.200 0.00 1 1 3.315 4.182 3.919 18.230 4.174 1.937 1.702 0.7570 3.190 4.127 3.821 8.010 4.049 1.871 1.558 0.3770 263.70 0.52 20 0                             7.714 7.004 0.710 8.200 6.864 1.337
UPLMET_235 2016-09-30 19:05:00 235 11678.0 3.39 4.260 3.940 4.194 7.202 90.000 83.300 1.903 1.626 8.620 8.720 8.580 9.530 0.276 0.188 0.232 0.239     218.200 0.00 1 1 3.486 4.326 3.964 7.826 4.259 1.973 1.757 0.9350 3.321 4.190 3.905 6.543 4.170 1.803 1.540 0.4730 291.80 23.47 20 0                             7.790 7.007 0.779 8.244 6.869 1.377
UPLMET_235 2016-09-30 19:00:00 235 11678.0 3.52 4.464 4.022 4.241 6.616 89.600 83.000 1.978 1.622 8.610 8.720 8.580 9.530 0.276 0.188 0.232 0.239     218.200 0.00 1 1 3.574 4.549 4.094 6.969 4.328 2.054 1.785 0.6950 3.496 4.370 3.969 6.383 4.166 1.881 1.498 0.2750 225.40 1.52 20 0                             7.863 7.045 0.818 8.271 6.868 1.406
UPLMET_235 2016-09-30 18:55:00 235 11678.0 3.60 4.645 3.985 4.219 6.287 88.800 82.900 1.924 1.575 8.600 8.720 8.580 9.530 0.276 0.188 0.232 0.239     218.300 0.00 1 1 3.653 4.686 4.026 6.449 4.254 2.064 1.626 0.9440 3.564 4.578 3.966 6.192 4.195 1.857 1.508 0.3810 214.90 8.62 20 0                             7.903 7.018 0.885 8.258 6.844 1.412
UPLMET_235 2016-09-30 18:50:00 235 11678.0 3.76 4.731 4.087 4.369 6.236 88.300 82.300 2.002 1.614 8.600 8.720 8.580 9.530 0.276 0.188 0.232 0.239     218.300 0.00 1 1 3.840 4.812 4.204 6.432 4.474 2.051 1.687 0.5790 3.656 4.681 3.987 6.141 4.264 1.943 1.554 0.2000 202.30 40.67 20 0                             7.996 7.057 0.936 8.346 6.864 1.477
UPLMET_235 2016-09-30 18:45:00 235 11678.0 3.94 4.914 4.269 4.593 6.411 87.500 80.700 2.052 1.574 8.590 8.720 8.580 9.530 0.276 0.188 0.232 0.239     218.300 0.00 1 1 4.090 5.093 4.385 6.528 4.738 2.199 1.689 0.9710 3.836 4.816 4.222 6.334 4.488 1.939 1.488 0.5200 270.30 5.44 20 0                             8.099 7.082 1.012 8.478 6.844 1.636
UPLMET_235 2016-09-30 18:40:00 235 11678.0 4.18 5.223 4.557 4.891 6.585 85.900 79.580 2.030 1.662 8.580 8.720 8.580 9.530 0.276 0.188 0.232 0.239     218.300 0.00 1 1 4.281 5.343 4.736 6.794 5.035 2.228 1.852 0.7040 4.097 5.147 4.435 6.453 4.764 1.862 1.481 0.1030 247.80 9.86 20 0                             8.236 7.071 1.161 8.657 6.887 1.768
UPLMET_235 2016-09-30 18:35:00 235 11678.0 4.46 5.249 4.814 5.102 6.978 84.500 77.720 2.073 1.536 8.580 8.720 8.590 9.530 0.276 0.188 0.232 0.239     218.400 0.00 1 1 4.700 5.337 4.895 7.245 5.163 2.236 1.808 1.2290 4.321 5.155 4.754 6.794 5.044 1.798 1.308 0.4640 253.00 31.18 20 0                             8.398 7.093 1.302 8.785 6.825 1.957
UPLMET_235 2016-09-30 18:30:00 235 11678.0 4.99 5.595 5.161 5.454 7.188 82.400 76.530 2.241 1.664 8.570 8.720 8.580 9.530 0.276 0.188 0.232 0.239     218.300 0.00 1 1 5.211 5.883 5.440 7.602 5.657 2.398 1.795 0.9530 4.750 5.280 4.873 6.859 5.182 2.106 1.517 0.3410 230.10 24.90 20 0                             8.715 7.179 1.534 9.003 6.888 2.113
UPLMET_235 2016-09-30 18:25:00 235 11678.0 5.41 6.085 5.641 5.800 7.821 78.130 73.840 1.910 1.499 8.560 8.720 8.590 9.530 0.276 0.188 0.232 0.239     218.400 0.00 1 1 5.574 6.217 5.770 8.040 5.878 2.087 1.662 1.8710 5.238 5.935 5.491 7.542 5.707 1.685 1.209 0.6160 108.80 50.08 20 0                             8.975 7.011 1.963 9.222 6.807 2.412
UPLMET_235 2016-09-30 18:20:00 235 11678.0 5.66 6.350 5.905 5.999 8.250 75.320 72.100 1.641 1.357 8.550 8.720 8.590 9.530 0.276 0.188 0.232 0.239     218.400 0.00 1 1 5.715 6.423 5.974 8.550 6.068 2.166 1.744 1.3720 5.590 6.203 5.761 7.897 5.894 1.299 1.143 0.7690 75.31 18.46 20 0                             9.135 6.877 2.254 9.350 6.738 2.609
UPLMET_235 2016-09-30 18:15:00 235 11678.0 5.87 6.555 6.135 6.200 8.340 75.600 71.810 1.893 1.494 8.540 8.720 8.590 9.530 0.276 0.188 0.232 0.239     218.400 0.00 1 1 5.956 6.678 6.272 8.690 6.273 2.375 2.156 1.9150 5.745 6.388 5.920 7.847 6.085 1.329 1.167 0.6660 123.90 42.34 20 0                             9.268 7.002 2.261 9.481 6.805 2.673
UPLMET_235 2016-09-30 18:10:00 235 11678.0 6.03 6.684 6.284 6.311 8.650 73.360 70.550 1.633 1.356 8.540 8.720 8.590 9.530 0.276 0.188 0.232 0.239     218.400 0.00 1 1 6.123 6.803 6.411 8.900 6.410 2.156 1.814 2.3160 5.972 6.624 6.214 8.480 6.246 1.336 1.130 1.3210 65.87 24.99 20 0                             9.372 6.873 2.497 9.554 6.737 2.814
UPLMET_235 2016-09-30 18:05:00 235 11678.0 6.02 6.692 6.327 6.345 8.790 72.380 69.780 1.431 1.237 8.530 8.720 8.590 9.530 0.276 0.188 0.232 0.239     218.500 0.00 1 1 6.080 6.812 6.403 8.950 6.387 1.699 1.415 2.0310 5.971 6.633 6.289 8.650 6.321 1.214 1.093 0.7510 48.73 67.12 20 0                             9.362 6.774 2.586 9.576 6.680 2.894
UPLMET_235 2016-09-30 18:00:00 235 11678.0 6.00 6.660 6.320 6.330 8.720 72.880 69.990 1.509 1.264 8.520 8.720 8.590 9.520 0.276 0.188 0.232 0.239     218.500 0.00 1 1 6.069 6.755 6.382 8.910 6.360 1.834 1.632 2.1200 5.890 6.508 6.212 8.500 6.263 1.183 1.078 1.0170 139.50 60.68 20 0                             9.351 6.812 2.536 9.566 6.693 2.871
UPLMET_235 2016-09-30 17:55:00 235 11678.0 6.00 6.558 6.265 6.362 8.490 75.210 71.660 1.948 1.624 8.510 8.720 8.590 9.530 0.276 0.188 0.232 0.239     218.400 0.00 1 1 6.100 6.656 6.393 8.640 6.467 2.279 1.948 2.1200 5.903 6.454 6.159 8.300 6.283 1.457 1.317 0.5320 314.40 70.10 20 0                             9.350 7.030 2.318 9.587 6.869 2.717
UPLMET_235 2016-09-30 17:50:00 235 11678.0 6.03 6.690 6.445 6.495 8.900 73.730 70.000 1.694 1.423 8.500 8.720 8.590 9.530 0.276 0.188 0.232 0.239     218.400 0.00 1 1 6.143 6.828 6.556 9.170 6.559 2.273 1.939 1.8800 5.938 6.576 6.351 8.660 6.444 1.218 1.044 0.8840 86.70 41.05 20 0                             9.367 6.903 2.461 9.676 6.770 2.903
UPLMET_235 2016-09-30 17:45:00 235 11678.0 6.11 6.569 6.375 6.539 8.550 77.250 71.650 2.425 1.791 8.490 8.720 8.590 9.520 0.276 0.188 0.232 0.239     218.400 0.00 1 1 6.291 6.766 6.571 8.810 6.707 2.796 2.224 1.3450 5.944 6.477 6.274 8.310 6.423 1.598 1.278 0.4900 162.30 32.96 20 0                             9.419 7.274 2.143 9.705 6.951 2.751
UPLMET_235 2016-09-30 17:40:00 235 11678.0 6.40 6.901 6.708 6.832 9.000 73.160 68.870 1.950 1.520 8.480 8.720 8.590 9.530 0.276 0.188 0.232 0.239     218.400 0.00 1 1 6.488 6.988 6.779 9.190 6.914 2.391 1.833 2.0400 6.304 6.788 6.598 8.710 6.723 1.438 1.187 0.6730 43.00 54.79 20 0                             9.614 7.031 2.580 9.903 6.817 3.083
UPLMET_235 2016-09-30 17:35:00 235 11678.0 6.66 7.094 6.880 6.993 9.140 73.240 68.330 2.207 1.563 8.480 8.720 8.590 9.530 0.276 0.188 0.232 0.239     218.500 0.00 1 1 6.771 7.204 6.960 9.430 7.055 2.723 2.137 1.9780 6.498 6.936 6.773 8.830 6.930 1.462 1.095 0.8270 42.37 75.29 20 0                             9.784 7.161 2.618 10.013 6.838 3.171
UPLMET_235 2016-09-30 17:30:00 235 11678.0 6.90 7.349 7.078 7.172 9.380 70.080 66.900 1.825 1.440 8.470 8.720 8.590 9.530 0.276 0.188 0.232 0.239     218.400 0.00 1 1 6.988 7.482 7.212 9.630 7.282 2.150 1.778 1.9600 6.781 7.233 6.961 9.220 7.061 1.305 0.986 0.9430 112.00 44.83 20 0                             9.948 6.968 2.976 10.137 6.778 3.355
UPLMET_235 2016-09-30 17:25:00 235 11678.0 7.11 7.601 7.332 7.392 9.680 69.310 65.880 1.876 1.434 8.460 8.720 8.590 9.530 0.276 0.188 0.232 0.239     218.500 0.00 1 1 7.162 7.726 7.445 10.070 7.443 2.427 1.962 0.6590 7.005 7.447 7.190 9.280 7.285 1.283 1.085 0.1590 18.28 50.08 20 0                             10.096 6.994 3.098 10.291 6.775 3.511
UPLMET_235 2016-09-30 17:20:00 235 11678.0 7.13 7.628 7.366 7.418 9.830 70.880 67.490 2.194 1.792 8.450 8.720 8.590 9.530 0.276 0.188 0.232 0.239     218.500 0.00 1 1 7.188 7.697 7.426 10.060 7.446 3.012 2.706 1.1850 7.093 7.591 7.336 9.680 7.393 1.138 0.971 0.3620 52.56 21.43 20 0                             10.106 7.155 2.943 10.309 6.952 3.352
UPLMET_235 2016-09-30 17:15:00 235 11678.0 7.28 7.741 7.490 7.531 9.840 72.920 69.610 2.749 2.337 8.440 8.720 8.590 9.530 0.276 0.188 0.232 0.239     218.500 0.00 1 1 7.323 7.789 7.548 9.980 7.597 3.696 3.157 1.4610 7.215 7.631 7.383 9.670 7.439 2.174 1.890 0.6430 131.90 73.35 20 0                             10.213 7.443 2.766 10.389 7.228 3.157
UPLMET_235 2016-09-30 17:10:00 235 11678.0 7.47 7.898 7.668 7.709 10.010 72.460 68.700 2.837 2.320 8.430 8.720 8.590 9.530 0.276 0.188 0.232 0.239     218.500 0.00 1 1 7.609 7.997 7.766 10.180 7.804 3.570 3.182 2.6550 7.346 7.781 7.550 9.790 7.623 2.053 1.723 1.2410 59.67 70.19 20 0                             10.343 7.490 2.848 10.516 7.219 3.292
UPLMET_235 2016-09-30 17:05:00 235 11678.0 7.61 8.100 7.913 7.922 10.330 68.960 65.430 2.281 1.841 8.420 8.720 8.590 9.530 0.276 0.188 0.232 0.239     218.400 0.00 1 1 7.655 8.190 7.985 10.590 7.959 3.172 2.626 1.2560 7.565 7.983 7.782 9.980 7.850 1.589 1.189 0.7050 97.80 59.94 20 0                             10.449 7.199 3.243 10.670 6.976 3.689
UPLMET_235 2016-09-30 17:00:00 235 11678.0 7.56 8.060 7.874 7.910 10.280 70.820 65.900 2.608 1.927 8.410 8.720 8.590 9.530 0.276 0.188 0.232 0.239     218.500 0.00 1 1 7.588 8.130 7.930 10.480 7.938 3.213 2.858 1.5410 7.522 8.000 7.836 10.130 7.875 1.516 1.200 0.5070 80.60 70.76 20 0                             10.411 7.369 3.038 10.661 7.019 3.636
UPLMET_235 2016-09-30 16:55:00 235 11678.0 7.65 8.020 7.849 7.934 10.160 73.090 67.560 3.133 2.300 8.400 8.730 8.590 9.520 0.276 0.188 0.232 0.239     218.400 0.00 1 1 7.781 8.080 7.927 10.440 8.030 3.790 3.236 1.7910 7.547 7.961 7.781 10.020 7.874 1.768 1.493 0.8420 74.18 51.65 20 0                             10.473 7.649 2.818 10.679 7.209 3.464
UPLMET_235 2016-09-30 16:50:00 235 11678.0 7.87 8.240 8.120 8.210 10.440 69.710 64.400 2.670 1.882 8.390 8.730 8.590 9.520 0.276 0.188 0.232 0.239     218.500 0.00 1 1 7.925 8.300 8.210 10.640 8.300 3.794 3.249 1.5060 7.810 8.100 7.966 10.160 8.080 1.449 1.098 0.6880 102.30 50.98 20 0                             10.629 7.402 3.220 10.881 6.997 3.874
UPLMET_235 2016-09-30 16:45:00 235 11678.0 7.80 8.270 8.180 8.190 10.750 65.770 61.660 1.800 1.275 8.380 8.730 8.590 9.520 0.276 0.188 0.232 0.239     218.600 0.00 1 1 7.912 8.330 8.250 10.980 8.280 2.514 1.780 1.9780 7.680 8.100 8.030 10.510 8.090 1.180 0.972 0.3610 57.01 40.35 20 0                             10.583 6.956 3.623 10.867 6.698 4.166
UPLMET_235 2016-09-30 16:40:00 235 11678.0 7.90 8.150 8.080 8.200 10.260 72.620 64.850 3.292 1.982 8.380 8.730 8.590 9.520 0.276 0.188 0.232 0.239     218.500 0.00 1 1 8.100 8.370 8.310 10.470 8.390 3.785 2.559 2.4770 7.696 7.974 7.896 10.120 8.070 1.951 1.323 0.5170 173.00 22.77 20 0                             10.657 7.736 2.918 10.874 7.047 3.822
UPLMET_235 2016-09-30 16:35:00 235 11678.0 8.17 8.550 8.490 8.500 10.890 62.950 58.480 1.528 0.828 8.370 8.730 8.590 9.520 0.276 0.188 0.232 0.239     218.400 0.00 1 1 8.200 8.650 8.580 11.210 8.560 2.700 1.521 1.9960 8.120 8.430 8.370 10.630 8.420 0.366 0.031 0.6820 135.10 35.63 20 0                             10.852 6.821 4.021 11.098 6.486 4.608
UPLMET_235 2016-09-30 16:30:00 235 11678.0 8.22 8.600 8.550 8.540 11.070 61.700 57.040 1.289 0.512 8.360 8.730 8.590 9.530 0.276 0.188 0.232 0.239     218.500 0.00 1 1 8.280 8.700 8.630 11.330 8.570 2.571 1.890 1.8620 8.180 8.500 8.460 10.820 8.510 -0.022 -0.259 0.6420 121.20 56.18 20 0                             10.889 6.705 4.170 11.128 6.339 4.781
UPLMET_235 2016-09-30 16:25:00 235 11678.0 8.21 8.590 8.570 8.570 11.130 59.190 55.960 0.698 0.256 8.350 8.730 8.590 9.530 0.276 0.188 0.232 0.239     218.500 0.00 1 1 8.290 8.700 8.690 11.510 8.660 2.430 1.854 2.2900 8.130 8.450 8.420 10.610 8.470 -0.808 -1.013 0.9250 60.69 43.10 20 0                             10.881 6.425 4.441 11.151 6.223 4.911
UPLMET_235 2016-09-30 16:20:00 235 11678.0 8.03 8.460 8.490 8.510 11.290 57.150 52.580 0.056 -0.633 8.340 8.730 8.590 9.520 0.276 0.188 0.232 0.239     218.600 0.00 1 1 8.140 8.630 8.630 11.500 8.580 2.115 0.268 2.0400 7.918 8.290 8.340 10.850 8.440 -0.691 -1.086 0.9090 264.50 42.70 20 0                             10.749 6.133 4.606 11.105 5.832 5.266
UPLMET_235 2016-09-30 16:15:00 235 11678.0 8.03 8.250 8.280 8.500 10.730 66.340 58.720 2.094 0.855 8.340 8.740 8.590 9.520 0.276 0.188 0.232 0.239     218.400 0.00 1 1 8.260 8.380 8.400 11.290 8.660 3.385 2.850 0.7660 7.839 8.070 8.130 10.330 8.390 -0.263 -0.670 0.2660 102.00 56.46 20 0                             10.749 7.104 3.618 11.098 6.498 4.581
UPLMET_235 2016-09-30 16:10:00 235 11678.0 8.47 8.760 8.790 9.000 11.110 62.770 55.930 1.735 0.650 8.330 8.740 8.590 9.520 0.276 0.188 0.232 0.239     218.500 0.00 1 1 8.560 9.020 9.090 11.830 9.170 3.174 1.686 0.9180 8.300 8.410 8.440 10.580 8.700 -0.703 -1.123 0.4360 274.80 28.98 20 0                             11.075 6.923 4.123 11.480 6.403 5.059
UPLMET_235 2016-09-30 16:05:00 235 11678.0 8.43 8.810 8.940 9.110   57.030 48.040 0.402 -1.315 8.320 8.740 8.590 9.520 0.276 0.188 0.232 0.239     218.500 0.00 1 1 8.510 8.880 8.990   9.140 1.222 -0.891 1.6040 8.350 8.730 8.870   9.070 -0.923 -1.732 0.3280 341.30 50.93 20 0                             11.045 6.289 4.746 11.565 5.547 6.009
UPLMET_235 2016-09-30 16:00:00 235 11678.0 8.78 8.980 9.030 9.230   65.540 52.210 2.660 -0.105 8.310 8.740 8.590 9.520 0.276 0.188 0.232 0.239     218.500 0.00 1 1 9.060 9.310 9.300   9.430 4.293 2.500 1.6210 8.520 8.810 8.870   9.100 -0.045 -1.819 1.0260 277.20 77.62 20 0                             11.310 7.396 3.898 11.659 6.061 5.572
UPLMET_235 2016-09-30 15:55:00 235 11678.0 9.06 9.310 9.360 9.440   57.730 49.920 1.086 -0.519 8.310 8.740 8.590 9.520 0.276 0.188 0.232 0.239     218.500 0.00 1 1 9.160 9.400 9.430   9.500 2.739 1.274 1.3810 8.950 9.220 9.300   9.390 -2.073 -2.233 0.6880 127.40 32.15 20 0                             11.526 6.608 4.872 11.826 5.881 5.922
UPLMET_235 2016-09-30 15:50:00 235 11678.0 9.29 9.480 9.480 9.540   56.250 48.990 0.989 -0.662 8.300 8.740 8.590 9.520 0.276 0.188 0.232 0.239     218.500 0.00 1 1 9.410 9.590 9.550   9.600 3.890 1.118 2.7170 9.170 9.380 9.400   9.470 -0.850 -1.689 0.7400 161.50 47.29 20 0                             11.707 6.562 5.122 11.905 5.820 6.073
UPLMET_235 2016-09-30 15:45:00 235 11678.0 9.48 9.660 9.630 9.680   54.690 50.130 0.776 -0.217 8.290 8.750 8.590 9.520 0.276 0.188 0.232 0.239     218.500 0.00 1 1 9.550 9.780 9.720   9.760 3.043 1.251 1.9960 9.430 9.560 9.530   9.590 -1.187 -1.662 0.7670 186.00 61.87 20 0                             11.857 6.461 5.373 12.018 6.012 5.993
UPLMET_235 2016-09-30 15:40:00 235 11678.0 9.53 9.790 9.730 9.800   53.490 50.450 0.538 -0.011 8.290 8.750 8.590 9.520 0.276 0.188 0.232 0.239     218.500 0.00 1 1 9.560 9.820 9.780   9.860 1.760 1.643 2.2720 9.510 9.760 9.670   9.770 -0.545 -0.997 0.9870 69.63 75.40 20 0                             11.897 6.351 5.533 12.115 6.103 6.003
UPLMET_235 2016-09-30 15:35:00 235 11678.0 9.54 9.820 9.830 9.930   51.230 45.760 -0.070 -1.229 8.280 8.750 8.590 9.520 0.276 0.188 0.232 0.239     218.300 0.00 1 1 9.640 9.880 9.870   10.000 2.405 0.118 2.2720 9.490 9.740 9.780   9.880 -1.732 -1.988 1.0190 159.00 55.21 20 0                             11.905 6.077 5.806 12.221 5.583 6.629
UPLMET_235 2016-09-30 15:30:00 235 11678.0 9.63 9.890 9.880 9.990   51.270 46.870 0.036 -0.852 8.280 8.750 8.590 9.520 0.276 0.188 0.232 0.239     218.200 0.00 1 1 9.680 9.940 9.930   10.070 1.939 0.587 1.5060 9.590 9.810 9.820   9.910 -1.282 -1.935 0.6260 62.25 41.65 20 0                             11.978 6.124 5.837 12.271 5.739 6.519
UPLMET_235 2016-09-30 15:25:00 235 11678.0 9.74 9.950 9.950 9.970   53.000 47.670 0.608 -0.629 8.270 8.750 8.590 9.520 0.276 0.188 0.232 0.239     218.300 0.00 1 1 9.780 10.000 10.000   10.030 1.798 0.099 1.0690 9.670 9.880 9.900   9.920 -0.573 -1.249 0.3810 124.50 34.93 20 0                             12.066 6.383 5.671 12.254 5.834 6.413
UPLMET_235 2016-09-30 15:20:00 235 11678.0 9.86 10.090 10.090 10.150   52.830 48.730 0.674 -0.179 8.270 8.760 8.590 9.520 0.276 0.188 0.232 0.239     218.300 0.00 1 1 9.960 10.240 10.220   10.240 2.053 1.742 4.8020 9.730 9.960 9.980   10.030 -0.796 -1.550 1.1990 7.76 59.98 20 0                             12.164 6.414 5.738 12.403 6.029 6.359
UPLMET_235 2016-09-30 15:15:00 235 11678.0 9.94 10.220 10.230 10.250   52.170 49.620 0.542 0.133 8.270 8.760 8.590 9.520 0.277 0.188 0.232 0.239     218.400 0.00 1 1 9.970 10.280 10.270   10.290 2.408 2.076 2.1380 9.920 10.170 10.180   10.200 -1.125 -1.371 0.6660 28.39 54.20 20 0                             12.229 6.353 5.849 12.486 6.167 6.290
UPLMET_235 2016-09-30 15:10:00 235 11678.0 10.06 10.210 10.200 10.300   58.000 52.180 2.160 0.924 8.260 8.760 8.590 9.520 0.277 0.188 0.232 0.239     218.400 0.00 1 1 10.170 10.370 10.370   10.450 3.297 1.696 1.8620 9.960 10.120 10.100   10.170 0.624 -0.450 1.1610 114.10 73.34 20 0                             12.328 7.137 5.178 12.528 6.531 5.991
UPLMET_235 2016-09-30 15:05:00 235 11678.0 10.22 10.420 10.400 10.520   53.410 48.640 1.167 0.146 8.260 8.760 8.590 9.530 0.277 0.188 0.232 0.239     218.400 0.00 1 1 10.280 10.490 10.470   10.550 2.736 1.433 1.6390 10.180 10.370 10.360   10.480 -0.056 -0.952 0.8860 66.18 37.05 20 0                             12.461 6.646 5.806 12.713 6.173 6.529
UPLMET_235 2016-09-30 15:00:00 235 11678.0 10.38 10.540 10.510 10.670   52.300 47.180 0.998 -0.142 8.260 8.770 8.590 9.520 0.277 0.188 0.232 0.239     218.500 0.00 1 1 10.500 10.650 10.620   10.770 2.629 1.839 2.1030 10.280 10.430 10.380   10.480 -0.820 -1.367 0.7470 208.60 70.70 20 0                             12.595 6.566 6.008 12.841 6.045 6.783
UPLMET_235 2016-09-30 14:55:00 235 11678.0 10.67 10.700 10.660 10.830   50.160 45.640 0.688 -0.444 8.260 8.770 8.590 9.520 0.277 0.188 0.232 0.239     218.500 0.00 1 1 10.920 10.860 10.790   11.080 2.348 0.323 3.3500 10.510 10.610 10.600   10.730 -1.037 -1.339 0.8210 260.50 61.77 20 0                             12.841 6.420 6.400 12.979 5.913 7.055
UPLMET_235 2016-09-30 14:50:00 235 11678.0 11.12 11.090 11.020 11.240   48.330 44.760 0.572 -0.349 8.260 8.770 8.590 9.520 0.277 0.188 0.232 0.239     218.500 0.00 1 1 11.180 11.270 11.220   11.380 2.388 1.038 2.2450 10.990 10.940 10.870   11.150 -1.713 -2.033 0.8190 221.10 58.46 20 0                             13.231 6.367 6.837 13.337 5.954 7.367
UPLMET_235 2016-09-30 14:45:00 235 11678.0 11.26 11.390 11.300 11.390   49.100 47.020 0.958 0.479 8.250 8.770 8.590 9.520 0.277 0.188 0.232 0.239     218.500 0.00 1 1 11.300 11.440 11.350   11.470 2.309 1.793 1.5680 11.220 11.290 11.240   11.300 0.216 -0.380 0.8030 99.20 54.97 20 0                             13.355 6.547 6.798 13.470 6.324 7.137
UPLMET_235 2016-09-30 14:40:00 235 11678.0 11.44 11.530 11.440 11.510   51.680 49.420 1.843 1.277 8.250 8.780 8.590 9.520 0.277 0.188 0.232 0.239     218.500 0.00 1 1 11.510 11.660 11.580   11.650 2.901 2.271 2.8690 11.300 11.370 11.290   11.310 1.349 -1.169 1.2740 113.80 48.77 20 0                             13.515 6.977 6.530 13.578 6.699 6.868
UPLMET_235 2016-09-30 14:35:00 235 11678.0 11.65 11.700 11.630 11.630   51.830 49.960 2.058 1.540 8.250 8.780 8.590 9.520 0.277 0.188 0.232 0.239     218.500 0.00 1 1 11.720 11.790 11.700   11.670 4.382 2.878 1.6480 11.520 11.620 11.570   11.570 0.687 0.438 0.3960 163.30 69.04 20 0                             13.704 7.085 6.601 13.686 6.827 6.848
UPLMET_235 2016-09-30 14:30:00 235 11678.0 11.73 11.790 11.700 11.750   50.930 48.950 1.788 1.229 8.250 8.780 8.590 9.520 0.277 0.188 0.232 0.239     218.500 0.00 1 1 11.850 11.910 11.840   11.900 4.676 4.087 4.7750 11.630 11.640 11.570   11.590 -1.529 -2.139 1.3500 318.90 84.10 20 0                             13.777 6.950 6.760 13.795 6.676 7.042
UPLMET_235 2016-09-30 14:25:00 235 11678.0 12.05 12.150 12.060 12.080   59.820 58.350 4.489 4.165 8.250 8.780 8.590 9.520 0.277 0.188 0.232 0.239     218.500 0.00 1 1 12.170 12.490 12.420   12.220 5.464 4.916 1.9150 11.880 11.900 11.820   11.920 3.745 3.503 0.7110 315.30 79.21 20 0                             14.071 8.416 5.654 14.099 8.227 5.872
UPLMET_235 2016-09-30 14:20:00 235 11678.0 11.95 12.030 11.970 11.890   63.190 61.950 5.170 4.833 8.250 8.790 8.590 9.520 0.277 0.188 0.232 0.239     218.500 0.00 1 1 12.050 12.440 12.380   12.110 6.614 6.153 1.8000 11.880 11.880 11.820   11.810 4.461 4.282 0.8410 101.30 92.30 20 0                             13.978 8.827 5.145 13.923 8.621 5.298
UPLMET_235 2016-09-30 14:15:00 235 11678.0 11.94 12.100 12.020 11.940   63.570 62.200 5.257 4.933 8.250 8.790 8.590 9.520 0.277 0.188 0.232 0.239     218.500 0.00 1 1 12.030 12.220 12.150   12.030 6.021 5.698 1.5320 11.810 11.960 11.890   11.790 4.671 4.307 0.6240 57.30 41.79 20 0                             13.969 8.880 5.089 13.969 8.682 5.280
UPLMET_235 2016-09-30 14:10:00 235 11678.0 11.60 11.690 11.610 11.660   66.430 64.790 5.562 5.263 8.260 8.790 8.590 9.520 0.277 0.188 0.232 0.239     218.600 0.00 1 1 11.780 11.990 11.860   11.760 6.665 5.897 1.8000 11.500 11.560 11.470   11.580 5.052 4.737 0.9150 65.69 32.09 20 0                             13.659 9.071 4.585 13.713 8.884 4.828
UPLMET_235 2016-09-30 14:05:00 235 11678.0 11.79 11.900 11.820 11.940   65.830 63.700 5.618 5.289 8.260 8.790 8.600 9.520 0.277 0.188 0.232 0.239     218.500 0.00 1 1 11.880 11.960 11.890   12.010 6.373 5.828 1.4340 11.700 11.670 11.590   11.820 4.843 4.587 0.2550 146.50 73.49 20 0                             13.831 9.106 4.726 13.969 8.900 5.071
UPLMET_235 2016-09-30 14:00:00 235 11678.0 11.96 11.990 11.860 11.920   66.310 64.370 5.883 5.416 8.260 8.800 8.600 9.520 0.277 0.188 0.232 0.239     218.600 0.00 1 1 12.040 12.040 11.910   11.970 6.377 6.052 1.3270 11.900 11.920 11.810   11.860 5.285 5.072 0.6510 211.70 29.79 20 0                             13.988 9.275 4.712 13.951 8.979 4.971
UPLMET_235 2016-09-30 13:55:00 235 11678.0 12.23 12.260 12.120 12.060   65.150 64.340 5.876 5.539 8.260 8.800 8.600 9.520 0.277 0.188 0.232 0.239     218.600 0.00 1 1 12.360 12.530 12.360   12.180 7.434 6.747 2.3880 12.070 11.950 11.840   11.940 5.007 4.846 1.2030 41.99 70.17 20 0                             14.239 9.271 4.962 14.080 9.056 5.021
UPLMET_235 2016-09-30 13:50:00 235 11678.0 12.07 12.180 12.240 12.030   66.960 66.160 6.133 5.917 8.260 8.800 8.600 9.520 0.277 0.188 0.232 0.239     218.600 0.00 1 1 12.170 12.280 12.320   12.080 6.632 6.356 1.8000 11.960 12.020 12.070   12.000 5.772 5.324 0.8190 122.10 81.80 20 0                             14.089 9.437 4.655 14.052 9.297 4.755
UPLMET_235 2016-09-30 13:45:00 235 11678.0 12.24 12.170 12.490 12.220   65.350 64.220 5.939 5.670 8.260 8.810 8.600 9.520 0.277 0.188 0.232 0.239     218.600 0.00 1 1 12.480 12.450 12.730   12.530 6.425 5.987 1.8170 11.960 11.910 12.240   11.950 5.592 5.378 0.7210 109.00 75.04 20 0                             14.248 9.311 4.937 14.229 9.139 5.091
UPLMET_235 2016-09-30 13:40:00 235 11678.0 12.74 12.490 12.540 12.440   63.810 63.540 6.064 5.728 8.270 8.810 8.600 9.520 0.277 0.189 0.232 0.239     218.600 0.00 1 1 13.120 12.860 12.760   12.650 6.672 6.103 1.5770 12.480 12.350 12.390   12.330 5.638 5.455 0.9860 138.60 61.71 20 0                             14.724 9.392 5.328 14.437 9.176 5.264
UPLMET_235 2016-09-30 13:35:00 235 11678.0 13.31 13.170 13.130 12.830   60.430 61.130 5.814 5.529 8.270 8.810 8.600 9.520 0.277 0.189 0.232 0.239     218.600 0.00 1 1 13.420 13.480 13.350   12.960 7.279 6.114 2.4410 13.150 12.870 12.880   12.650 5.007 4.972 1.3470 45.83 56.59 20 0                             15.283 9.231 6.047 14.811 9.050 5.757
UPLMET_235 2016-09-30 13:30:00 235 11678.0 13.43 13.320 13.110 12.900   62.120 62.840 6.332 6.003 8.270 8.820 8.600 9.530 0.277 0.189 0.232 0.239     218.600 0.00 1 1 13.540 13.470 13.240   12.970 6.982 6.498 1.9330 13.280 13.000 12.900   12.790 5.929 5.771 1.0050 327.00 77.00 20 0                             15.403 9.568 5.835 14.879 9.352 5.529
UPLMET_235 2016-09-30 13:25:00 235 11678.0 13.70 13.280 13.120 12.960   57.830 59.610 5.536 5.284 8.280 8.820 8.600 9.530 0.277 0.189 0.232 0.239     218.600 0.00 1 1 14.190 13.700 13.350   13.090 6.565 5.993 3.1890 13.380 12.990 12.870   12.830 4.090 3.952 1.4820 23.86 71.77 20 0                             15.676 9.054 6.611 14.937 8.897 6.033
UPLMET_235 2016-09-30 13:20:00 235 11678.0 14.22 14.240 13.940 13.440   58.440 59.420 6.191 5.701 8.280 8.820 8.600 9.530 0.277 0.189 0.232 0.239     218.800 0.00 1 1 14.390 14.520 14.210   13.530 7.277 6.514 2.1830 13.980 13.900 13.550   13.210 5.609 5.277 0.9850 83.90 45.20 20 0                             16.214 9.475 6.739 15.413 9.159 6.255
UPLMET_235 2016-09-30 13:15:00 235 11678.0 13.77 13.780 13.620 13.210   58.140 59.740 5.684 5.553 8.280 8.820 8.600 9.530 0.277 0.189 0.232 0.239     218.800 0.00 1 1 13.920 14.140 13.970   13.420 7.293 6.782 2.1380 13.670 13.590 13.380   12.950 4.764 4.651 0.5000 355.20 52.85 20 0                             15.748 9.148 6.592 15.183 9.065 6.113
UPLMET_235 2016-09-30 13:10:00 235 11678.0 13.86 13.700 13.350 12.960   58.890 61.550 5.947 5.746 8.290 8.830 8.600 9.530 0.277 0.189 0.232 0.239     218.800 0.00 1 1 13.920 13.780 13.460   13.040 7.068 6.534 1.8890 13.730 13.620 13.220   12.900 4.674 4.566 1.0870 98.40 45.45 20 0                             15.840 9.316 6.512 14.937 9.187 5.743
UPLMET_235 2016-09-30 13:05:00 235 11678.0 13.66 13.480 13.140 12.900   62.200 63.940 6.565 6.248 8.290 8.830 8.600 9.530 0.277 0.189 0.232 0.239     218.800 0.00 1 1 13.720 13.630 13.240   12.940 7.334 7.077 2.2180 13.580 13.350 13.050   12.850 5.430 5.370 1.2090 60.01 14.30 20 0                             15.635 9.723 5.910 14.879 9.512 5.365
UPLMET_235 2016-09-30 13:00:00 235 11678.0 13.75 13.400 13.070 12.880   60.530 63.450 6.248 6.113 8.300 8.830 8.600 9.530 0.277 0.189 0.232 0.239     218.800 0.00 1 1 13.840 13.620 13.250   12.980 7.395 6.787 2.4050 13.690 13.250 12.970   12.820 5.296 4.937 1.1730 82.30 30.98 20 0                             15.727 9.512 6.208 14.859 9.424 5.431
UPLMET_235 2016-09-30 12:55:00 235 11678.0 13.98 13.320 13.010 12.880 16.430 59.830 62.400 6.297 5.870 8.300 8.840 8.600 9.530 0.277 0.189 0.232 0.239     218.800 0.00 1 1 14.470 13.730 13.360 18.450 13.210 7.404 6.832 2.3970 13.680 13.080 12.840 15.380 12.720 5.407 5.198 1.6430 87.80 21.20 20 0                             15.964 9.545 6.413 14.859 9.267 5.587
UPLMET_235 2016-09-30 12:50:00 235 11678.0 14.22 14.070 13.710 13.340 18.000 61.090 62.140 6.827 6.251 8.300 8.840 8.600 9.530 0.277 0.189 0.232 0.239     218.800 0.00 1 1 14.550 14.280 13.830 43.350 13.440 7.702 6.963 2.0760 13.810 13.730 13.510 15.120 13.120 6.223 5.486 1.0900 55.05 19.28 20 0                             16.214 9.900 6.309 15.313 9.514 5.797
UPLMET_235 2016-09-30 12:45:00 235 11678.0 13.86 13.650 13.510 13.230 14.610 58.680 59.720 5.908 5.572 8.310 8.840 8.600 9.530 0.277 0.189 0.232 0.239     218.700 0.00 1 1 14.150 14.000 13.920 17.440 13.480 7.211 6.619 3.3410 13.620 13.260 13.150 13.000 13.070 4.933 4.669 1.0820 81.70 63.45 20 0                             15.840 9.291 6.545 15.203 9.077 6.124
UPLMET_235 2016-09-30 12:40:00 235 11678.0 14.01 13.940 13.790 13.460   56.550 57.560 5.518 5.254 8.310 8.850 8.600 9.530 0.277 0.189 0.232 0.239     218.500 0.00 1 1 14.100 14.050 14.020   13.580 6.572 6.401 1.5500 13.860 13.810 13.610   13.260 4.631 4.473 0.6530 59.98 89.40 20 0                             15.995 9.043 6.950 15.433 8.879 6.550
UPLMET_235 2016-09-30 12:35:00 235 11678.0 13.58 13.390 13.130 12.920   58.550 59.460 5.613 5.222 8.320 8.850 8.600 9.530 0.277 0.189 0.232 0.239     218.500 0.00 1 1 13.800 13.780 13.500   13.150 6.564 6.066 4.3030 13.500 13.250 13.000   12.850 4.859 4.691 1.5930 67.71 80.90 20 0                             15.554 9.103 6.447 14.898 8.859 6.040
UPLMET_235 2016-09-30 12:30:00 235 11678.0 13.58 13.360 13.070 12.890   58.910 59.640 5.696 5.229 8.320 8.850 8.600 9.530 0.277 0.189 0.232 0.239     218.600 0.00 1 1 13.740 13.580 13.250   13.000 6.752 6.234 2.5570 13.450 13.170 12.900   12.800 4.328 4.283 1.2990 109.60 32.99 20 0                             15.554 9.156 6.391 14.869 8.863 6.001
UPLMET_235 2016-09-30 12:25:00 235 11678.0 13.78 13.490 13.200 13.120   55.210 56.890 4.951 4.762 8.330 8.860 8.600 9.530 0.277 0.189 0.232 0.239     218.500 0.00 1 1 14.070 13.980 13.690   13.300 6.473 6.093 3.0110 13.520 13.180 12.880   12.880 3.757 3.597 1.7820 61.03 29.05 20 0                             15.758 8.693 7.058 15.094 8.579 6.507
UPLMET_235 2016-09-30 12:20:00 235 11678.0 13.65 13.510 13.220 12.980   57.170 58.590 5.329 5.055 8.330 8.860 8.600 9.530 0.277 0.189 0.232 0.239     218.500 0.00 1 1 14.020 14.110 13.760   13.300 6.389 6.149 2.1380 13.450 13.130 12.870   12.790 4.116 3.995 0.9520 96.60 36.55 20 0                             15.625 8.925 6.692 14.957 8.756 6.194
UPLMET_235 2016-09-30 12:15:00 235 11678.0 13.55 13.370 13.120 12.940   55.750 56.000 4.872 4.371 8.340 8.860 8.600 9.530 0.277 0.189 0.232 0.239     218.500 0.00 1 1 13.620 13.490 13.270   13.040 7.196 6.086 2.4140 13.460 13.140 12.870   12.800 3.547 3.531 1.5950 71.22 34.77 20 0                             15.524 8.645 6.869 14.918 8.347 6.564
UPLMET_235 2016-09-30 12:10:00 235 11678.0 13.42 13.370 13.050 12.730   59.590 59.780 5.711 5.118 8.350 8.860 8.600 9.530 0.278 0.189 0.232 0.239     218.500 0.00 1 1 13.710 13.660 13.360   12.990 6.441 5.988 2.0310 13.130 12.960 12.620   12.530 3.724 3.902 0.8160 151.90 63.05 20 0                             15.393 9.165 6.220 14.714 8.795 5.918
UPLMET_235 2016-09-30 12:05:00 235 11678.0 13.01 12.960 12.730 12.540   60.360 60.070 5.510 4.998 8.350 8.870 8.600 9.530 0.278 0.189 0.232 0.239     218.500 0.00 1 1 13.120 13.070 12.860   12.600 6.536 6.183 2.1830 12.810 12.840 12.640   12.460 4.212 3.778 1.5880 100.10 26.01 20 0                             14.986 9.038 5.941 14.532 8.721 5.803
UPLMET_235 2016-09-30 12:00:00 235 11678.0 12.80 12.620 12.350 12.320   62.610 63.410 5.821 5.550 8.360 8.870 8.600 9.530 0.278 0.189 0.232 0.239     218.500 0.00 1 1 13.010 12.880 12.650   12.460 7.840 7.645 3.2160 12.640 12.440 12.160   12.190 4.353 4.207 1.4470 109.00 39.82 20 0                             14.782 9.235 5.527 14.323 9.063 5.241
UPLMET_235 2016-09-30 11:55:00 235 11678.0 13.03 12.820 12.510 12.410   65.280 66.530 6.656 6.347 8.360 8.870 8.600 9.530 0.278 0.189 0.232 0.239     218.500 0.00 1 1 13.120 12.970 12.660   12.490 7.884 7.447 1.9330 12.940 12.660 12.360   12.280 5.192 4.743 1.1880 78.72 29.86 20 0                             15.006 9.784 5.210 14.408 9.578 4.822
UPLMET_235 2016-09-30 11:50:00 235 11678.0 13.12 12.860 12.470 12.330   66.600 68.740 7.049 6.764 8.370 8.880 8.600 9.530 0.278 0.189 0.232 0.239     218.500 0.00 1 1 13.200 13.060 12.620   12.410 7.724 7.098 1.7190 13.030 12.660 12.340   12.250 6.625 6.417 1.2510 100.30 25.28 20 0                             15.094 10.052 5.042 14.333 9.857 4.480
UPLMET_235 2016-09-30 11:45:00 235 11678.0 12.79 12.580 12.250 12.180   67.200 68.780 6.865 6.620 8.380 8.880 8.600 9.530 0.278 0.189 0.232 0.239     218.500 0.00 1 1 13.050 12.970 12.590   12.400 7.780 7.543 2.4230 12.610 12.290 11.990   12.030 6.337 6.035 1.2790 117.00 63.73 20 0                             14.772 9.925 4.845 14.192 9.760 4.431
UPLMET_235 2016-09-30 11:40:00 235 11678.0 12.97 12.800 12.420 12.320   68.380 69.950 7.292 7.002 8.380 8.880 8.600 9.530 0.278 0.189 0.232 0.239     218.500 0.00 1 1 13.080 13.010 12.600   12.420 8.020 7.585 2.5030 12.820 12.610 12.260   12.210 6.663 6.494 1.4620 63.63 12.26 20 0                             14.947 10.221 4.726 14.323 10.019 4.304
UPLMET_235 2016-09-30 11:35:00 235 11678.0 12.85 12.710 12.340 12.220   70.540 71.730 7.638 7.269 8.390 8.890 8.600 9.530 0.278 0.189 0.232 0.239     218.600 0.00 1 1 13.000 12.860 12.470   12.340 8.320 7.825 1.9690 12.770 12.540 12.200   12.130 7.106 6.760 1.4340 90.80 16.90 20 0                             14.830 10.465 4.369 14.229 10.205 4.023
UPLMET_235 2016-09-30 11:30:00 235 11678.0 12.88 12.700 12.390 12.320   67.830 69.130 7.085 6.836 8.400 8.890 8.600 9.530 0.278 0.189 0.232 0.239     218.500 0.00 1 1 12.920 12.780 12.480   12.400 7.936 7.466 1.4080 12.830 12.580 12.300   12.260 6.514 6.420 0.9320 74.20 15.37 20 0                             14.859 10.077 4.780 14.323 9.906 4.422
UPLMET_235 2016-09-30 11:25:00 235 11678.0 12.82 12.740 12.410 12.280   66.610 67.720 6.768 6.491 8.400 8.890 8.600 9.530 0.278 0.189 0.232 0.239     218.400 0.00 1 1 12.930 12.980 12.640   12.390 7.666 7.339 1.6750 12.730 12.580 12.280   12.180 6.135 6.027 1.0340 91.10 11.61 20 0                             14.801 9.860 4.942 14.286 9.673 4.611
UPLMET_235 2016-09-30 11:20:00 235 11678.0 12.72 12.750 12.460 12.270   68.620 69.710 7.104 6.901 8.410 8.900 8.600 9.530 0.278 0.189 0.232 0.239     218.500 0.00 1 1 12.910 13.060 12.710   12.430 8.280 7.816 2.0220 12.530 12.560 12.280   12.100 6.531 6.377 1.0560 81.70 36.98 20 0                             14.704 10.090 4.614 14.276 9.950 4.324
UPLMET_235 2016-09-30 11:15:00 235 11678.0 12.38 12.210 11.920 11.850 11.150 69.100 70.550 6.885 6.677 8.420 8.900 8.600 9.530 0.278 0.189 0.232 0.239     218.500 0.00 1 1 12.480 12.450 12.190 11.680 12.010 7.193 7.309 1.7190 12.240 11.950 11.660 10.780 11.670 6.448 6.253 1.1300 92.30 31.79 20 0                             14.380 9.939 4.443 13.886 9.798 4.090
UPLMET_235 2016-09-30 11:10:00 235 11678.0 12.45 12.210 11.860 11.760 10.910 68.490 70.600 6.813 6.602 8.420 8.900 8.600 9.530 0.278 0.189 0.232 0.239     218.500 0.00 1 1 12.640 12.470 12.140 11.220 12.020 7.851 7.320 2.0670 12.280 11.950 11.640 10.710 11.630 6.236 6.082 1.1490 104.30 33.51 20 0                             14.446 9.890 4.552 13.804 9.747 4.058
UPLMET_235 2016-09-30 11:05:00 235 11678.0 12.71 12.460 12.170 12.090 11.180 68.080 68.570 6.978 6.492 8.430 8.910 8.600 9.530 0.278 0.189 0.232 0.239     218.500 0.00 1 1 12.840 12.610 12.310 11.570 12.220 7.902 7.343 2.2360 12.660 12.350 12.040 10.850 12.000 5.896 5.767 1.4730 111.70 26.64 20 0                             14.695 10.003 4.691 14.108 9.674 4.434
UPLMET_235 2016-09-30 11:00:00 235 11678.0 12.79 12.830 12.570 12.490 11.550 68.580 68.920 7.160 6.951 8.440 8.910 8.600 9.530 0.278 0.189 0.232 0.239     218.400 0.00 1 1 12.900 13.010 12.760 11.760 12.580 7.971 7.577 2.1650 12.530 12.620 12.290 11.110 12.300 6.151 5.997 0.9350 102.50 31.43 20 0                             14.772 10.129 4.641 14.484 9.984 4.502
UPLMET_235 2016-09-30 10:55:00 235 11678.0 12.17 12.300 12.230 12.180 11.220 68.430 67.780 6.538 6.406 8.450 8.910 8.600 9.530 0.278 0.189 0.232 0.239     218.400 0.00 1 1 12.470 12.650 12.470 11.730 12.340 7.374 7.227 1.7640 12.010 12.030 11.940 10.700 12.040 5.629 5.487 0.8770 105.40 26.48 20 0                             14.182 9.705 4.477 14.192 9.617 4.573
UPLMET_235 2016-09-30 10:50:00 235 11678.0 12.19 12.150 12.010 12.250 11.020 66.680 65.500 6.183 5.971 8.460 8.920 8.600 9.530 0.278 0.189 0.232 0.239     218.400 0.00 1 1 12.500 12.550 12.420 11.200 12.720 7.248 6.686 2.2810 12.050 11.940 11.780 10.770 12.060 5.602 5.363 1.0160 87.90 30.32 20 0                             14.201 9.470 4.732 14.257 9.332 4.919
UPLMET_235 2016-09-30 10:45:00 235 11678.0 12.57 12.750 12.690 12.740 11.420 66.210 65.020 6.441 6.346 8.460 8.920 8.600 9.530 0.278 0.189 0.232 0.239     218.500 0.00 1 1 12.610 12.810 12.760 11.650 12.860 7.252 7.056 1.6750 12.510 12.670 12.550 11.170 12.570 5.940 5.819 0.5020 113.30 60.33 20 0                             14.560 9.640 4.920 14.724 9.577 5.150
UPLMET_235 2016-09-30 10:40:00 235 11678.0 12.75 12.630 12.360 12.350 10.880 64.120 65.250 6.147 6.020 8.470 8.920 8.600 9.530 0.278 0.189 0.232 0.239     218.400 0.00 1 1 13.020 12.730 12.590 11.590 12.560 7.335 7.116 1.3360 12.590 12.540 12.230 10.640 12.190 5.674 5.593 0.5740 99.50 32.21 20 0                             14.733 9.446 5.286 14.351 9.364 4.987
UPLMET_235 2016-09-30 10:35:00 235 11678.0 13.05 12.910 12.590 12.480 11.460 65.260 66.880 6.693 6.507 8.480 8.930 8.600 9.530 0.278 0.189 0.232 0.239     218.600 0.00 1 1 13.130 13.050 12.750 11.770 12.590 7.457 7.281 1.2030 12.940 12.780 12.440 11.110 12.370 6.079 5.997 0.5160 58.60 28.00 20 0                             15.025 9.809 5.220 14.475 9.684 4.794
UPLMET_235 2016-09-30 10:30:00 235 11678.0 12.75 12.530 12.170 12.040 10.790 64.830 66.730 6.309 6.048 8.490 8.930 8.600 9.530 0.278 0.189 0.232 0.239     218.700 0.00 1 1 12.900 12.750 12.440 11.150 12.300 7.317 6.736 1.4610 12.560 12.450 12.060 10.580 11.950 5.667 5.584 0.5390 67.54 27.73 20 0                             14.733 9.552 5.182 14.062 9.382 4.678
UPLMET_235 2016-09-30 10:25:00 235 11678.0 12.36 12.160 11.830 11.700 10.650 66.510 68.680 6.311 6.144 8.490 8.930 8.600 9.530 0.278 0.189 0.232 0.239     218.700 0.00 1 1 12.480 12.420 12.050 10.900 11.920 7.424 6.663 1.5500 12.280 11.980 11.660 10.470 11.540 5.888 5.755 0.3760 72.70 36.39 20 0                             14.361 9.554 4.809 13.749 9.444 4.306
UPLMET_235 2016-09-30 10:20:00 235 11678.0 12.36 12.050 11.650 11.660 10.510 67.070 68.470 6.423 6.062 8.500 8.940 8.600 9.530 0.278 0.189 0.232 0.239     218.600 0.00 1 1 12.490 12.210 11.780 10.850 11.810 7.642 6.655 1.2830 12.240 11.930 11.520 10.280 11.540 5.792 5.681 0.8420 63.45 36.21 20 0                             14.361 9.628 4.729 13.713 9.391 4.324
UPLMET_235 2016-09-30 10:15:00 235 11678.0 12.41 12.200 11.930 11.800 10.460 67.360 69.040 6.531 6.316 8.510 8.940 8.600 9.530 0.278 0.189 0.232 0.239     218.600 0.00 1 1 12.500 12.410 12.160 10.810 11.890 7.334 7.310 1.3720 12.240 12.040 11.760 10.200 11.640 5.851 5.644 0.5360 65.36 29.17 20 0                             14.408 9.700 4.703 13.841 9.557 4.285
UPLMET_235 2016-09-30 10:10:00 235 11678.0 11.91 11.750 11.610 11.500 10.280 72.210 72.090 7.070 6.652 8.520 8.940 8.600 9.530 0.278 0.189 0.232 0.239     218.600 0.00 1 1 12.180 12.030 11.810 10.750 11.620 7.847 7.332 0.7570 11.740 11.590 11.490 10.030 11.420 6.507 6.239 0.3630 85.40 32.86 20 0                             13.941 10.066 3.874 13.569 9.781 3.787
UPLMET_235 2016-09-30 10:05:00 235 11678.0 11.65 11.500 11.420 11.320 10.440 71.970 72.380 6.770 6.539 8.530 8.940 8.600 9.530 0.278 0.189 0.232 0.239     218.600 0.00 1 1 11.720 11.660 11.570 10.950 11.420 7.463 7.159 1.0070 11.490 11.240 11.260 10.150 11.090 6.421 6.092 0.2920 7.09 70.24 20 0                             13.704 9.861 3.841 13.408 9.705 3.703
UPLMET_235 2016-09-30 10:00:00 235 11678.0 11.91 11.400 11.230 11.140 9.780 70.430 72.100 6.713 6.313 8.540 8.950 8.600 9.530 0.278 0.189 0.232 0.239     218.600 0.00 1 1 12.220 11.850 11.620 10.200 11.520 7.612 6.960 0.8820 11.560 11.130 11.030 9.590 10.930 6.286 5.977 0.4470 142.30 67.86 20 0                             13.941 9.822 4.123 13.249 9.555 3.696
UPLMET_235 2016-09-30 09:55:00 235 11678.0 12.28 12.160 11.860 11.610 10.110 70.150 71.450 7.003 6.630 8.540 8.950 8.600 9.530 0.278 0.189 0.232 0.239     218.600 0.00 1 1 12.420 12.340 12.020 10.660 11.680 8.010 7.227 1.3540 12.020 11.950 11.690 9.800 11.520 6.396 6.177 0.4710 119.80 69.47 20 0                             14.286 10.020 4.264 13.668 9.766 3.902
UPLMET_235 2016-09-30 09:50:00 235 11678.0 11.86 11.930 11.670 11.540 10.420 71.980 71.770 6.974 6.628 8.550 8.950 8.600 9.530 0.278 0.189 0.232 0.239     218.600 0.00 1 1 11.990 12.070 11.780 10.840 11.590 7.793 7.271 1.2560 11.700 11.760 11.570 10.020 11.470 6.315 6.083 0.5500 310.60 33.82 20 0                             13.896 10.000 3.894 13.605 9.765 3.841
UPLMET_235 2016-09-30 09:45:00 235 11678.0 11.74 11.810 11.770 11.490 10.200 69.790 70.080 6.417 6.234 8.560 8.960 8.600 9.530 0.278 0.189 0.232 0.239     218.700 0.00 1 1 11.900 11.950 11.920 10.490 11.630 6.979 6.834 1.2560 11.490 11.480 11.400 9.980 11.150 5.901 5.780 0.4410 348.30 59.72 20 0                             13.786 9.624 4.165 13.560 9.503 4.057
UPLMET_235 2016-09-30 09:40:00 235 11678.0 11.14 10.870 10.730 10.670 9.760 69.780 70.340 5.830 5.500 8.570 8.960 8.600 9.530 0.278 0.189 0.232 0.239     218.600 0.00 1 1 11.430 11.340 11.250 10.220 11.060 6.816 6.354 0.6680 10.900 10.510 10.300 9.520 10.370 5.179 4.816 0.1960 145.40 43.72 20 0                             13.249 9.241 4.004 12.841 9.032 3.809
UPLMET_235 2016-09-30 09:35:00 235 11678.0 11.11 10.640 10.360 10.500 9.340 69.250 70.320 5.696 5.335 8.580 8.960 8.600 9.530 0.278 0.189 0.232 0.239     218.600 0.00 1 1 11.670 11.310 10.990 9.670 10.890 6.274 5.893 0.9710 10.820 10.290 10.040 9.040 10.290 5.160 4.627 0.4810 341.70 60.00 20 0                             13.222 9.156 4.066 12.696 8.929 3.768
UPLMET_235 2016-09-30 09:30:00 235 11678.0 11.70 11.460 11.230 10.970 9.730 68.740 69.280 6.146 5.572 8.580 8.960 8.600 9.530 0.278 0.189 0.232 0.238     218.700 0.00 1 1 11.860 11.560 11.340 9.960 11.100 6.964 6.162 0.9800 11.460 11.160 11.010 9.440 10.760 5.485 5.072 0.4610 87.50 21.18 20 0                             13.749 9.445 4.298 13.100 9.077 4.024
UPLMET_235 2016-09-30 09:25:00 235 11678.0 11.21 11.060 10.900 10.820 9.650 69.890 69.620 5.924 5.497 8.590 8.970 8.600 9.530 0.278 0.189 0.232 0.238     218.600 0.00 1 1 11.430 11.270 11.050 9.950 10.860 6.814 6.327 1.1940 11.050 10.920 10.750 9.450 10.780 5.188 4.759 0.6050 59.75 57.15 20 0                             13.310 9.301 4.008 12.970 9.030 3.940
UPLMET_235 2016-09-30 09:20:00 235 11678.0 10.83 10.860 10.920 10.720 9.810 71.800 70.720 5.943 5.615 8.600 8.970 8.600 9.530 0.278 0.189 0.232 0.238     218.600 0.00 1 1 11.020 11.070 11.110 10.120 10.900 6.756 6.575 1.3450 10.580 10.480 10.620 9.470 10.430 5.062 4.748 0.5190 353.60 52.67 20 0                             12.979 9.314 3.660 12.884 9.104 3.772
UPLMET_235 2016-09-30 09:15:00 235 11678.0 10.58 10.480 10.500 10.410 9.490 72.620 71.710 5.871 5.528 8.610 8.970 8.600 9.530 0.278 0.189 0.232 0.238     218.600 0.00 1 1 10.650 10.660 10.740 10.060 10.560 6.430 6.261 2.1380 10.540 10.250 10.240 9.080 10.290 5.034 4.959 1.1400 38.18 49.21 20 0                             12.764 9.267 3.495 12.620 9.049 3.570
UPLMET_235 2016-09-30 09:10:00 235 11678.0 10.59 10.400 10.360 10.340 9.350 72.460 71.910 5.851 5.505 8.620 8.970 8.600 9.530 0.278 0.189 0.232 0.238     218.700 0.00 1 1 10.690 10.620 10.590 9.810 10.470 6.600 5.929 1.9960 10.490 10.180 10.080 8.770 10.240 5.234 5.022 1.1870 37.98 49.76 20 0                             12.773 9.255 3.518 12.561 9.035 3.528
UPLMET_235 2016-09-30 09:05:00 235 11678.0 10.77 10.320 10.150 10.320 8.970 78.780 77.050 7.234 6.473 8.630 8.980 8.600 9.530 0.278 0.189 0.232 0.238     218.600 0.00 1 1 10.930 10.450 10.300 9.170 10.520 7.899 7.246 1.9780 10.690 10.160 9.990 8.810 10.180 5.766 5.728 1.0440 71.23 42.40 20 0                             12.927 10.180 2.743 12.545 9.661 2.879
UPLMET_235 2016-09-30 09:00:00 235 11678.0 11.26 11.020 10.810 10.750 9.390 71.370 71.140 6.277 5.744 8.630 8.980 8.600 9.530 0.278 0.189 0.232 0.238     218.600 0.00 1 1 11.390 11.230 10.980 9.670 10.920 6.865 6.229 2.1560 11.070 10.420 10.300 8.860 10.610 5.604 5.247 1.1070 77.62 24.66 20 0                             13.355 9.531 3.823 12.910 9.186 3.726
UPLMET_235 2016-09-30 08:55:00 235 11678.0 11.12 10.800 10.640 10.570 9.060 71.850 71.840 6.234 5.700 8.640 8.980 8.600 9.530 0.278 0.189 0.232 0.238     218.700 0.00 1 1 11.170 10.930 10.730 9.190 10.620 7.197 6.870 1.8620 11.070 10.730 10.560 8.920 10.520 5.589 5.068 0.7480 60.35 27.88 20 0                             13.231 9.503 3.725 12.756 9.158 3.592
UPLMET_235 2016-09-30 08:50:00 235 11678.0 11.21 11.690 10.940 10.720 9.070 71.970 70.180 6.351 5.518 8.650 8.990 8.600 9.530 0.278 0.189 0.232 0.238     218.600 0.00 1 1 11.270   11.160 9.230 10.870 7.112 5.868 1.8800 11.130   10.660 8.790 10.550 5.784 5.252 1.0960 82.00 11.88 20 0                             13.310 9.580 3.731 12.884 9.043 3.842
UPLMET_235 2016-09-30 08:45:00 235 11678.0 11.02 12.580 10.850 10.660 9.200 73.000 71.670 6.363 5.753 8.660 8.990 8.600 9.530 0.278 0.189 0.232 0.238     218.500 0.00 1 1 11.090   11.080 9.710 10.760 7.172 6.903 1.6210 10.950   10.650 8.910 10.600 5.417 4.927 0.6000 51.04 41.85 20 0                             13.144 9.588 3.549 12.832 9.192 3.635
UPLMET_235 2016-09-30 08:40:00 235 11678.0 11.01 13.470 10.840 10.670 9.130 72.080 71.160 6.175 5.670 8.660 8.990 8.600 9.530 0.278 0.189 0.232 0.238     218.600 0.00 1 1 11.270 14.320 11.180 9.680 10.790 6.921 6.646 1.3990 10.850 12.920 10.620 8.680 10.580 5.528 5.202 0.8280 22.20 52.44 20 0                             13.135 9.464 3.667 12.841 9.139 3.703
UPLMET_235 2016-09-30 08:35:00 235 11678.0 11.01 12.230 10.930 10.550 9.010 71.150 70.450 5.981 5.407 8.670 8.990 8.600 9.530 0.278 0.189 0.232 0.238     218.500 0.00 1 1 11.250 12.730 11.210 9.280 10.760 7.356 5.839 0.8640 10.770 11.760 10.610 8.650 10.350 5.337 5.108 0.6000 90.60 10.03 20 0                             13.135 9.338 3.789 12.739 8.974 3.764
UPLMET_235 2016-09-30 08:30:00 235 11678.0 10.53 12.230 10.500 10.200 8.820 73.340 72.600 5.964 5.503 8.680 8.990 8.600 9.530 0.278 0.189 0.232 0.238     218.600 0.00 1 1 10.770 12.800 10.670 8.970 10.380 6.536 6.102 1.3990 10.230 10.990 10.220 8.660 9.960 5.548 5.227 0.6960 70.54 20.14 20 0                             12.722 9.327 3.392 12.444 9.034 3.410
UPLMET_235 2016-09-30 08:25:00 235 11678.0 10.12 10.910 10.320 10.040 8.680 75.600 73.100 6.004 5.448 8.690 9.000 8.600 9.530 0.278 0.189 0.232 0.238     218.700 0.00 1 1 10.220 11.020 10.390 8.730 10.090 6.818 5.661 1.3270 9.840 10.820 10.200 8.620 9.960 5.518 5.306 0.9100 81.10 10.60 20 0                             12.378 9.353 3.020 12.312 8.999 3.312
UPLMET_235 2016-09-30 08:20:00 235 11678.0 9.18 11.340 9.800 9.710 8.630 79.810 74.640 5.885 5.430 8.700 9.000 8.590 9.530 0.278 0.189 0.232 0.238     218.600 0.00 1 1 9.720 11.600 10.260 8.800 10.000 6.680 5.571 0.9000 8.700 11.000 9.390 8.480 9.430 5.380 5.329 0.6260 75.88 15.67 20 0                             11.620 9.276 2.346 12.042 8.988 3.054
UPLMET_235 2016-09-30 08:15:00 235 11678.0 8.53 11.190 9.460 9.440 8.390 80.900 75.420 5.440 5.322 8.700 9.000 8.590 9.530 0.278 0.189 0.232 0.238     218.600 0.00 1 1 8.650 11.230 9.560 8.440 9.540 5.672 5.481 1.0690 8.390 11.160 9.350 8.330 9.350 5.269 5.238 0.7130 93.60 12.61 20 0                             11.120 8.994 2.124 11.826 8.921 2.907
UPLMET_235 2016-09-30 08:10:00 235 11678.0 8.11 10.660 9.140 9.330 8.200 84.400 77.120 5.638 5.532 8.710 9.000 8.590 9.530 0.278 0.189 0.232 0.238     218.600 0.00 1 1 8.350 11.100 9.470 8.340 9.530 5.826 5.771 0.9800 7.928 10.230 8.630 8.010 9.000 5.468 5.372 0.5620 75.24 5.84 20 0                             10.808 9.119 1.686 11.738 9.052 2.686
UPLMET_235 2016-09-30 08:05:00 235 11678.0 7.87 10.100 8.310 8.630 7.890 87.500 81.000 5.932 5.558 8.720 9.010 8.590 9.530 0.278 0.189 0.232 0.238     218.600 0.00 1 1 7.918 10.190 8.550 8.040 8.980 6.199 5.637 1.0690 7.846 10.060 8.230 7.820 8.330 5.680 5.446 0.5740 82.30 14.05 20 0                             10.635 9.307 1.329 11.196 9.068 2.127
UPLMET_235 2016-09-30 08:00:00 235 11678.0 7.78 10.070 8.210 8.260 8.080 86.300 82.200 5.642 5.409 8.730 9.010 8.590 9.530 0.278 0.189 0.232 0.238     218.400 0.00 1 1 7.879 10.120 8.260 8.160 8.310 5.899 5.601 0.8550 7.665 9.980 8.130 7.884 8.210 5.539 5.321 0.4980 92.90 1.88 20 0                             10.567 9.121 1.448 10.918 8.975 1.943
UPLMET_235 2016-09-30 07:55:00 235 11678.0 7.56 9.860 8.040 8.150 7.927 86.900 82.300 5.526 5.332 8.730 9.010 8.590 9.530 0.278 0.189 0.232 0.238     218.400 0.00 1 1 7.652 9.950 8.110 8.040 8.190 5.619 5.406 0.8460 7.464 9.780 7.982 7.866 8.130 5.425 5.250 0.4900 84.50 8.65 20 0                             10.407 9.048 1.363 10.837 8.927 1.918
UPLMET_235 2016-09-30 07:50:00 235 11678.0 7.37 9.670 7.881 8.110 7.771 88.200 82.600 5.564 5.347 8.740 9.010 8.590 9.530 0.278 0.189 0.232 0.238     218.300 0.00 1 1 7.454 9.760 7.964 7.915 8.160 5.614 5.405 0.8200 7.293 9.600 7.818 7.614 8.080 5.503 5.262 0.5210 81.70 5.01 20 0                             10.278 9.072 1.213 10.808 8.936 1.881
UPLMET_235 2016-09-30 07:45:00 235 11678.0 7.24 9.560 7.804 7.983 7.595 89.000 83.300 5.558 5.338 8.750 9.010 8.590 9.530 0.278 0.189 0.232 0.238     218.400 0.00 1 1 7.293 9.600 7.818 7.722 8.060 5.650 5.413 0.7310 7.207 9.530 7.790 7.508 7.947 5.471 5.280 0.4790 73.99 2.32 20 0                             10.181 9.068 1.120 10.715 8.931 1.789
UPLMET_235 2016-09-30 07:40:00 235 11678.0 7.16 9.590 7.888 8.050 7.590 89.300 82.600 5.521 5.273 8.760 9.020 8.590 9.530 0.278 0.189 0.232 0.238     218.400 0.00 1 1 7.204 9.610 7.939 7.659 8.150 5.630 5.365 0.9270 7.122 9.560 7.831 7.531 7.970 5.459 5.168 0.5960 72.79 7.19 20 0                             10.129 9.045 1.084 10.764 8.890 1.873
UPLMET_235 2016-09-30 07:35:00 235 11678.0 7.06 9.610 7.931 8.220 7.682 88.900 80.400 5.358 5.060 8.760 9.020 8.590 9.530 0.278 0.189 0.232 0.238     218.300 0.00 1 1 7.135 9.650 7.970 7.931 8.310 5.515 5.192 0.8820 6.944 9.590 7.871 7.496 8.130 5.162 4.891 0.5310 64.21 73.46 20 0                             10.062 8.943 1.117 10.889 8.759 2.134
UPLMET_235 2016-09-30 07:30:00 235 11678.0 6.82 9.390 7.701 8.220 7.743 91.600 80.400 5.547 5.050 8.770 9.020 8.590 9.530 0.278 0.189 0.232 0.238     218.300 0.00 1 1 6.950 9.560 7.833 7.948 8.310 5.818 5.247 0.6770 6.739 9.250 7.606 7.545 8.060 5.308 4.921 0.2090 224.00 0.01 20 0                             9.893 9.061 0.831 10.889 8.753 2.134
UPLMET_235 2016-09-30 07:25:00 235 11678.0 6.68 9.160 7.543 7.883 7.459 95.000 82.000 5.939 5.003 8.780 9.020 8.590 9.530 0.278 0.189 0.232 0.238     218.300 0.00 1 1 6.733 9.230 7.591 7.709 8.030 6.176 5.087 0.4370 6.627 9.110 7.499 7.260 7.833 5.704 4.903 0.0790 224.10 0.01 20 0                             9.798 9.311 0.490 10.642 8.724 1.916
UPLMET_235 2016-09-30 07:20:00 235 11678.0 6.59 9.060 7.432 7.804 7.271 98.100 84.100 6.314 5.296 8.790 9.030 8.590 9.530 0.278 0.189 0.232 0.238     218.300 0.00 1 1 6.640 9.100 7.484 7.360 7.830 6.362 6.077 0.0000 6.515 8.960 7.353 7.135 7.777 6.194 4.972 0.0000 0.00 0.00 20 0                             9.742 9.556 0.185 10.585 8.905 1.683
UPLMET_235 2016-09-30 07:15:00 235 11678.0 6.45 8.940 7.352 7.857 7.113 99.000 87.900 6.315 5.984 8.790 9.030 8.590 9.530 0.278 0.189 0.232 0.238     218.300 0.00 1 1 6.508 8.970 7.365 7.213 7.883 6.351 6.133 0.0000 6.357 8.910 7.328 7.007 7.824 6.260 5.730 0.0000 0.00 0.00 20 0                             9.649 9.556 0.096 10.623 9.340 1.285
UPLMET_235 2016-09-30 07:10:00 235 11678.0 6.27 8.830 7.243 7.698 7.078 99.600 87.500 6.206 5.767 8.800 9.030 8.590 9.530 0.278 0.189 0.232 0.238     218.300 0.00 1 1 6.350 8.900 7.292 7.192 7.821 6.260 5.958 0.4540 6.194 8.780 7.192 6.967 7.493 6.171 5.564 0.1240 224.20 0.01 20 0                             9.524 9.485 0.038 10.508 9.201 1.314
UPLMET_235 2016-09-30 07:05:00 235 11678.0 6.11 8.720 7.231 7.308 6.881 100.000 91.100 6.107 5.960 8.810 9.030 8.590 9.530 0.278 0.189 0.232 0.238     218.300 0.00 1 1 6.188 8.770 7.274 6.950 7.437 6.175 5.992 0.4010 6.029 8.660 7.190 6.835 7.248 6.034 5.910 0.3380 224.20 0.00 20 0                             9.419 9.420 0.000 10.232 9.325 0.911
UPLMET_235 2016-09-30 07:00:00 235 11678.0 5.88 8.400 7.029 7.130 6.966 100.000 92.700 5.885 6.033 8.820 9.030 8.590 9.530 0.278 0.189 0.232 0.238     218.200 0.00 1 1 6.026 8.650 7.255 7.100 7.235 6.030 6.160 0.4450 5.752 8.140 6.738 6.859 6.968 5.756 5.937 0.2210 224.20 0.02 20 0                             9.273 9.276 0.000 10.108 9.372 0.738
UPLMET_235 2016-09-30 06:55:00 235 11678.0 5.64 7.937 6.458 6.724 6.588 100.000 95.100 5.643 5.999 8.820 9.040 8.590 9.530 0.278 0.189 0.232 0.238     218.300 0.00 1 1 5.729 8.110 6.685 6.797 6.922 5.733 6.133 0.2760 5.510 7.759 6.274 6.378 6.538 5.514 5.880 0.0880 224.30 0.01 20 0                             9.119 9.122 0.000 9.830 9.350 0.482
UPLMET_235 2016-09-30 06:50:00 235 11678.0 5.38 7.552 6.086 6.351 6.189 100.000 96.500 5.387 5.840 8.830 9.040 8.590 9.530 0.278 0.189 0.232 0.238     218.300 0.00 1 1 5.500 7.723 6.244 6.343 6.528 5.505 5.892 0.3390 5.269 7.385 5.934 6.058 6.164 5.273 5.779 0.2610 224.30 0.00 20 0                             8.959 8.961 0.000 9.580 9.247 0.335
UPLMET_235 2016-09-30 06:45:00 235 11678.0 5.15 7.168 5.750 5.994 5.811 100.000 97.700 5.147 5.661 8.840 9.040 8.590 9.530 0.278 0.189 0.232 0.238     218.300 0.00 1 1 5.252 7.350 5.905 6.005 6.141 5.256 5.776 0.4810 5.044 6.985 5.619 5.698 5.860 5.033 5.550 0.2960 224.30 0.00 20 0                             8.812 8.813 0.000 9.347 9.133 0.215
UPLMET_235 2016-09-30 06:40:00 235 11678.0 5.00 6.834 5.514 5.758 5.479 99.700 98.000 4.966 5.469 8.840 9.040 8.590 9.530 0.278 0.189 0.232 0.238     218.300 0.00 1 1 5.034 6.965 5.598 5.670 5.844 5.013 5.542 0.6860 4.981 6.752 5.449 5.336 5.679 4.938 5.410 0.4070 225.80 1.14 20 0                             8.724 8.702 0.026 9.195 9.012 0.184
UPLMET_235 2016-09-30 06:35:00 235 11678.0 4.99 6.726 5.405 5.605 5.273 99.700 98.200 4.946 5.351 8.850 9.040 8.590 9.530 0.278 0.189 0.232 0.238     218.300 0.00 1 1 5.011 6.748 5.440 5.326 5.668 4.969 5.401 0.5080 4.971 6.703 5.374 5.207 5.543 4.925 5.275 0.4250 226.70 0.00 20 0                             8.716 8.690 0.026 9.098 8.939 0.164
UPLMET_235 2016-09-30 06:30:00 235 11678.0 5.00 6.736 5.386 5.567 5.213 99.700 98.000 4.959 5.286 8.860 9.050 8.590 9.530 0.278 0.189 0.232 0.238     218.300 0.00 1 1 5.007 6.745 5.397 5.221 5.585 4.975 5.306 0.5350 4.971 6.713 5.376 5.203 5.549 4.926 5.269 0.4820 226.70 0.02 20 0                             8.721 8.698 0.026 9.074 8.898 0.181
UPLMET_235 2016-09-30 06:25:00 235 11678.0 5.01 6.725 5.417 5.589 5.241 99.800 97.900 4.988 5.290 8.860 9.050 8.590 9.530 0.278 0.189 0.232 0.238     218.300 0.00 1 1 5.027 6.740 5.430 5.267 5.618 5.007 5.326 0.4810 4.993 6.711 5.398 5.201 5.569 4.972 5.261 0.4110 226.70 0.01 20 0                             8.728 8.715 0.017 9.088 8.901 0.191
UPLMET_235 2016-09-30 06:20:00 235 11678.0 5.00 6.686 5.432 5.602 5.299 100.000 98.200 5.001 5.339 8.870 9.050 8.590 9.530 0.278 0.189 0.232 0.238     218.300 0.00 1 1 5.026 6.726 5.437 5.325 5.625 5.020 5.351 0.4370 4.973 6.658 5.427 5.263 5.582 4.977 5.320 0.3680 226.70 0.01 20 0                             8.723 8.723 0.000 9.096 8.931 0.164
UPLMET_235 2016-09-30 06:15:00 235 11678.0 4.91 6.588 5.417 5.574 5.294 99.900 98.800 4.903 5.408 8.880 9.050 8.590 9.530 0.278 0.189 0.232 0.238     218.300 0.00 1 1 4.977 6.637 5.428 5.321 5.605 4.981 5.441 0.4540 4.835 6.548 5.402 5.268 5.555 4.819 5.372 0.3720 226.70 0.00 20 0                             8.667 8.664 0.009 9.078 8.974 0.109
UPLMET_235 2016-09-30 06:10:00 235 11678.0 4.72 6.388 5.334 5.502 5.185 99.600 99.200 4.663 5.390 8.880 9.050 8.590 9.530 0.278 0.189 0.232 0.238     218.300 0.00 1 1 4.802 6.535 5.394 5.287 5.555 4.775 5.450 0.4450 4.666 6.256 5.279 5.085 5.463 4.580 5.332 0.3930 226.70 0.00 20 0                             8.553 8.520 0.034 9.033 8.963 0.072
UPLMET_235 2016-09-30 06:05:00 235 11678.0 4.65 6.231 5.236 5.433 5.055 99.200 98.600 4.536 5.232 8.890 9.060 8.590 9.530 0.278 0.189 0.232 0.238     218.300 0.00 1 1 4.669 6.245 5.268 5.085 5.456 4.581 5.297 0.3830 4.623 6.198 5.214 4.992 5.416 4.486 5.158 0.3030 226.70 0.03 20 0                             8.511 8.444 0.068 8.990 8.865 0.126
UPLMET_235 2016-09-30 06:00:00 235 11678.0 4.66 6.155 5.215 5.456 4.963 98.700 97.600 4.479 5.114 8.900 9.060 8.590 9.530 0.278 0.189 0.232 0.238     218.300 0.00 1 1 4.705 6.178 5.222 4.976 5.492 4.502 5.151 0.4280 4.639 6.141 5.209 4.947 5.423 4.462 5.082 0.3670 226.70 0.01 20 0                             8.520 8.410 0.111 9.004 8.792 0.216
UPLMET_235 2016-09-30 05:55:00 235 11678.0 4.78 6.158 5.242 5.514 4.947 98.300 96.700 4.537 5.034 8.910 9.060 8.590 9.530 0.278 0.189 0.232 0.238     218.300 0.00 1 1 4.861 6.179 5.261 4.968 5.545 4.577 5.081 0.4540 4.709 6.137 5.216 4.915 5.489 4.495 4.969 0.4030 226.70 0.02 20 0                             8.590 8.445 0.146 9.041 8.743 0.298
UPLMET_235 2016-09-30 05:50:00 235 11678.0 5.00 6.272 5.373 5.621 5.060 98.200 95.900 4.745 5.024 8.910 9.060 8.590 9.530 0.278 0.189 0.232 0.238     218.400 0.00 1 1 5.128 6.402 5.488 5.215 5.680 4.915 5.070 0.4190 4.874 6.165 5.265 4.945 5.548 4.592 4.974 0.3350 226.70 0.00 20 0                             8.723 8.569 0.157 9.108 8.737 0.373
UPLMET_235 2016-09-30 05:45:00 235 11678.0 5.17 6.453 5.529 5.736 5.311 98.600 95.700 4.977 5.108 8.920 9.060 8.590 9.530 0.278 0.189 0.232 0.238     218.400 0.00 1 1 5.188 6.487 5.574 5.341 5.786 5.002 5.128 0.4190 5.135 6.418 5.495 5.256 5.694 4.931 5.087 0.3750 226.70 0.00 20 0                             8.826 8.709 0.124 9.181 8.789 0.395
UPLMET_235 2016-09-30 05:40:00 235 11678.0 5.21 6.523 5.645 5.855 5.400 98.600 95.300 5.005 5.172 8.930 9.060 8.590 9.530 0.278 0.189 0.232 0.238     218.400 0.00 1 1 5.240 6.563 5.709 5.443 5.921 5.030 5.228 0.4450 5.185 6.490 5.585 5.347 5.799 4.982 5.127 0.3410 226.70 0.02 20 0                             8.849 8.726 0.124 9.257 8.828 0.435
UPLMET_235 2016-09-30 05:35:00 235 11678.0 5.27 6.606 5.779 5.965 5.590 98.700 94.900 5.082 5.208 8.930 9.070 8.590 9.530 0.278 0.189 0.232 0.238     218.300 0.00 1 1 5.296 6.627 5.813 5.663 5.990 5.113 5.235 0.4540 5.247 6.571 5.720 5.458 5.937 5.044 5.160 0.2520 226.70 0.00 20 0                             8.888 8.773 0.116 9.328 8.850 0.476
UPLMET_235 2016-09-30 05:30:00 235 11678.0 5.26 6.624 5.798 5.982 5.669 98.700 94.600 5.074 5.191 8.940 9.070 8.590 9.530 0.278 0.189 0.232 0.238     218.500 0.00 1 1 5.296 6.650 5.826 5.703 6.004 5.129 5.217 0.4100 5.223 6.581 5.764 5.611 5.964 5.004 5.160 0.2800 226.70 0.03 20 0                             8.882 8.768 0.115 9.339 8.840 0.504
UPLMET_235 2016-09-30 05:25:00 235 11678.0 5.26 6.554 5.753 5.997 5.512 98.000 94.600 4.977 5.202 8.940 9.070 8.590 9.530 0.278 0.189 0.232 0.238     218.500 0.00 1 1 5.313 6.570 5.783 5.593 6.066 5.003 5.223 0.5260 5.220 6.535 5.742 5.406 5.960 4.952 5.177 0.3880 226.70 0.02 20 0                             8.883 8.709 0.178 9.349 8.846 0.505
UPLMET_235 2016-09-30 05:20:00 235 11678.0 5.43 6.721 5.925 6.168 5.622 98.000 93.700 5.135 5.232 8.950 9.070 8.590 9.530 0.278 0.189 0.232 0.238     218.400 0.00 1 1 5.472 6.790 6.025 5.769 6.251 5.191 5.278 0.4190 5.339 6.594 5.802 5.449 6.079 5.024 5.189 0.2400 226.70 0.03 20 0                             8.985 8.805 0.180 9.460 8.865 0.596
UPLMET_235 2016-09-30 05:15:00 235 11678.0 5.55 6.891 6.121 6.320 5.818 97.900 93.300 5.242 5.321 8.960 9.070 8.600 9.530 0.278 0.189 0.232 0.238     218.300 0.00 1 1 5.607 6.975 6.187 5.970 6.373 5.292 5.359 0.3470 5.478 6.808 6.045 5.706 6.248 5.173 5.266 0.1960 226.70 0.03 20 0                             9.063 8.871 0.190 9.560 8.920 0.641
UPLMET_235 2016-09-30 05:10:00 235 11678.0 5.68 7.010 6.216 6.432 5.974 97.700 92.900 5.351 5.380 8.960 9.070 8.590 9.530 0.278 0.189 0.232 0.238     218.300 0.00 1 1 5.726 7.081 6.283 6.053 6.466 5.406 5.403 0.2490 5.607 6.954 6.172 5.894 6.373 5.280 5.348 0.0230 225.50 0.67 20 0                             9.145 8.939 0.210 9.634 8.957 0.684
UPLMET_235 2016-09-30 05:05:00 235 11678.0 5.75 7.125 6.305 6.454 6.103 97.800 92.600 5.432 5.355 8.970 9.070 8.600 9.530 0.278 0.189 0.232 0.238     218.300 0.00 1 1 5.762 7.147 6.326 6.170 6.476 5.462 5.399 0.4990 5.726 7.087 6.288 6.024 6.423 5.395 5.315 0.4130 223.10 0.00 20 0                             9.190 8.989 0.202 9.649 8.941 0.714
UPLMET_235 2016-09-30 05:00:00 235 11678.0 5.72 7.132 6.276 6.424 6.156 98.400 92.700 5.487 5.331 8.980 9.080 8.600 9.530 0.278 0.189 0.232 0.238     218.400 0.00 1 1 5.769 7.160 6.299 6.232 6.440 5.515 5.354 0.4990 5.670 7.084 6.247 6.091 6.400 5.464 5.304 0.2940 222.50 0.34 20 0                             9.172 9.024 0.147 9.629 8.926 0.703
UPLMET_235 2016-09-30 04:55:00 235 11678.0 5.60 7.007 6.185 6.380 6.121 98.500 92.900 5.397 5.315 8.980 9.080 8.590 9.530 0.278 0.189 0.232 0.238     218.400 0.00 1 1 5.643 7.075 6.244 6.233 6.433 5.445 5.368 0.4540 5.554 6.934 6.117 5.993 6.311 5.336 5.282 0.3050 222.30 0.00 20 0                             9.097 8.967 0.136 9.599 8.916 0.682
UPLMET_235 2016-09-30 04:50:00 235 11678.0 5.53 6.890 6.091 6.292 5.956 98.300 93.200 5.293 5.278 8.990 9.080 8.600 9.530 0.278 0.189 0.232 0.238     218.300 0.00 1 1 5.567 6.929 6.114 5.994 6.341 5.345 5.373 0.4450 5.501 6.868 6.073 5.922 6.255 5.267 5.222 0.3910 222.30 0.00 20 0                             9.050 8.903 0.154 9.541 8.893 0.649
UPLMET_235 2016-09-30 04:45:00 235 11678.0 5.45 6.816 6.040 6.215 5.935 98.300 93.200 5.208 5.210 8.990 9.080 8.600 9.530 0.278 0.189 0.232 0.238     218.400 0.00 1 1 5.514 6.863 6.071 5.965 6.248 5.288 5.266 0.7750 5.405 6.752 6.000 5.882 6.175 5.135 5.120 0.5060 222.70 0.59 20 0                             9.002 8.850 0.153 9.491 8.851 0.645
UPLMET_235 2016-09-30 04:40:00 235 11678.0 5.43 6.687 5.972 6.141 5.873 98.200 93.000 5.172 5.097 9.000 9.080 8.600 9.530 0.278 0.189 0.232 0.238     218.400 0.00 1 1 5.445 6.739 5.994 5.955 6.178 5.220 5.161 0.4370 5.415 6.641 5.946 5.769 6.112 5.143 5.066 0.3190 223.70 0.00 20 0                             8.985 8.828 0.162 9.442 8.782 0.661
UPLMET_235 2016-09-30 04:35:00 235 11678.0 5.37 6.557 5.887 6.084 5.820 98.500 93.500 5.155 5.117 9.010 9.080 8.600 9.530 0.278 0.189 0.232 0.238     218.400 0.00 1 1 5.418 6.638 5.955 5.876 6.132 5.208 5.170 0.6950 5.322 6.477 5.831 5.727 6.036 5.102 5.025 0.4130 232.60 11.23 20 0                             8.949 8.817 0.134 9.405 8.794 0.611
UPLMET_235 2016-09-30 04:30:00 235 11678.0 5.32 6.422 5.803 5.993 5.685 98.700 93.500 5.139 5.036 9.010 9.080 8.600 9.530 0.278 0.189 0.232 0.238     218.300 0.00 1 1 5.349 6.469 5.822 5.743 6.033 5.153 5.072 0.5350 5.286 6.370 5.783 5.633 5.960 5.130 4.963 0.3830 248.30 0.03 20 0                             8.918 8.808 0.116 9.346 8.745 0.607
UPLMET_235 2016-09-30 04:25:00 235 11678.0 5.24 6.328 5.752 5.935 5.625 99.100 94.100 5.117 5.058 9.020 9.090 8.600 9.530 0.278 0.189 0.232 0.238     218.300 0.00 1 1 5.296 6.358 5.780 5.647 5.990 5.150 5.092 0.5430 5.193 6.283 5.717 5.609 5.890 5.081 5.011 0.4640 248.30 0.01 20 0                             8.873 8.794 0.080 9.309 8.758 0.549
UPLMET_235 2016-09-30 04:20:00 235 11678.0 5.14 6.201 5.689 5.872 5.497 99.100 94.400 5.019 5.048 9.020 9.090 8.600 9.530 0.278 0.189 0.232 0.238     218.400 0.00 1 1 5.186 6.272 5.711 5.587 5.903 5.078 5.069 0.5430 5.103 6.145 5.665 5.409 5.840 4.970 5.028 0.4960 248.30 0.02 20 0                             8.808 8.734 0.079 9.268 8.752 0.519
UPLMET_235 2016-09-30 04:15:00 235 11678.0 5.10 6.131 5.669 5.853 5.424 99.000 94.300 4.959 5.013 9.030 9.090 8.600 9.530 0.278 0.189 0.232 0.238     218.400 0.00 1 1 5.130 6.149 5.685 5.485 5.866 5.001 5.044 0.5260 5.073 6.109 5.653 5.384 5.843 4.932 4.964 0.4870 248.30 0.02 20 0                             8.782 8.698 0.088 9.256 8.731 0.528
UPLMET_235 2016-09-30 04:10:00 235 11678.0 5.05 6.075 5.650 5.835 5.444 98.800 94.100 4.877 4.967 9.040 9.090 8.600 9.530 0.278 0.189 0.232 0.238     218.300 0.00 1 1 5.073 6.126 5.683 5.510 5.859 4.924 4.995 0.4540 5.023 6.039 5.609 5.361 5.803 4.846 4.948 0.4020 248.30 0.02 20 0                             8.750 8.648 0.105 9.244 8.703 0.545
UPLMET_235 2016-09-30 04:05:00 235 11678.0 5.07 6.052 5.571 5.779 5.358 98.700 94.600 4.886 4.989 9.040 9.090 8.600 9.530 0.278 0.189 0.232 0.238     218.300 0.00 1 1 5.090 6.068 5.600 5.400 5.803 4.924 5.018 0.4720 5.043 6.042 5.552 5.336 5.750 4.852 4.956 0.4020 248.30 0.04 20 0                             8.763 8.653 0.114 9.208 8.716 0.497
UPLMET_235 2016-09-30 04:00:00 235 11678.0 5.05 6.102 5.512 5.730 5.387 98.800 94.800 4.890 4.966 9.050 9.090 8.600 9.530 0.278 0.189 0.232 0.238     218.300 0.00 1 1 5.086 6.153 5.545 5.447 5.780 4.928 5.008 0.4630 5.030 6.069 5.494 5.336 5.691 4.863 4.926 0.3150 248.30 0.03 20 0                             8.755 8.656 0.105 9.177 8.702 0.477
UPLMET_235 2016-09-30 03:55:00 235 11678.0 5.01 6.227 5.464 5.687 5.326 98.900 94.800 4.852 4.926 9.050 9.090 8.600 9.530 0.278 0.189 0.232 0.238     218.300 0.00 1 1 5.033 6.309 5.492 5.362 5.714 4.873 5.007 0.4540 4.983 6.164 5.445 5.298 5.664 4.825 4.843 0.3750 248.30 0.00 20 0                             8.729 8.633 0.096 9.150 8.678 0.476
UPLMET_235 2016-09-30 03:50:00 235 11678.0 4.99 6.279 5.447 5.660 5.270 98.800 94.800 4.829 4.897 9.060 9.100 8.600 9.530 0.278 0.189 0.232 0.238     218.400 0.00 1 1 5.012 6.318 5.451 5.303 5.686 4.866 4.929 0.5170 4.970 6.258 5.444 5.235 5.634 4.796 4.856 0.4310 248.30 0.02 20 0                             8.717 8.619 0.105 9.133 8.660 0.475
UPLMET_235 2016-09-30 03:45:00 235 11678.0 4.99 6.285 5.456 5.655 5.250 98.900 94.500 4.834 4.840 9.070 9.100 8.600 9.530 0.278 0.189 0.232 0.238     218.400 0.00 1 1 5.009 6.389 5.475 5.287 5.670 4.859 4.884 0.4720 4.969 6.238 5.446 5.226 5.637 4.805 4.801 0.4090 248.30 0.00 20 0                             8.715 8.622 0.096 9.130 8.626 0.502
UPLMET_235 2016-09-30 03:40:00 235 11678.0 5.03 6.530 5.510 5.700 5.239 98.900 94.900 4.866 4.950 9.070 9.100 8.600 9.530 0.278 0.189 0.232 0.238     218.300 0.00 1 1 5.084 6.628 5.529 5.320 5.732 4.946 5.055 0.5700 4.982 6.417 5.480 5.180 5.670 4.812 4.861 0.5200 248.30 0.01 20 0                             8.738 8.641 0.096 9.158 8.692 0.467
UPLMET_235 2016-09-30 03:35:00 235 11678.0 5.09 6.385 5.529 5.704 5.348 99.100 95.600 4.969 5.060 9.080 9.100 8.600 9.530 0.278 0.189 0.232 0.238     218.300 0.00 1 1 5.114 6.447 5.542 5.379 5.718 4.995 5.085 0.5080 5.077 6.365 5.524 5.323 5.685 4.955 5.018 0.4040 248.30 0.00 20 0                             8.778 8.704 0.079 9.161 8.759 0.403
UPLMET_235 2016-09-30 03:30:00 235 11678.0 5.06 6.271 5.530 5.718 5.343 99.000 95.500 4.916 5.059 9.080 9.100 8.600 9.530 0.278 0.189 0.232 0.238     218.400 0.00 1 1 5.081 6.366 5.546 5.396 5.738 4.957 5.079 0.5880 5.034 6.172 5.522 5.236 5.705 4.867 5.035 0.4690 248.30 0.01 20 0                             8.759 8.672 0.088 9.170 8.759 0.413
UPLMET_235 2016-09-30 03:25:00 235 11678.0 5.10 6.255 5.571 5.771 5.359 99.000 95.400 4.956 5.099 9.090 9.100 8.600 9.530 0.278 0.189 0.232 0.238     218.400 0.00 1 1 5.130 6.327 5.607 5.457 5.791 5.008 5.148 0.6860 5.061 6.168 5.526 5.234 5.735 4.895 5.035 0.4960 248.30 0.01 20 0                             8.782 8.696 0.088 9.203 8.783 0.423
UPLMET_235 2016-09-30 03:20:00 235 11678.0 5.06 6.271 5.529 5.721 5.335 98.800 95.600 4.884 5.080 9.100 9.100 8.600 9.540 0.278 0.189 0.232 0.238     218.400 0.00 1 1 5.097 6.371 5.555 5.420 5.758 4.953 5.115 0.4900 5.037 6.148 5.508 5.254 5.698 4.848 5.044 0.3960 248.30 0.03 20 0                             8.758 8.652 0.105 9.171 8.771 0.404
UPLMET_235 2016-09-30 03:15:00 235 11678.0 5.10 6.068 5.520 5.740 5.292 98.400 95.100 4.867 5.022 9.100 9.100 8.600 9.540 0.278 0.189 0.232 0.238     218.300 0.00 1 1 5.179 6.138 5.548 5.367 5.777 4.960 5.049 0.6330 5.040 6.039 5.490 5.222 5.714 4.816 4.987 0.4800 248.30 0.02 20 0                             8.782 8.642 0.141 9.184 8.736 0.450
UPLMET_235 2016-09-30 03:10:00 235 11678.0 5.22 6.140 5.586 5.771 5.351 98.400 95.000 4.997 5.037 9.110 9.100 8.600 9.540 0.278 0.189 0.232 0.238     218.400 0.00 1 1 5.265 6.206 5.619 5.403 5.807 5.022 5.078 0.4990 5.182 6.070 5.552 5.292 5.750 4.967 5.004 0.3650 248.30 0.00 20 0                             8.857 8.721 0.142 9.203 8.745 0.460
UPLMET_235 2016-09-30 03:05:00 235 11678.0 5.33 6.332 5.648 5.804 5.423 98.300 95.100 5.092 5.092 9.110 9.100 8.600 9.540 0.278 0.189 0.232 0.238     218.500 0.00 1 1 5.390 6.411 5.656 5.472 5.830 5.152 5.112 0.4990 5.271 6.227 5.626 5.334 5.787 5.029 5.074 0.4540 248.30 0.00 20 0                             8.928 8.779 0.152 9.224 8.779 0.452
UPLMET_235 2016-09-30 03:00:00 235 11678.0 5.44 6.507 5.707 5.879 5.471 98.300 94.900 5.194 5.129 9.120 9.110 8.600 9.540 0.278 0.189 0.232 0.238     218.400 0.00 1 1 5.502 6.606 5.762 5.518 5.932 5.253 5.155 0.5080 5.377 6.418 5.659 5.444 5.826 5.135 5.095 0.4360 248.30 0.03 20 0                             8.995 8.841 0.153 9.273 8.801 0.473
UPLMET_235 2016-09-30 02:55:00 235 11678.0 5.59 6.721 5.834 6.014 5.555 98.300 95.100 5.350 5.293 9.130 9.110 8.600 9.540 0.278 0.189 0.232 0.238     218.400 0.00 1 1 5.680 6.835 5.915 5.611 6.103 5.449 5.426 0.5260 5.502 6.626 5.771 5.529 5.938 5.255 5.166 0.4600 248.30 0.02 20 0                             9.089 8.938 0.155 9.360 8.903 0.459
UPLMET_235 2016-09-30 02:50:00 235 11678.0 5.77 6.954 6.025 6.220 5.714 98.400 95.400 5.536 5.552 9.130 9.110 8.600 9.540 0.278 0.189 0.232 0.238     218.400 0.00 1 1 5.858 7.051 6.119 5.819 6.318 5.627 5.651 0.4900 5.680 6.851 5.931 5.633 6.097 5.444 5.419 0.3320 248.30 0.03 20 0                             9.203 9.054 0.147 9.494 9.064 0.437
UPLMET_235 2016-09-30 02:45:00 235 11678.0 5.93 7.162 6.220 6.402 5.980 98.600 95.300 5.728 5.704 9.140 9.110 8.600 9.540 0.278 0.189 0.232 0.238     218.400 0.00 1 1 5.974 7.219 6.279 6.092 6.457 5.776 5.802 0.5880 5.868 7.071 6.136 5.838 6.341 5.645 5.647 0.4060 248.30 0.00 20 0                             9.307 9.176 0.130 9.614 9.161 0.452
UPLMET_235 2016-09-30 02:40:00 235 11678.0 6.03 7.285 6.343 6.517 6.050 98.400 95.700 5.803 5.889 9.140 9.110 8.600 9.530 0.278 0.189 0.232 0.238     218.300 0.00 1 1 6.083 7.341 6.390 6.111 6.559 5.853 5.923 0.5790 5.964 7.222 6.283 5.979 6.463 5.744 5.834 0.4070 248.30 0.01 20 0                             9.367 9.224 0.150 9.691 9.279 0.417
UPLMET_235 2016-09-30 02:35:00 235 11678.0 6.13 7.409 6.468 6.639 6.203 98.200 95.300 5.871 5.943 9.150 9.110 8.600 9.540 0.278 0.189 0.232 0.238     218.500 0.00 1 1 6.162 7.455 6.516 6.303 6.701 5.889 5.978 0.5080 6.073 7.350 6.401 6.122 6.572 5.840 5.904 0.3010 248.30 0.02 20 0                             9.432 9.267 0.170 9.772 9.314 0.459
UPLMET_235 2016-09-30 02:30:00 235 11678.0 6.23 7.533 6.575 6.734 6.335 98.100 94.600 5.965 5.931 9.150 9.110 8.600 9.540 0.278 0.189 0.232 0.238     218.400 0.00 1 1 6.275 7.597 6.624 6.436 6.760 6.025 5.952 0.3650 6.159 7.454 6.510 6.242 6.688 5.879 5.898 0.1500 248.30 0.01 20 0                             9.502 9.328 0.181 9.836 9.306 0.531
UPLMET_235 2016-09-30 02:25:00 235 11678.0 6.32 7.634 6.654 6.763 6.442 98.300 94.900 6.076 6.010 9.160 9.110 8.600 9.540 0.278 0.189 0.232 0.238     218.400 0.00 1 1 6.341 7.658 6.674 6.492 6.790 6.108 6.084 0.5170 6.271 7.603 6.624 6.389 6.747 6.024 5.928 0.3330 248.60 0.39 20 0                             9.556 9.400 0.162 9.856 9.357 0.503
UPLMET_235 2016-09-30 02:20:00 235 11678.0 6.35 7.674 6.678 6.767 6.463 98.400 95.300 6.120 6.067 9.170 9.110 8.600 9.540 0.278 0.189 0.232 0.238     218.500 0.00 1 1 6.380 7.702 6.694 6.501 6.786 6.159 6.102 0.8550 6.317 7.648 6.663 6.422 6.750 6.079 6.008 0.2380 235.50 10.95 20 0                             9.582 9.429 0.153 9.859 9.394 0.463
UPLMET_235 2016-09-30 02:15:00 235 11678.0 6.34 7.662 6.647 6.726 6.470 98.400 94.900 6.109 5.970 9.170 9.110 8.600 9.540 0.278 0.189 0.232 0.238     218.500 0.00 1 1 6.384 7.708 6.685 6.521 6.770 6.161 6.017 0.7930 6.321 7.617 6.615 6.378 6.687 6.079 5.936 0.5890 218.90 0.87 20 0                             9.572 9.421 0.153 9.831 9.331 0.501
UPLMET_235 2016-09-30 02:10:00 235 11678.0 6.32 7.628 6.635 6.713 6.424 98.200 94.100 6.068 5.844 9.180 9.110 8.600 9.540 0.278 0.189 0.232 0.238     218.500 0.00 1 1 6.340 7.638 6.652 6.470 6.734 6.095 5.961 0.5170 6.311 7.617 6.614 6.376 6.694 6.049 5.745 0.2020 218.30 1.13 20 0                             9.563 9.395 0.172 9.822 9.250 0.580
UPLMET_235 2016-09-30 02:05:00 235 11678.0 6.35 7.632 6.621 6.687 6.420 98.200 93.900 6.098 5.775 9.180 9.110 8.600 9.540 0.278 0.189 0.232 0.238     218.500 0.00 1 1 6.393 7.648 6.635 6.434 6.710 6.154 5.842 0.4900 6.330 7.620 6.614 6.402 6.664 6.064 5.726 0.4160 217.00 1.01 20 0                             9.582 9.414 0.172 9.805 9.206 0.598
UPLMET_235 2016-09-30 02:00:00 235 11678.0 6.42 7.686 6.660 6.746 6.411 98.400 94.600 6.194 5.941 9.190 9.110 8.600 9.540 0.278 0.189 0.232 0.238     218.400 0.00 1 1 6.449 7.712 6.694 6.440 6.803 6.217 6.101 0.8200 6.390 7.656 6.626 6.393 6.687 6.154 5.843 0.3170 219.90 11.27 20 0                             9.625 9.477 0.154 9.845 9.312 0.532
UPLMET_235 2016-09-30 01:55:00 235 11678.0 6.49 7.781 6.763 6.866 6.495 98.400 95.500 6.271 6.200 9.190 9.110 8.600 9.540 0.278 0.189 0.232 0.238     218.400 0.00 1 1 6.549 7.836 6.818 6.583 6.919 6.341 6.258 0.6410 6.453 7.721 6.702 6.414 6.806 6.220 6.116 0.4690 249.10 0.02 20 0                             9.675 9.527 0.155 9.926 9.481 0.447
UPLMET_235 2016-09-30 01:50:00 235 11678.0 6.56 7.856 6.836 6.933 6.609 98.500 95.500 6.352 6.275 9.200 9.110 8.600 9.540 0.278 0.189 0.232 0.238     218.400 0.00 1 1 6.582 7.877 6.854 6.620 6.962 6.376 6.307 0.7660 6.532 7.844 6.823 6.600 6.915 6.324 6.249 0.5300 249.70 0.40 20 0                             9.719 9.581 0.146 9.972 9.530 0.449
UPLMET_235 2016-09-30 01:45:00 235 11678.0 6.59 7.915 6.899 6.988 6.693 98.600 95.400 6.396 6.307 9.200 9.110 8.600 9.540 0.278 0.189 0.232 0.238     218.500 0.00 1 1 6.605 7.929 6.920 6.743 7.005 6.414 6.343 0.6860 6.578 7.885 6.861 6.624 6.965 6.376 6.281 0.2010 250.00 0.01 20 0                             9.741 9.610 0.136 10.010 9.551 0.460
UPLMET_235 2016-09-30 01:40:00 235 11678.0 6.59 7.935 6.940 7.027 6.730 98.500 95.600 6.375 6.386 9.210 9.120 8.600 9.540 0.278 0.189 0.232 0.238     218.400 0.00 1 1 6.612 7.945 6.952 6.772 7.051 6.395 6.440 0.5430 6.575 7.929 6.924 6.699 6.985 6.345 6.329 0.2230 250.00 0.01 20 0                             9.739 9.596 0.146 10.037 9.603 0.442
UPLMET_235 2016-09-30 01:35:00 235 11678.0 6.60 7.948 6.950 7.061 6.730 98.200 95.700 6.344 6.429 9.210 9.120 8.600 9.540 0.278 0.189 0.232 0.238     218.400 0.00 1 1 6.618 7.956 6.961 6.782 7.081 6.364 6.463 0.6950 6.578 7.936 6.943 6.687 7.044 6.322 6.364 0.5300 250.00 0.00 20 0                             9.747 9.576 0.175 10.060 9.632 0.433
UPLMET_235 2016-09-30 01:30:00 235 11678.0 6.61 7.944 6.942 7.059 6.713 97.700 95.000 6.283 6.313 9.220 9.120 8.600 9.540 0.278 0.189 0.232 0.238     218.500 0.00 1 1 6.638 7.950 6.951 6.768 7.077 6.317 6.380 0.5790 6.595 7.936 6.930 6.686 7.028 6.232 6.247 0.3470 250.00 0.02 20 0                             9.754 9.535 0.224 10.059 9.555 0.503
UPLMET_235 2016-09-30 01:25:00 235 11678.0 6.65 8.000 7.007 7.139 6.749 97.100 93.500 6.227 6.164 9.220 9.120 8.600 9.540 0.278 0.189 0.232 0.238     218.400 0.00 1 1 6.681 8.060 7.077 6.878 7.183 6.242 6.249 0.6680 6.621 7.954 6.954 6.687 7.097 6.215 6.074 0.4310 250.20 0.02 20 0                             9.782 9.499 0.284 10.114 9.457 0.657
UPLMET_235 2016-09-30 01:20:00 235 11678.0 6.66 8.050 7.095 7.194 6.908 96.600 92.200 6.163 6.023 9.230 9.120 8.600 9.540 0.278 0.189 0.232 0.238     218.500 0.00 1 1 6.671 8.070 7.119 6.975 7.220 6.206 6.074 0.4280 6.642 8.040 7.079 6.849 7.177 6.131 5.970 0.2330 249.60 1.50 20 0                             9.784 9.457 0.333 10.152 9.365 0.792
UPLMET_235 2016-09-30 01:15:00 235 11678.0 6.65 8.050 7.105 7.204 6.902 96.300 92.100 6.114 6.008 9.230 9.120 8.600 9.540 0.278 0.189 0.232 0.238     218.400 0.00 1 1 6.661 8.060 7.114 6.930 7.220 6.144 6.043 0.3650 6.628 8.050 7.099 6.868 7.183 6.076 5.961 0.0990 244.30 0.00 20 0                             9.778 9.425 0.362 10.159 9.356 0.803
UPLMET_235 2016-09-30 01:10:00 235 11678.0 6.68 8.080 7.134 7.244 6.914 96.000 91.400 6.087 5.949 9.240 9.120 8.600 9.540 0.278 0.189 0.232 0.238     218.400 0.00 1 1 6.707 8.100 7.159 6.949 7.272 6.111 5.967 0.5350 6.641 8.050 7.110 6.875 7.213 6.055 5.923 0.1440 244.30 0.04 20 0                             9.799 9.407 0.392 10.187 9.318 0.876
UPLMET_235 2016-09-30 01:05:00 235 11678.0 6.71 8.140 7.199 7.290 6.985 96.100 91.000 6.137 5.924 9.240 9.120 8.600 9.540 0.278 0.189 0.232 0.238     218.400 0.00 1 1 6.734 8.160 7.225 7.067 7.318 6.179 5.958 0.4280 6.687 8.100 7.166 6.926 7.256 6.076 5.883 0.2880 244.50 0.00 20 0                             9.822 9.440 0.383 10.219 9.301 0.920
UPLMET_235 2016-09-30 01:00:00 235 11678.0 6.67 8.100 7.174 7.229 7.005 96.700 91.600 6.185 5.952 9.250 9.120 8.600 9.540 0.278 0.189 0.232 0.238     218.400 0.00 1 1 6.697 8.160 7.223 7.069 7.302 6.215 5.974 0.7220 6.651 8.020 7.072 6.857 7.173 6.165 5.914 0.4940 244.50 0.02 20 0                             9.791 9.471 0.323 10.177 9.320 0.855
UPLMET_235 2016-09-30 00:55:00 235 11678.0 6.66 8.040 7.062 7.157 6.897 96.900 92.400 6.217 6.015 9.250 9.120 8.600 9.540 0.278 0.189 0.232 0.238     218.400 0.00 1 1 6.684 8.060 7.087 6.969 7.196 6.255 6.132 0.2230 6.651 8.010 7.050 6.842 7.133 6.171 5.942 0.0160 244.30 0.06 20 0                             9.789 9.492 0.303 10.126 9.360 0.770
UPLMET_235 2016-09-30 00:50:00 235 11678.0 6.64 8.040 7.066 7.160 6.863 97.000 92.600 6.205 6.048 9.260 9.120 8.600 9.540 0.278 0.189 0.232 0.238     218.500 0.00 1 1 6.667 8.050 7.083 6.896 7.180 6.247 6.149 0.5170 6.605 8.030 7.053 6.836 7.133 6.179 5.985 0.1940 244.40 0.01 20 0                             9.772 9.484 0.293 10.129 9.382 0.750
UPLMET_235 2016-09-30 00:45:00 235 11678.0 6.59 8.020 7.086 7.185 6.886 97.200 92.700 6.195 6.086 9.260 9.120 8.600 9.540 0.278 0.189 0.232 0.238     218.300 0.00 1 1 6.611 8.050 7.092 6.916 7.196 6.217 6.112 0.6860 6.575 8.000 7.069 6.864 7.173 6.171 6.061 0.4610 244.40 0.00 20 0                             9.743 9.478 0.273 10.146 9.406 0.741
UPLMET_235 2016-09-30 00:40:00 235 11678.0 6.55 7.957 7.013 7.137 6.883 97.400 93.000 6.168 6.083 9.270 9.120 8.600 9.540 0.278 0.189 0.232 0.238     218.500 0.00 1 1 6.579 8.000 7.058 6.979 7.180 6.211 6.106 0.4280 6.512 7.918 6.979 6.720 7.094 6.126 6.049 0.1970 244.40 0.05 20 0                             9.709 9.460 0.252 10.113 9.404 0.708
UPLMET_235 2016-09-30 00:35:00 235 11678.0 6.55 7.941 7.006 7.119 6.786 97.200 92.900 6.144 6.058 9.270 9.120 8.600 9.540 0.278 0.189 0.232 0.238     218.400 0.00 1 1 6.572 7.960 7.027 6.852 7.137 6.157 6.086 0.6060 6.532 7.920 6.980 6.714 7.097 6.121 6.033 0.3740 244.50 0.00 20 0                             9.715 9.444 0.272 10.100 9.388 0.717
UPLMET_235 2016-09-30 00:30:00 235 11678.0 6.61 7.983 7.010 7.145 6.800 97.200 93.100 6.197 6.108 9.270 9.120 8.600 9.540 0.278 0.189 0.232 0.238     218.500 0.00 1 1 6.645 8.050 7.044 6.872 7.177 6.259 6.151 0.4370 6.566 7.928 6.984 6.767 7.118 6.143 6.079 0.3250 244.30 0.10 20 0                             9.752 9.479 0.273 10.118 9.421 0.698
UPLMET_235 2016-09-30 00:25:00 235 11678.0 6.59 8.030 7.022 7.133 6.900 97.600 93.300 6.249 6.127 9.280 9.120 8.600 9.540 0.278 0.189 0.232 0.238     218.400 0.00 1 1 6.631 8.050 7.045 6.933 7.167 6.260 6.145 0.4630 6.552 7.991 6.998 6.856 7.090 6.229 6.100 0.2890 244.30 0.02 20 0                             9.741 9.513 0.234 10.110 9.433 0.677
UPLMET_235 2016-09-30 00:20:00 235 11678.0 6.52 7.960 6.982 7.093 6.866 98.100 93.500 6.255 6.119 9.280 9.120 8.600 9.540 0.278 0.189 0.232 0.238     218.400 0.00 1 1 6.555 7.979 6.995 6.948 7.120 6.270 6.159 0.2760 6.469 7.942 6.965 6.812 7.070 6.226 6.085 0.0160 244.30 0.00 20 0                             9.693 9.517 0.184 10.082 9.428 0.655
UPLMET_235 2016-09-30 00:15:00 235 11678.0 6.39 7.848 6.886 7.003 6.847 98.400 94.000 6.165 6.107 9.280 9.110 8.600 9.540 0.278 0.189 0.232 0.238     218.500 0.00 1 1 6.479 7.929 6.951 6.932 7.077 6.242 6.126 0.4280 6.333 7.761 6.820 6.679 6.932 6.105 6.086 0.1050 244.30 0.00 20 0                             9.609 9.458 0.154 10.020 9.420 0.601
UPLMET_235 2016-09-30 00:10:00 235 11678.0 6.27 7.731 6.752 6.872 6.716 98.500 94.800 6.057 6.096 9.290 9.110 8.600 9.540 0.278 0.189 0.232 0.238     218.500 0.00 1 1 6.337 7.770 6.813 6.788 6.925 6.117 6.125 0.5430 6.188 7.638 6.646 6.660 6.776 5.957 6.054 0.3430 244.30 0.03 20 0                             9.529 9.388 0.143 9.930 9.413 0.516
UPLMET_235 2016-09-30 00:05:00 235 11678.0 6.13 7.550 6.577 6.700 6.448 98.100 95.000 5.855 5.966 9.290 9.110 8.600 9.540 0.278 0.189 0.232 0.238     218.400 0.00 1 1 6.175 7.620 6.630 6.646 6.766 5.935 6.047 0.4280 6.092 7.514 6.531 6.350 6.641 5.783 5.896 0.2560 244.40 0.05 20 0                             9.436 9.257 0.179 9.813 9.329 0.491
UPLMET_235 2016-09-30 00:00:00 235 11678.0 6.12 7.489 6.503 6.665 6.255 97.400 94.500 5.751 5.850 9.300 9.110 8.600 9.540 0.278 0.189 0.232 0.238     218.400 0.00 1 1 6.155 7.516 6.529 6.348 6.703 5.782 5.902 0.5260 6.099 7.463 6.479 6.205 6.640 5.721 5.820 0.3970 244.40 0.02 20 0                             9.429 9.191 0.245 9.790 9.254 0.538
UPLMET_235 2016-09-29 23:55:00 235 11678.0 6.23 7.610 6.602 6.806 6.316 97.000 93.800 5.801 5.884 9.300 9.110 8.600 9.540 0.278 0.189 0.232 0.238     218.400 0.00 1 1 6.287 7.704 6.680 6.459 6.891 5.843 5.925 0.5350 6.161 7.528 6.533 6.221 6.713 5.754 5.852 0.4120 244.40 0.02 20 0                             9.500 9.223 0.285 9.885 9.276 0.613
UPLMET_235 2016-09-29 23:50:00 235 11678.0 6.37 7.765 6.724 6.966 6.481 96.700 93.200 5.886 5.950 9.300 9.110 8.600 9.540 0.278 0.189 0.232 0.238     218.400 0.00 1 1 6.432 7.857 6.796 6.506 7.034 5.911 5.999 0.5700 6.313 7.705 6.686 6.455 6.908 5.852 5.907 0.0800 244.10 0.13 20 0                             9.592 9.277 0.317 9.995 9.318 0.680
UPLMET_235 2016-09-29 23:45:00 235 11678.0 6.55 7.986 6.916 7.116 6.630 96.300 92.800 6.000 6.041 9.310 9.110 8.600 9.540 0.278 0.189 0.232 0.238     218.400 0.00 1 1 6.660 8.080 6.997 6.708 7.212 6.081 6.105 0.5170 6.455 7.879 6.816 6.502 7.057 5.924 6.012 0.1340 243.80 0.01 20 0                             9.711 9.351 0.359 10.098 9.377 0.727
UPLMET_235 2016-09-29 23:40:00 235 11678.0 6.74 8.250 7.144 7.305 6.845 96.400 92.500 6.219 6.173 9.310 9.110 8.600 9.540 0.278 0.189 0.232 0.238     218.500 0.00 1 1 6.792 8.360 7.245 6.977 7.374 6.304 6.229 0.4990 6.670 8.110 7.023 6.691 7.225 6.101 6.113 0.2630 243.80 0.02 20 0                             9.843 9.493 0.354 10.230 9.463 0.767
UPLMET_235 2016-09-29 23:35:00 235 11678.0 6.78 8.410 7.293 7.422 7.129 97.100 92.500 6.363 6.291 9.310 9.110 8.600 9.540 0.278 0.189 0.232 0.238     218.400 0.00 1 1 6.809 8.430 7.303 7.235 7.446 6.387 6.347 0.4990 6.746 8.380 7.261 7.013 7.390 6.329 6.240 0.3210 243.80 0.00 20 0                             9.870 9.588 0.286 10.312 9.541 0.773
UPLMET_235 2016-09-29 23:30:00 235 11678.0 6.69 8.330 7.252 7.358 7.111 97.400 92.900 6.307 6.298 9.310 9.110 8.600 9.540 0.278 0.189 0.232 0.238     218.500 0.00 1 1 6.746 8.410 7.286 7.214 7.420 6.370 6.351 0.3300 6.643 8.290 7.227 6.996 7.317 6.258 6.256 0.1020 243.80 0.01 20 0                             9.805 9.551 0.255 10.267 9.545 0.729
UPLMET_235 2016-09-29 23:25:00 235 11678.0 6.60 8.280 7.167 7.275 7.071 97.600 92.800 6.243 6.200 9.320 9.110 8.600 9.540 0.278 0.189 0.232 0.238     218.300 0.00 1 1 6.653 8.310 7.232 7.113 7.321 6.268 6.258 0.4900 6.514 8.210 7.054 7.001 7.185 6.186 6.155 0.3350 243.80 0.00 20 0                             9.743 9.509 0.234 10.209 9.481 0.735
UPLMET_235 2016-09-29 23:20:00 235 11678.0 6.48 8.130 6.992 7.131 6.805 97.700 93.100 6.146 6.092 9.320 9.110 8.600 9.540 0.278 0.189 0.232 0.238     218.400 0.00 1 1 6.514 8.190 7.039 6.974 7.165 6.189 6.138 0.5430 6.451 8.090 6.961 6.681 7.102 6.111 6.055 0.2880 243.80 0.00 20 0                             9.668 9.445 0.222 10.108 9.410 0.697
UPLMET_235 2016-09-29 23:15:00 235 11678.0 6.48 8.200 7.014 7.139 6.781 97.700 92.700 6.144 6.041 9.320 9.110 8.600 9.540 0.278 0.189 0.232 0.238     218.500 0.00 1 1 6.494 8.230 7.029 6.826 7.155 6.163 6.073 0.5520 6.458 8.170 7.003 6.728 7.112 6.118 6.016 0.2330 244.40 0.92 20 0                             9.664 9.444 0.222 10.114 9.377 0.738
UPLMET_235 2016-09-29 23:10:00 235 11678.0 6.47 8.210 7.014 7.153 6.813 97.600 92.600 6.120 6.039 9.320 9.110 8.600 9.540 0.278 0.189 0.232 0.238     218.400 0.00 1 1 6.484 8.230 7.030 6.856 7.175 6.140 6.060 0.5170 6.435 8.190 6.997 6.771 7.135 6.088 6.005 0.2830 247.50 0.03 20 0                             9.657 9.429 0.232 10.124 9.376 0.749
UPLMET_235 2016-09-29 23:05:00 235 11678.0 6.49 8.250 7.023 7.160 6.822 97.600 92.700 6.137 6.070 9.330 9.110 8.600 9.540 0.278 0.189 0.232 0.238     218.400 0.00 1 1 6.504 8.260 7.048 6.910 7.181 6.173 6.096 0.7220 6.471 8.230 7.003 6.762 7.138 6.109 6.037 0.2520 247.50 0.02 20 0                             9.672 9.440 0.232 10.129 9.396 0.739
UPLMET_235 2016-09-29 23:00:00 235 11678.0 6.48 8.260 7.022 7.132 6.847 97.900 92.800 6.172 6.048 9.330 9.110 8.600 9.540 0.278 0.189 0.232 0.238     218.400 0.00 1 1 6.514 8.280 7.059 6.918 7.168 6.196 6.085 0.5350 6.451 8.240 7.007 6.782 7.099 6.153 6.017 0.2410 247.60 0.08 20 0                             9.664 9.462 0.203 10.109 9.382 0.728
UPLMET_235 2016-09-29 22:55:00 235 11678.0 6.40 8.210 6.972 7.080 6.956 98.300 92.900 6.152 6.019 9.330 9.100 8.600 9.540 0.278 0.189 0.232 0.238     218.400 0.00 1 1 6.467 8.260 7.065 6.987 7.151 6.191 6.058 0.7040 6.322 8.120 6.862 6.930 7.006 6.087 5.974 0.3220 243.80 0.02 20 0                             9.614 9.449 0.163 10.073 9.363 0.715
UPLMET_235 2016-09-29 22:50:00 235 11678.0 6.23 7.976 6.771 6.915 6.683 98.100 93.900 5.959 6.011 9.330 9.100 8.600 9.540 0.278 0.189 0.232 0.238     218.500 0.00 1 1 6.302 8.110 6.847 6.919 6.989 6.065 6.037 0.5610 6.196 7.880 6.710 6.545 6.873 5.887 5.980 0.3390 244.00 0.02 20 0                             9.503 9.324 0.181 9.960 9.358 0.608
UPLMET_235 2016-09-29 22:45:00 235 11678.0 6.20 7.888 6.702 6.879 6.530 97.800 93.900 5.871 5.971 9.330 9.100 8.600 9.540 0.278 0.189 0.232 0.238     218.400 0.00 1 1 6.215 7.904 6.714 6.583 6.899 5.896 5.995 0.6150 6.172 7.871 6.689 6.451 6.863 5.847 5.938 0.2960 244.00 0.01 20 0                             9.478 9.267 0.209 9.935 9.332 0.606
UPLMET_235 2016-09-29 22:40:00 235 11678.0 6.23 7.893 6.711 6.901 6.429 97.500 93.500 5.866 5.925 9.330 9.100 8.600 9.540 0.278 0.189 0.232 0.238     218.500 0.00 1 1 6.265 7.928 6.751 6.479 6.958 5.900 5.966 0.5080 6.182 7.864 6.678 6.387 6.866 5.829 5.902 0.3920 244.00 0.02 20 0                             9.498 9.264 0.237 9.950 9.302 0.647
UPLMET_235 2016-09-29 22:35:00 235 11678.0 6.28 7.959 6.796 6.977 6.538 97.300 93.300 5.900 5.969 9.330 9.100 8.600 9.540 0.278 0.189 0.232 0.238     218.400 0.00 1 1 6.311 7.978 6.817 6.601 7.008 5.931 6.009 0.6330 6.251 7.946 6.779 6.476 6.958 5.877 5.948 0.5020 244.00 0.03 20 0                             9.537 9.286 0.257 10.002 9.331 0.670
UPLMET_235 2016-09-29 22:30:00 235 11678.0 6.37 8.030 6.880 7.066 6.636 97.200 92.700 5.966 5.969 9.330 9.100 8.600 9.540 0.278 0.189 0.232 0.238     218.600 0.00 1 1 6.429 8.080 6.925 6.683 7.093 6.046 6.027 0.6410 6.294 7.963 6.812 6.524 7.024 5.866 5.918 0.3180 244.00 0.00 20 0                             9.594 9.329 0.269 10.063 9.331 0.735
UPLMET_235 2016-09-29 22:25:00 235 11678.0 6.47 8.130 6.954 7.148 6.683 97.200 92.900 6.062 6.086 9.340 9.100 8.600 9.540 0.278 0.189 0.232 0.238     218.500 0.00 1 1 6.541 8.180 6.995 6.717 7.189 6.132 6.127 0.6150 6.423 8.090 6.917 6.650 7.090 6.029 6.030 0.4100 244.00 0.02 20 0                             9.659 9.391 0.270 10.120 9.406 0.719
UPLMET_235 2016-09-29 22:20:00 235 11678.0 6.59 8.260 7.052 7.244 6.847 97.600 93.200 6.241 6.232 9.340 9.100 8.600 9.540 0.278 0.189 0.232 0.238     218.500 0.00 1 1 6.627 8.310 7.092 6.978 7.288 6.312 6.303 0.4280 6.545 8.190 7.008 6.741 7.202 6.143 6.172 0.1930 244.00 0.02 20 0                             9.740 9.508 0.234 10.187 9.502 0.693
UPLMET_235 2016-09-29 22:15:00 235 11678.0 6.58 8.250 7.068 7.268 6.984 97.800 93.500 6.260 6.293 9.340 9.100 8.600 9.540 0.278 0.189 0.232 0.238     218.400 0.00 1 1 6.601 8.300 7.086 7.018 7.281 6.299 6.312 0.4010 6.548 8.220 7.053 6.939 7.252 6.225 6.278 0.2650 244.00 0.03 20 0                             9.731 9.520 0.214 10.204 9.542 0.663
UPLMET_235 2016-09-29 22:10:00 235 11678.0 6.59 8.240 7.064 7.287 6.875 97.500 93.400 6.228 6.300 9.340 9.100 8.600 9.540 0.278 0.189 0.232 0.238     218.400 0.00 1 1 6.620 8.250 7.075 6.927 7.321 6.244 6.329 0.6150 6.568 8.230 7.056 6.838 7.255 6.210 6.274 0.3060 244.00 0.00 20 0                             9.741 9.499 0.244 10.217 9.547 0.674
UPLMET_235 2016-09-29 22:05:00 235 11678.0 6.66 8.310 7.112 7.348 6.896 97.200 93.000 6.264 6.291 9.340 9.090 8.600 9.540 0.278 0.189 0.232 0.238     218.400 0.00 1 1 6.696 8.350 7.140 6.959 7.380 6.296 6.308 0.4810 6.624 8.260 7.069 6.821 7.314 6.225 6.269 0.3600 244.00 0.03 20 0                             9.789 9.523 0.274 10.260 9.541 0.718
UPLMET_235 2016-09-29 22:00:00 235 11678.0 6.74 8.400 7.184 7.416 6.913 97.000 92.700 6.305 6.325 9.340 9.090 8.600 9.540 0.278 0.189 0.232 0.238     218.400 0.00 1 1 6.795 8.470 7.257 6.943 7.462 6.338 6.375 0.5170 6.683 8.340 7.135 6.886 7.376 6.260 6.296 0.3490 244.00 0.01 20 0                             9.843 9.550 0.295 10.308 9.563 0.752
UPLMET_235 2016-09-29 21:55:00 235 11678.0 6.84 8.540 7.323 7.495 7.047 97.000 92.500 6.401 6.361 9.340 9.090 8.600 9.540 0.278 0.189 0.232 0.238     218.400 0.00 1 1 6.867 8.590 7.366 7.185 7.541 6.446 6.397 0.5520 6.798 8.480 7.270 6.934 7.459 6.341 6.338 0.2820 244.00 0.02 20 0                             9.908 9.613 0.297 10.364 9.587 0.777
UPLMET_235 2016-09-29 21:50:00 235 11678.0 6.87 8.570 7.410 7.559 7.121 97.100 92.300 6.442 6.398 9.340 9.090 8.600 9.540 0.278 0.189 0.232 0.238     218.400 0.00 1 1 6.907 8.600 7.463 7.226 7.591 6.476 6.433 0.4540 6.828 8.550 7.357 7.025 7.518 6.394 6.366 0.2710 244.00 0.02 20 0                             9.930 9.641 0.288 10.409 9.611 0.801
UPLMET_235 2016-09-29 21:45:00 235 11678.0 6.91 8.570 7.446 7.579 7.213 97.200 92.500 6.496 6.442 9.340 9.090 8.600 9.540 0.278 0.189 0.232 0.238     218.400 0.00 1 1 6.926 8.580 7.469 7.264 7.587 6.552 6.469 0.6150 6.887 8.570 7.434 7.183 7.567 6.452 6.416 0.4540 244.00 0.03 20 0                             9.954 9.677 0.279 10.423 9.641 0.782
UPLMET_235 2016-09-29 21:40:00 235 11678.0 6.85 8.470 7.423 7.550 7.274 97.600 92.800 6.499 6.474 9.340 9.090 8.600 9.540 0.278 0.189 0.232 0.238     218.500 0.00 1 1 6.907 8.570 7.465 7.326 7.590 6.562 6.496 0.4370 6.807 8.350 7.370 7.158 7.511 6.412 6.438 0.2250 244.00 0.02 20 0                             9.917 9.679 0.238 10.403 9.662 0.749
UPLMET_235 2016-09-29 21:35:00 235 11678.0 6.82 8.280 7.367 7.517 7.124 97.100 92.600 6.405 6.399 9.330 9.090 8.600 9.540 0.278 0.189 0.232 0.238     218.500 0.00 1 1 6.843 8.330 7.403 7.220 7.544 6.428 6.431 0.5430 6.794 8.240 7.350 7.089 7.491 6.388 6.344 0.4790 244.00 0.00 20 0                             9.897 9.616 0.287 10.379 9.612 0.768
UPLMET_235 2016-09-29 21:30:00 235 11678.0 6.84 8.160 7.362 7.491 7.159 96.900 92.400 6.389 6.338 9.330 9.080 8.600 9.540 0.278 0.189 0.232 0.238     218.500 0.00 1 1 6.863 8.220 7.390 7.235 7.514 6.426 6.371 0.5790 6.830 8.140 7.339 7.112 7.471 6.367 6.298 0.4180 244.00 0.03 20 0                             9.909 9.605 0.307 10.361 9.572 0.787
UPLMET_235 2016-09-29 21:25:00 235 11678.0 6.78 8.020 7.339 7.463 7.189 97.000 92.200 6.341 6.285 9.330 9.080 8.600 9.540 0.278 0.189 0.232 0.238     218.500 0.00 1 1 6.823 8.130 7.380 7.283 7.500 6.395 6.313 0.5080 6.737 7.945 7.316 7.112 7.440 6.291 6.244 0.3250 244.00 0.03 20 0                             9.866 9.574 0.296 10.341 9.537 0.807
UPLMET_235 2016-09-29 21:20:00 235 11678.0 6.76 7.888 7.296 7.446 7.141 97.100 92.000 6.330 6.239 9.330 9.080 8.600 9.540 0.278 0.189 0.232 0.238     218.500 0.00 1 1 6.779 7.939 7.329 7.252 7.470 6.345 6.283 0.4370 6.743 7.831 7.278 7.042 7.424 6.311 6.210 0.0980 244.00 0.01 20 0                             9.851 9.566 0.286 10.329 9.506 0.826
UPLMET_235 2016-09-29 21:15:00 235 11678.0 6.77 7.817 7.281 7.443 7.087 96.900 92.000 6.316 6.232 9.330 9.080 8.600 9.540 0.278 0.189 0.232 0.238     218.500 0.00 1 1 6.795 7.832 7.294 7.141 7.456 6.339 6.255 0.5880 6.736 7.806 7.275 7.029 7.433 6.289 6.203 0.4620 243.00 1.17 20 0                             9.858 9.557 0.306 10.327 9.502 0.826
UPLMET_235 2016-09-29 21:10:00 235 11678.0 6.79 7.735 7.297 7.462 7.069 96.900 91.800 6.336 6.229 9.330 9.080 8.600 9.540 0.278 0.189 0.232 0.238     218.400 0.00 1 1 6.809 7.799 7.323 7.153 7.482 6.361 6.263 0.5260 6.772 7.695 7.271 6.971 7.436 6.315 6.175 0.3860 241.60 0.01 20 0                             9.874 9.570 0.306 10.340 9.500 0.848
UPLMET_235 2016-09-29 21:05:00 235 11678.0 6.76 7.730 7.328 7.472 7.101 97.000 91.800 6.332 6.236 9.330 9.080 8.600 9.540 0.278 0.189 0.231 0.238     218.500 0.00 1 1 6.775 7.881 7.338 7.135 7.498 6.345 6.270 0.5430 6.742 7.670 7.318 7.068 7.442 6.312 6.197 0.4150 241.60 0.01 20 0                             9.857 9.568 0.296 10.347 9.504 0.848
UPLMET_235 2016-09-29 21:00:00 235 11678.0 6.73 8.090 7.320 7.471 7.101 97.000 91.900 6.292 6.239 9.320 9.080 8.600 9.540 0.278 0.190 0.231 0.238     218.400 0.00 1 1 6.758 8.380 7.342 7.159 7.495 6.328 6.260 0.7310 6.712 7.899 7.304 7.035 7.449 6.272 6.208 0.4660 241.60 0.05 20 0                             9.833 9.541 0.295 10.347 9.506 0.838
UPLMET_235 2016-09-29 20:55:00 235 11678.0 6.71 8.540 7.296 7.438 7.117 97.000 92.200 6.271 6.258 9.320 9.070 8.600 9.540 0.278 0.190 0.231 0.238     218.400 0.00 1 1 6.741 8.600 7.354 7.200 7.484 6.315 6.307 0.7040 6.695 8.440 7.230 7.050 7.402 6.239 6.216 0.6000 241.60 0.17 20 0                             9.822 9.527 0.295 10.323 9.519 0.805
UPLMET_235 2016-09-29 20:50:00 235 11678.0 6.80 13.797 7.211 7.431 6.951 96.600 92.600 6.298 6.318 9.320 9.070 8.600 9.540 0.278 0.190 0.231 0.238     218.500 0.00 1 1 6.883   7.279 7.012 7.497 6.402 6.372 0.6860 6.718   7.169 6.920 7.382 6.217 6.279 0.4570 241.40 0.19 20 0                             9.883 9.545 0.336 10.318 9.558 0.764
UPLMET_235 2016-09-29 20:45:00 235 11678.0 6.92 19.053 7.343 7.524 7.098 96.900 92.700 6.465 6.428 9.320 9.070 8.600 9.540 0.278 0.190 0.231 0.238     218.400 0.00 1 1 6.948   7.366 7.181 7.569 6.497 6.493 0.5170 6.899   7.303 7.009 7.497 6.434 6.379 0.3590 242.60 1.22 20 0                             9.966 9.656 0.309 10.384 9.631 0.758
UPLMET_235 2016-09-29 20:40:00 235 11678.0 7.02 24.310 7.447 7.633 7.182 96.400 92.800 6.500 6.549 9.310 9.070 8.600 9.540 0.278 0.190 0.231 0.238     218.500 0.00 1 1 7.076 49.430 7.526 7.356 7.704 6.561 6.584 0.5610 6.968 18.850 7.391 7.110 7.566 6.463 6.481 0.4310 243.80 0.00 20 0                             10.033 9.679 0.361 10.462 9.712 0.753
UPLMET_235 2016-09-29 20:35:00 235 11678.0 7.14 20.963 7.548 7.757 7.278 96.200 92.200 6.586 6.577 9.310 9.070 8.600 9.540 0.278 0.190 0.231 0.238     218.500 0.00 1 1 7.215   7.612 7.389 7.836 6.658 6.598 0.5350 7.063   7.505 7.185 7.697 6.538 6.549 0.4060 243.80 0.01 20 0                             10.115 9.737 0.384 10.551 9.731 0.823
UPLMET_235 2016-09-29 20:30:00 235 11678.0 7.28 17.617 7.699 7.897 7.422 95.900 91.800 6.683 6.651 9.310 9.070 8.600 9.540 0.279 0.190 0.231 0.237     218.500 0.00 1 1 7.383   7.787 7.535 7.958 6.753 6.720 0.8020 7.201   7.642 7.356 7.842 6.652 6.586 0.4920 248.90 45.86 20 0                             10.213 9.802 0.419 10.652 9.780 0.873
UPLMET_235 2016-09-29 20:25:00 235 11678.0 7.47 14.270 7.824 8.020 7.563 95.700 91.800 6.824 6.777 9.300 9.060 8.600 9.540 0.279 0.190 0.231 0.237     218.500 0.00 1 1 7.548 18.620 7.895 7.625 8.080 6.929 6.851 0.5430 7.360 11.840 7.782 7.516 7.958 6.726 6.702 0.2990 49.22 0.02 20 0                             10.343 9.898 0.445 10.742 9.866 0.881
UPLMET_235 2016-09-29 20:20:00 235 11678.0 7.58 10.650 7.958 8.160 7.704 96.100 92.000 6.998 6.953 9.300 9.060 8.600 9.540 0.279 0.190 0.231 0.237     218.500 0.00 1 1 7.607 11.570 8.010 7.761 8.230 7.038 7.043 0.3210 7.548 10.230 7.908 7.656 8.090 6.943 6.872 0.1940 49.22 0.02 20 0                             10.422 10.017 0.406 10.844 9.986 0.868
UPLMET_235 2016-09-29 20:15:00 235 11678.0 7.67 9.510 8.070 8.320 7.751 95.500 91.900 7.000 7.085 9.300 9.060 8.600 9.540 0.279 0.190 0.231 0.237     218.500 0.00 1 1 7.775 10.050 8.150 7.784 8.410 7.049 7.105 0.5170 7.597 9.330 8.020 7.715 8.230 6.966 7.052 0.4000 49.22 0.00 20 0                             10.489 10.018 0.472 10.963 10.077 0.888
UPLMET_235 2016-09-29 20:10:00 235 11678.0 7.86 9.610 8.300 8.520 8.080 95.300 91.400 7.153 7.217 9.290 9.060 8.600 9.540 0.279 0.190 0.231 0.237     218.500 0.00 1 1 7.890 9.660 8.360 8.250 8.590 7.207 7.308 0.4720 7.791 9.460 8.180 7.826 8.450 7.068 7.128 0.2610 49.75 0.03 20 0                             10.622 10.124 0.499 11.113 10.168 0.956
UPLMET_235 2016-09-29 20:05:00 235 11678.0 7.93 9.770 8.380 8.650 8.110 94.700 90.600 7.133 7.212 9.290 9.060 8.600 9.540 0.279 0.190 0.231 0.237     218.500 0.00 1 1 8.020 10.040 8.500 8.220 8.790 7.203 7.300 0.4540 7.877 9.650 8.330 8.010 8.570 7.073 7.145 0.3720 49.50 0.12 20 0                             10.675 10.110 0.566 11.211 10.165 1.054
UPLMET_235 2016-09-29 20:00:00 235 11678.0 8.08 10.680 8.560 8.860 8.270 93.900 89.500 7.165 7.233 9.280 9.060 8.600 9.540 0.279 0.190 0.231 0.237     218.500 0.00 1 1 8.150 11.520 8.600 8.360 8.930 7.240 7.298 0.4810 8.020 10.100 8.520 8.090 8.790 7.048 7.139 0.2440 51.42 0.68 20 0                             10.786 10.132 0.658 11.372 10.179 1.194
UPLMET_235 2016-09-29 19:55:00 235 11678.0 8.26 14.900 8.770 9.060 8.410 92.600 87.800 7.140 7.159 9.280 9.060 8.600 9.540 0.279 0.190 0.231 0.237     218.500 0.00 1 1 8.360 20.180 8.940 8.730 9.160 7.253 7.275 0.0000 8.160 11.770 8.630 8.170 8.950 7.049 7.051 0.0000 0.00 0.00 20 0                             10.918 10.115 0.808 11.526 10.128 1.406
UPLMET_235 2016-09-29 19:50:00 235 11678.0 8.37 14.363 9.010 9.130 8.920 92.500 87.900 7.232 7.231 9.270 9.050 8.600 9.540 0.279 0.190 0.231 0.237     218.500 0.00 1 1 8.410   9.070 9.290 9.190 7.290 7.274 0.6240 8.330   8.930 8.640 9.010 7.183 7.189 0.1180 51.55 0.00 20 0                             11.000 10.179 0.825 11.581 10.178 1.401
UPLMET_235 2016-09-29 19:45:00 235 11678.0 8.16 13.827 8.750 8.840 8.710 93.200 88.500 7.133 7.055 9.270 9.050 8.600 9.540 0.279 0.190 0.231 0.237     218.500 0.00 1 1 8.310   9.030 9.280 8.980 7.237 7.228 1.5230 8.090   8.610 8.270 8.780 7.048 6.893 0.7200 20.12 62.62 20 0                             10.844 10.110 0.737 11.356 10.056 1.306
UPLMET_235 2016-09-29 19:40:00 235 11678.0 8.07 13.290 8.700 8.830 8.790 93.400 87.100 7.073 6.814 9.260 9.050 8.600 9.540 0.279 0.190 0.231 0.237     218.500 0.00 1 1 8.100 14.950 8.730 9.190 8.870 7.179 6.952 0.9710 8.030 12.270 8.640 8.460 8.750 7.001 6.636 0.3130 32.77 17.60 20 0                             10.778 10.068 0.711 11.349 9.891 1.464
UPLMET_235 2016-09-29 19:35:00 235 11678.0 8.02 11.780 8.560 8.690 8.520 95.100 89.000 7.294 6.985 9.260 9.050 8.600 9.540 0.279 0.190 0.231 0.237     218.500 0.00 1 1 8.050 12.180 8.670 9.040 8.720 7.356 7.132 0.6860 8.010 11.540 8.490 8.310 8.660 7.170 6.613 0.2200 321.10 22.87 20 0                             10.742 10.222 0.526 11.242 10.008 1.237
UPLMET_235 2016-09-29 19:30:00 235 11678.0 8.06 11.720 8.480 8.700 8.300 95.500 90.100 7.393 7.180 9.250 9.050 8.600 9.540 0.279 0.190 0.231 0.237     218.500 0.00 1 1 8.100 12.250 8.500 8.350 8.740 7.421 7.210 0.5350 8.030 11.520 8.470 8.250 8.670 7.365 7.145 0.0620 298.90 0.16 20 0                             10.771 10.292 0.485 11.249 10.142 1.114
UPLMET_235 2016-09-29 19:25:00 235 11678.0 8.15 13.583 8.510 8.780 8.260 95.300 90.200 7.455 7.262 9.250 9.050 8.600 9.540 0.279 0.190 0.231 0.237     218.500 0.00 1 1 8.210   8.580 8.390 8.840 7.493 7.300 0.2410 8.100   8.490 8.170 8.730 7.425 7.197 0.0220 328.50 0.00 20 0                             10.837 10.335 0.509 11.310 10.200 1.108
UPLMET_235 2016-09-29 19:20:00 235 11678.0 8.23 15.445 8.690 8.920 8.350 94.700 89.100 7.436 7.228 9.240 9.040 8.600 9.540 0.279 0.190 0.231 0.237     218.500 0.00 1 1 8.250   8.760 8.570 8.970 7.472 7.336 0.4100 8.200   8.590 8.170 8.840 7.399 7.124 0.0830 329.70 1.10 20 0                             10.896 10.322 0.577 11.418 10.176 1.245
UPLMET_235 2016-09-29 19:15:00 235 11678.0 8.28 17.308 8.750 8.970 8.520 95.100 88.800 7.552 7.223 9.230 9.040 8.600 9.540 0.279 0.190 0.231 0.237     218.500 0.00 1 1 8.310   8.780 8.580 9.000 7.598 7.287 0.4010 8.250   8.720 8.480 8.920 7.451 7.108 0.0760 333.10 0.56 20 0                             10.933 10.404 0.536 11.457 10.172 1.283
UPLMET_235 2016-09-29 19:10:00 235 11678.0 8.30 19.170 8.750 8.930 8.580 95.200 89.800 7.579 7.354 9.230 9.040 8.600 9.540 0.279 0.190 0.231 0.237     218.500 0.00 1 1 8.330 32.950 8.780 8.670 8.990 7.606 7.500 0.7310 8.280 13.840 8.730 8.460 8.890 7.548 7.212 0.1780 345.30 37.65 20 0                             10.948 10.423 0.526 11.426 10.264 1.165
UPLMET_235 2016-09-29 19:05:00 235 11678.0 8.36 12.670 8.770 8.920 8.550 95.200 90.600 7.640 7.475 9.220 9.040 8.600 9.540 0.279 0.190 0.231 0.237     218.500 0.00 1 1 8.390 13.470 8.790 8.620 8.960 7.686 7.511 0.4630 8.320 12.040 8.750 8.510 8.890 7.593 7.444 0.1230 262.90 0.03 20 0                             10.993 10.467 0.528 11.418 10.349 1.073
UPLMET_235 2016-09-29 19:00:00 235 11678.0 8.42 14.740 8.850 8.990 8.610 95.400 90.600 7.733 7.545 9.210 9.040 8.600 9.540 0.279 0.190 0.231 0.237     218.500 0.00 1 1 8.470 16.700 8.890 8.680 9.030 7.807 7.653 0.6950 8.390 12.830 8.800 8.530 8.960 7.685 7.505 0.1520 262.70 0.02 20 0                             11.038 10.533 0.508 11.472 10.399 1.078
UPLMET_235 2016-09-29 18:55:00 235 11678.0 8.44 11.050 8.900 9.040 8.710 95.500 90.600 7.778 7.594 9.210 9.040 8.600 9.540 0.279 0.190 0.231 0.237     218.600 0.00 1 1 8.460 12.380 8.910 8.770 9.060 7.804 7.661 0.0000 8.420 10.260 8.880 8.630 9.020 7.764 7.544 0.0000 0.00 0.00 20 0                             11.053 10.566 0.497 11.511 10.434 1.082
UPLMET_235 2016-09-29 18:50:00 235 11678.0 8.47 10.010 8.890 9.040 8.640 95.700 90.900 7.830 7.648 9.200 9.040 8.600 9.540 0.279 0.190 0.231 0.237     218.400 0.00 1 1 8.500 10.180 8.910 8.700 9.070 7.860 7.708 0.6060 8.450 9.930 8.860 8.600 9.010 7.800 7.593 0.2060 258.20 0.00 20 0                             11.075 10.603 0.476 11.511 10.473 1.047
UPLMET_235 2016-09-29 18:45:00 235 11678.0 8.53 10.040 8.930 9.090 8.690 95.500 91.100 7.865 7.717 9.190 9.030 8.600 9.540 0.279 0.190 0.231 0.237     218.600 0.00 1 1 8.580 10.170 8.950 8.760 9.120 7.911 7.756 0.5350 8.470 9.940 8.900 8.620 9.060 7.799 7.692 0.2750 258.20 0.00 20 0                             11.120 10.629 0.500 11.550 10.522 1.028
UPLMET_235 2016-09-29 18:40:00 235 11678.0 8.61 15.040 9.000 9.170 8.760 95.400 90.900 7.925 7.769 9.180 9.030 8.600 9.540 0.279 0.190 0.231 0.237     218.600 0.00 1 1 8.640   9.040 8.850 9.220 7.949 7.798 0.5880 8.570   8.950 8.670 9.110 7.902 7.747 0.2580 256.80 2.30 20 0                             11.181 10.672 0.514 11.612 10.559 1.057
UPLMET_235 2016-09-29 18:35:00 235 11678.0 8.69 20.040 9.110 9.290 8.810 95.100 90.500 7.952 7.824 9.170 9.030 8.600 9.540 0.279 0.190 0.231 0.237     218.500 0.00 1 1 8.730 26.930 9.200 8.940 9.340 7.984 7.850 0.6590 8.650 16.690 9.040 8.740 9.230 7.928 7.798 0.4250 251.40 0.02 20 0                             11.242 10.692 0.551 11.707 10.599 1.112
UPLMET_235 2016-09-29 18:30:00 235 11678.0 8.69 15.000 9.210 9.340 9.100 95.100 89.800 7.957 7.761 9.170 9.030 8.600 9.540 0.279 0.190 0.231 0.237     218.500 0.00 1 1 8.740 16.420 9.230 9.170 9.370 7.998 7.796 0.4630 8.650 13.890 9.170 8.990 9.310 7.927 7.723 0.1070 251.40 0.01 20 0                             11.242 10.696 0.551 11.746 10.554 1.198
UPLMET_235 2016-09-29 18:25:00 235 11678.0 8.64 12.940 9.140 9.290 8.930 95.300 90.100 7.945 7.756 9.160 9.030 8.600 9.540 0.279 0.190 0.231 0.237     218.500 0.00 1 1 8.660 13.760 9.160 9.030 9.320 7.992 7.770 0.4630 8.620 12.180 9.120 8.820 9.270 7.886 7.741 0.2040 251.80 0.00 20 0                             11.204 10.687 0.527 11.707 10.550 1.159
UPLMET_235 2016-09-29 18:20:00 235 11678.0 8.66 11.640 9.130 9.280 8.880 94.800 89.900 7.880 7.721 9.150 9.030 8.600 9.540 0.279 0.190 0.231 0.237     218.600 0.00 1 1 8.690 12.100 9.140 8.960 9.300 7.901 7.765 0.4010 8.640 11.250 9.120 8.830 9.260 7.853 7.674 0.3420 251.80 0.03 20 0                             11.219 10.640 0.583 11.699 10.525 1.182
UPLMET_235 2016-09-29 18:15:00 235 11678.0 8.66 10.920 9.080 9.250 8.930 94.800 89.800 7.875 7.668 9.140 9.030 8.600 9.540 0.279 0.190 0.231 0.237     218.500 0.00 1 1 8.690 11.190 9.120 9.000 9.270 7.945 7.696 0.4190 8.640 10.710 9.070 8.790 9.240 7.825 7.648 0.2390 251.80 0.00 20 0                             11.219 10.636 0.583 11.675 10.487 1.191
UPLMET_235 2016-09-29 18:10:00 235 11678.0 8.71 10.680 9.130 9.320 8.870 95.000 89.500 7.951 7.694 9.130 9.020 8.600 9.540 0.279 0.190 0.231 0.237     218.500 0.00 1 1 8.730 10.710 9.180 9.010 9.370 7.985 7.713 0.3390 8.680 10.670 9.080 8.760 9.270 7.915 7.657 0.0800 251.80 0.00 20 0                             11.257 10.691 0.563 11.730 10.505 1.232
UPLMET_235 2016-09-29 18:05:00 235 11678.0 8.74 10.760 9.190 9.390 8.960 94.900 89.400 7.969 7.741 9.120 9.020 8.600 9.540 0.279 0.190 0.231 0.237     218.700 0.00 1 1 8.770 10.830 9.210 9.040 9.430 7.997 7.783 0.2490 8.720 10.700 9.160 8.890 9.350 7.921 7.668 0.0400 251.80 0.01 20 0                             11.280 10.704 0.575 11.786 10.539 1.249
UPLMET_235 2016-09-29 18:00:00 235 11678.0 8.72 10.920 9.230 9.440 8.980 94.700 88.800 7.920 7.693 9.110 9.020 8.600 9.540 0.279 0.190 0.231 0.237     218.600 0.00 1 1 8.760 11.040 9.260 9.080 9.480 7.968 7.740 0.2580 8.700 10.850 9.200 8.900 9.400 7.895 7.629 0.0860 251.80 0.01 20 0                             11.264 10.669 0.597 11.826 10.505 1.324
UPLMET_235 2016-09-29 17:55:00 235 11678.0 8.73 11.260 9.280 9.470 9.040 94.300 88.000 7.876 7.581 9.100 9.020 8.600 9.540 0.279 0.190 0.231 0.237     218.400 0.00 1 1 8.750 11.420 9.290 9.100 9.490 7.907 7.655 0.6590 8.720 11.060 9.260 8.990 9.420 7.838 7.518 0.3680 251.80 0.00 20 0                             11.272 10.637 0.643 11.849 10.425 1.422
UPLMET_235 2016-09-29 17:50:00 235 11678.0 8.73 10.470 9.290 9.420 9.040 94.300 87.900 7.878 7.522 9.090 9.020 8.600 9.540 0.279 0.190 0.231 0.237     218.600 0.00 1 1 8.750   9.310 9.100 9.460 7.900 7.597 0.9710 8.710   9.250 8.990 9.360 7.852 7.469 0.5190 253.60 6.61 20 0                             11.272 10.638 0.643 11.810 10.383 1.429
UPLMET_235 2016-09-29 17:45:00 235 11678.0 8.75 9.680 9.220 9.400 9.010 94.100 88.700 7.863 7.636 9.080 9.020 8.600 9.540 0.279 0.190 0.231 0.237     218.600 0.00 1 1 8.760 9.790 9.300 9.430 9.450 7.919 7.736 0.4990 8.710 9.570 9.150 8.850 9.350 7.805 7.348 0.1430 341.60 42.73 20 0                             11.287 10.627 0.666 11.794 10.464 1.333
UPLMET_235 2016-09-29 17:40:00 235 11678.0 8.81 9.790 9.230 9.440 9.000 94.100 88.500 7.913 7.655 9.070 9.020 8.600 9.540 0.279 0.190 0.231 0.237     218.600 0.00 1 1 8.830 10.070 9.270 9.090 9.490 7.963 7.725 0.4450 8.770 9.580 9.170 8.840 9.390 7.886 7.579 0.2020 290.40 33.03 20 0                             11.333 10.664 0.669 11.826 10.478 1.360
UPLMET_235 2016-09-29 17:35:00 235 11678.0 8.89 10.540 9.320 9.550 9.030 94.300 88.700 8.030 7.779 9.060 9.020 8.600 9.540 0.279 0.190 0.231 0.237     218.500 0.00 1 1 8.940 11.100 9.380 9.100 9.620 8.070 7.881 0.7840 8.840 10.120 9.260 8.990 9.480 7.977 7.695 0.3070 266.80 19.64 20 0                             11.395 10.749 0.650 11.913 10.567 1.346
UPLMET_235 2016-09-29 17:30:00 235 11678.0 8.96 10.350 9.450 9.650 9.160 94.100 88.400 8.070 7.838 9.050 9.020 8.600 9.540 0.279 0.190 0.231 0.237     218.500 0.00 1 1 9.000 11.160 9.480 9.260 9.690 8.090 7.905 0.5700 8.930 10.040 9.400 9.090 9.620 8.050 7.736 0.3120 261.80 0.01 20 0                             11.449 10.778 0.675 11.994 10.609 1.391
UPLMET_235 2016-09-29 17:25:00 235 11678.0 9.04 10.920 9.500 9.690 9.190 93.800 88.500 8.100 7.888 9.040 9.020 8.600 9.540 0.279 0.190 0.231 0.237     218.500 0.00 1 1 9.100 11.060 9.510 9.220 9.720 8.130 7.962 0.7480 8.980 10.600 9.480 9.140 9.640 8.070 7.751 0.5520 262.00 0.21 20 0                             11.511 10.800 0.714 12.026 10.645 1.383
UPLMET_235 2016-09-29 17:20:00 235 11678.0 9.18 10.910 9.570 9.770 9.260 93.000 87.700 8.110 7.835 9.030 9.020 8.600 9.540 0.279 0.190 0.231 0.237     218.500 0.00 1 1 9.240 11.200 9.630 9.330 9.820 8.170 7.939 0.5700 9.110 10.290 9.500 9.190 9.720 8.070 7.794 0.2660 262.30 0.01 20 0                             11.620 10.808 0.813 12.091 10.607 1.487
UPLMET_235 2016-09-29 17:15:00 235 11678.0 9.34 10.420 9.680 9.900 9.380 92.000 86.800 8.110 7.821 9.020 9.020 8.600 9.540 0.279 0.190 0.231 0.237     218.600 0.00 1 1 9.420 10.450 9.750 9.490 9.970 8.170 7.862 0.6950 9.250 10.310 9.640 9.330 9.830 8.060 7.759 0.3790 251.20 12.55 20 0                             11.746 10.808 0.940 12.197 10.597 1.610
UPLMET_235 2016-09-29 17:10:00 235 11678.0 9.52 10.660 9.790 10.050 9.460 91.100 85.900 8.150 7.806 9.010 9.020 8.600 9.540 0.279 0.190 0.231 0.237     218.600 0.00 1 1 9.640 11.210 9.860 9.530 10.140 8.220 7.849 0.7750 9.410 10.400 9.760 9.410 9.960 8.090 7.731 0.3910 235.40 1.43 20 0                             11.889 10.837 1.058 12.320 10.586 1.737
UPLMET_235 2016-09-29 17:05:00 235 11678.0 9.77 10.890 9.960 10.270 9.500 90.200 84.700 8.240 7.809 9.000 9.020 8.600 9.540 0.279 0.190 0.231 0.237     218.600 0.00 1 1 9.910 11.210 10.120 9.620 10.400 8.340 7.886 0.6770 9.650 10.480 9.870 9.440 10.160 8.140 7.718 0.2400 233.00 0.70 20 0                             12.091 10.904 1.185 12.503 10.588 1.913
UPLMET_235 2016-09-29 17:00:00 235 11678.0 10.09 10.450 10.330 10.570 9.890 89.000 83.800 8.370 7.962 8.990 9.020 8.600 9.540 0.279 0.190 0.231 0.237     218.600 0.00 1 1 10.250 10.510 10.450 9.990 10.690 8.560 8.230 0.5700 9.940 10.400 10.160 9.690 10.430 8.270 7.689 0.3730 243.70 34.96 20 0                             12.353 11.000 1.359 12.756 10.699 2.066
UPLMET_235 2016-09-29 16:55:00 235 11678.0 10.34 10.620 10.600 10.850 10.190 88.000 83.100 8.450 8.100 8.980 9.010 8.600 9.540 0.279 0.190 0.231 0.237     218.600 0.00 1 1 10.450 10.720 10.700 10.320 11.000 8.600 8.220 0.6950 10.250 10.530 10.490 10.030 10.730 8.360 7.994 0.2940 132.50 53.99 20 0                             12.561 11.060 1.507 12.996 10.800 2.196
UPLMET_235 2016-09-29 16:50:00 235 11678.0 10.47 10.790 10.800 11.130 10.470 85.600 79.980 8.160 7.816 8.970 9.010 8.600 9.540 0.279 0.190 0.231 0.237     218.600 0.00 1 1 10.550 10.860 10.850 10.740 11.270 8.440 8.170 1.8000 10.420 10.710 10.720 10.190 11.020 7.652 7.230 0.7110 70.83 77.41 20 0                             12.671 10.844 1.825 13.240 10.593 2.651
UPLMET_235 2016-09-29 16:45:00 235 11678.0 10.68 10.990 11.020 11.370 10.600 86.300 79.820 8.500 8.020 8.950 9.010 8.600 9.540 0.279 0.190 0.231 0.237     218.500 0.00 1 1 10.780 11.080 11.120 10.700 11.450 8.590 8.190 0.2140 10.600 10.860 10.890 10.370 11.270 8.400 7.869 0.0110 99.70 0.00 20 0                             12.850 11.098 1.760 13.452 10.742 2.715
UPLMET_235 2016-09-29 16:40:00 235 11678.0 10.89 11.220 11.290 11.610 10.800 84.300 76.960 8.360 7.716 8.940 9.010 8.600 9.540 0.279 0.190 0.231 0.237     218.500 0.00 1 1 11.000 11.340 11.440 11.050 11.710 8.550 7.968 1.1400 10.770 11.100 11.150 10.600 11.470 8.060 7.434 0.3050 110.00 9.86 20 0                             13.030 10.993 2.046 13.668 10.521 3.149
UPLMET_235 2016-09-29 16:35:00 235 11678.0 11.04 11.390 11.430 11.730 11.060 81.700 75.590 8.040 7.564 8.930 9.010 8.600 9.540 0.279 0.190 0.231 0.237     218.400 0.00 1 1 11.170 11.490 11.540 11.640 11.840 8.310 7.894 0.8460 10.970 11.330 11.340 10.820 11.640 7.145 6.870 0.2490 133.90 36.47 20 0                             13.161 10.756 2.408 13.777 10.413 3.363
UPLMET_235 2016-09-29 16:30:00 235 11678.0 11.42 11.720 11.740 12.060 11.180 80.600 74.520 8.200 7.684 8.920 9.010 8.600 9.540 0.279 0.190 0.231 0.237     218.500 0.00 1 1 11.610 11.910 11.970 11.480 12.250 8.410 7.949 1.3900 11.190 11.520 11.500 10.950 11.890 7.929 7.223 0.4570 267.20 50.50 20 0                             13.497 10.874 2.618 14.080 10.498 3.588
UPLMET_235 2016-09-29 16:25:00 235 11678.0 11.73 12.110 12.140 12.400 11.850 76.790 69.810 7.791 7.051 8.910 9.020 8.600 9.540 0.279 0.190 0.231 0.237     218.400 0.00 1 1 11.810 12.330 12.300 12.410 12.500 8.660 7.965 1.1400 11.620 11.920 12.010 11.480 12.300 6.673 6.521 0.4490 157.40 40.47 20 0                             13.777 10.575 3.198 14.399 10.053 4.347
UPLMET_235 2016-09-29 16:20:00 235 11678.0 11.92 12.250 12.330 12.560 11.770 75.770 69.420 7.789 7.126 8.900 9.020 8.600 9.540 0.279 0.190 0.231 0.237     218.500 0.00 1 1 12.060 12.480 12.530 12.140 12.680 8.170 7.456 0.5970 11.720 12.050 12.140 11.500 12.440 6.996 6.619 0.1430 191.40 13.48 20 0                             13.951 10.574 3.380 14.551 10.105 4.450
UPLMET_235 2016-09-29 16:15:00 235 11678.0 12.16 12.600 12.630 12.740 12.330 72.760 67.250 7.424 6.838 8.890 9.020 8.600 9.540 0.279 0.190 0.231 0.237     218.500 0.00 1 1 12.210 12.710 12.690 12.550 12.790 7.856 7.076 0.9530 12.080 12.490 12.560 12.180 12.710 6.851 6.515 0.4150 213.20 29.87 20 0                             14.173 10.313 3.861 14.724 9.907 4.822
UPLMET_235 2016-09-29 16:10:00 235 11678.0 12.08 12.620 12.650 12.790 12.390 72.230 66.810 7.244 6.785 8.880 9.020 8.600 9.540 0.279 0.190 0.231 0.237     218.500 0.00 1 1 12.200 12.810 12.730 12.680 12.820 7.727 7.168 2.2810 11.970 12.450 12.540 12.140 12.720 6.648 6.286 1.0330 295.30 38.15 20 0                             14.099 10.187 3.915 14.772 9.871 4.903
UPLMET_235 2016-09-29 16:05:00 235 11678.0 11.98 12.470 12.540 12.740 12.270 73.650 67.160 7.433 6.808 8.870 9.020 8.600 9.540 0.279 0.190 0.231 0.237     218.500 0.00 1 1 12.040 12.600 12.630 12.670 12.770 7.908 7.318 1.8710 11.910 12.320 12.450 12.060 12.690 6.580 6.245 0.9180 266.90 63.75 20 0                             14.006 10.320 3.691 14.724 9.887 4.835
UPLMET_235 2016-09-29 16:00:00 235 11678.0 12.16 12.520 12.590 12.810 12.130 75.230 67.810 7.916 7.024 8.860 9.020 8.600 9.540 0.279 0.190 0.231 0.237     218.400 0.00 1 1 12.260 12.690 12.720 12.430 12.910 8.480 7.404 1.1490 12.000 12.310 12.450 11.920 12.750 7.406 6.444 0.4920 239.20 55.71 20 0                             14.173 10.666 3.511 14.791 10.034 4.761
UPLMET_235 2016-09-29 15:55:00 235 11678.0 12.35 12.760 12.810 13.000 12.270 74.280 67.540 7.907 7.145 8.850 9.020 8.600 9.540 0.279 0.190 0.231 0.237     218.600 0.00 1 1 12.390 12.880 12.940 12.800 13.080 8.550 7.762 0.7570 12.270 12.630 12.690 11.880 12.880 6.615 6.395 0.2920 277.60 78.12 20 0                             14.351 10.659 3.691 14.976 10.118 4.861
UPLMET_235 2016-09-29 15:50:00 235 11678.0 12.54 12.860 12.850 13.100 12.320 73.330 67.770 7.905 7.280 8.840 9.020 8.600 9.540 0.279 0.190 0.231 0.237     218.600 0.00 1 1 12.690 13.050 13.030 12.850 13.240 8.420 8.340 0.5790 12.390 12.740 12.750 12.090 12.990 6.698 6.357 0.1670 291.60 48.18 20 0                             14.532 10.658 3.876 15.075 10.212 4.859
UPLMET_235 2016-09-29 15:45:00 235 11678.0 12.66 13.100 13.080 13.270 12.660 70.270 65.390 7.389 6.920 8.830 9.020 8.600 9.540 0.279 0.190 0.231 0.237     218.600 0.00 1 1 12.730 13.210 13.160 13.040 13.300 8.200 7.616 0.9000 12.580 12.960 12.980 12.150 13.230 6.492 6.237 0.4160 121.40 35.17 20 0                             14.647 10.289 4.354 15.243 9.963 5.276
UPLMET_235 2016-09-29 15:40:00 235 11678.0 12.81 13.120 13.150 13.330 12.470 73.750 66.880 8.240 7.308 8.830 9.020 8.600 9.540 0.279 0.190 0.231 0.237     218.500 0.00 1 1 12.910 13.280 13.270 12.730 13.410 8.730 8.000 1.1490 12.640 12.970 13.010 12.150 13.250 7.485 6.399 0.3790 154.30 27.20 20 0                             14.791 10.904 3.883 15.303 10.232 5.068
UPLMET_235 2016-09-29 15:35:00 235 11678.0 12.86 13.310 13.280 13.400 12.840 69.920 64.680 7.512 6.892 8.820 9.020 8.600 9.540 0.279 0.190 0.231 0.237     218.400 0.00 1 1 12.920 13.380 13.350 13.080 13.430 8.540 7.899 1.5860 12.810 13.190 13.170 12.510 13.380 6.570 6.284 0.6520 106.60 31.36 20 0                             14.840 10.376 4.464 15.373 9.944 5.430
UPLMET_235 2016-09-29 15:30:00 235 11678.0 12.95 13.410 13.350 13.540 12.960 71.860 64.870 7.996 7.060 8.810 9.020 8.600 9.540 0.279 0.190 0.231 0.237     218.500 0.00 1 1 13.040 13.590 13.440 13.180 13.600 8.810 8.020 1.0330 12.880 13.260 13.240 12.650 13.440 6.949 6.294 0.3720 118.50 69.08 20 0                             14.928 10.724 4.201 15.514 10.059 5.450
UPLMET_235 2016-09-29 15:25:00 235 11678.0 13.11 13.820 13.490 13.640 13.040 70.660 63.990 7.902 6.963 8.800 9.020 8.600 9.540 0.279 0.190 0.231 0.237     218.500 0.00 1 1 13.160 13.980 13.540 13.280 13.670 8.860 7.638 1.0070 13.060 13.620 13.440 12.880 13.590 6.657 6.384 0.2380 207.60 73.44 20 0                             15.085 10.656 4.426 15.615 9.993 5.623
UPLMET_235 2016-09-29 15:20:00 235 11678.0 13.18 13.960 13.570 13.720 13.070 68.780 64.020 7.575 7.043 8.790 9.020 8.600 9.540 0.279 0.190 0.231 0.237     218.500 0.00 1 1 13.250 14.270 13.630 13.300 13.790 8.370 7.813 1.5410 13.090 13.830 13.520 12.870 13.650 6.268 6.034 0.6870 291.30 71.16 20 0                             15.154 10.420 4.731 15.697 10.048 5.648
UPLMET_235 2016-09-29 15:15:00 235 11678.0 13.31 18.880 13.710 13.840 13.280 69.610 64.550 7.884 7.287 8.790 9.030 8.600 9.540 0.279 0.190 0.231 0.237     218.500 0.00 1 1 13.390 45.110 13.760 13.440 13.890 8.530 7.731 1.3360 13.260 14.480 13.640 13.010 13.790 7.496 6.797 0.2490 293.60 48.85 20 0                             15.283 10.643 4.644 15.819 10.217 5.608
UPLMET_235 2016-09-29 15:10:00 235 11678.0 13.54 14.720 13.850 14.040 13.310 69.680 65.070 8.120 7.588 8.780 9.030 8.600 9.540 0.279 0.190 0.231 0.237     218.700 0.00 1 1 13.640 15.810 14.000 13.700 14.180 8.820 8.660 2.3250 13.440 14.480 13.750 13.100 13.900 6.933 6.707 0.7200 18.69 43.17 20 0                             15.514 10.815 4.704 16.026 10.430 5.598
UPLMET_235 2016-09-29 15:05:00 235 11678.0 13.75 14.960 14.050 14.230 13.540 67.860 63.380 7.932 7.382 8.770 9.030 8.600 9.540 0.279 0.190 0.231 0.237     218.500 0.00 1 1 13.880 16.770 14.120 13.640 14.300 8.510 7.980 1.5320 13.640 14.510 13.980 13.380 14.160 7.173 6.859 0.4960 284.10 96.70 20 0                             15.727 10.677 5.055 16.225 10.284 5.942
UPLMET_235 2016-09-29 15:00:00 235 11678.0 13.91 19.700 14.260 14.350 13.820 65.080 61.880 7.460 7.143 8.770 9.030 8.600 9.540 0.279 0.190 0.231 0.237     218.600 0.00 1 1 13.950 29.280 14.340 13.990 14.370 8.510 7.878 1.9330 13.860 15.790 14.110 13.550 14.290 6.649 6.493 1.0070 302.50 44.24 20 0                             15.892 10.339 5.549 16.351 10.117 6.233
UPLMET_235 2016-09-29 14:55:00 235 11678.0 13.93 16.280 14.340 14.450 13.670 65.590 62.240 7.598 7.328 8.760 9.030 8.600 9.540 0.279 0.190 0.231 0.237     218.600 0.00 1 1 13.970 17.170 14.390 13.800 14.570 8.620 7.948 1.6300 13.860 15.340 14.280 13.430 14.360 7.085 7.028 0.6670 255.60 57.00 20 0                             15.912 10.437 5.475 16.457 10.246 6.214
UPLMET_235 2016-09-29 14:50:00 235 11678.0 13.95 14.790 14.370 14.680 13.740 67.890 62.810 8.130 7.674 8.760 9.030 8.600 9.540 0.279 0.190 0.231 0.237     218.600 0.00 1 1 14.030 15.130 14.440 13.870 14.750 8.860 8.430 2.9220 13.890 14.620 14.290 13.570 14.580 7.484 7.222 1.3530 285.90 24.14 20 0                             15.933 10.822 5.116 16.704 10.491 6.212
UPLMET_235 2016-09-29 14:45:00 235 11678.0 14.18 14.660 14.510 14.760 14.050 65.230 60.720 7.744 7.241 8.750 9.030 8.600 9.540 0.280 0.190 0.231 0.237     218.600 0.00 1 1 14.290 14.750 14.620 14.340 14.850 8.940 8.470 2.2900 14.040 14.560 14.400 13.780 14.680 6.665 5.865 0.8700 319.50 63.17 20 0                             16.172 10.541 5.623 16.790 10.185 6.595
UPLMET_235 2016-09-29 14:40:00 235 11678.0 14.42 14.720 14.630 14.810 14.140 64.550 60.810 7.823 7.321 8.750 9.040 8.600 9.540 0.280 0.190 0.231 0.237     218.600 0.00 1 1 14.570 14.900 14.830 14.400 14.970 8.490 8.030 2.3430 14.260 14.620 14.510 14.000 14.660 6.411 6.074 1.1030 268.80 67.58 20 0                             16.426 10.598 5.823 16.844 10.241 6.601
UPLMET_235 2016-09-29 14:35:00 235 11678.0 14.57 14.930 14.900 15.050 14.320 63.930 60.310 7.825 7.436 8.740 9.040 8.600 9.540 0.279 0.190 0.231 0.237     218.600 0.00 1 1 14.620 14.990 14.990 14.410 15.170 9.410 8.410 1.8620 14.540 14.890 14.860 14.240 14.970 7.134 6.948 0.7690 353.50 34.73 20 0                             16.586 10.600 5.982 17.107 10.322 6.790
UPLMET_235 2016-09-29 14:30:00 235 11678.0 14.65 15.130 15.030 15.120 14.570 60.590 57.150 7.074 6.669 8.740 9.040 8.600 9.540 0.280 0.190 0.231 0.237     218.600 0.00 1 1 14.690 15.220 15.060 14.710 15.180 9.290 8.960 1.1670 14.620 15.050 14.970 14.360 15.080 5.088 5.073 0.6490 63.65 81.90 20 0                             16.671 10.069 6.570 17.184 9.793 7.363
UPLMET_235 2016-09-29 14:25:00 235 11678.0 14.52 15.050 14.880 14.970 14.440 62.820 60.070 7.450 7.220 8.740 9.040 8.600 9.540 0.280 0.190 0.231 0.237     218.600 0.00 1 1 14.610 15.220 15.070 14.790 15.050 9.160 8.780 2.1030 14.440 14.880 14.720 14.050 14.890 4.400 4.198 0.8320 100.40 57.88 20 0                             16.532 10.332 6.147 17.019 10.170 6.796
UPLMET_235 2016-09-29 14:20:00 235 11678.0 14.60 15.060 14.900 14.960 14.390 65.950 64.050 8.320 8.230 8.730 9.040 8.600 9.540 0.280 0.190 0.231 0.237     218.600 0.00 1 1 14.670 15.210 15.010 14.790 15.010 8.920 8.710 1.2560 14.550 14.960 14.830 14.150 14.880 7.549 7.261 0.6250 85.50 51.39 20 0                             16.618 10.963 5.658 17.008 10.896 6.114
UPLMET_235 2016-09-29 14:15:00 235 11678.0 14.46 14.840 14.610 14.620 14.190 69.270 67.350 8.900 8.630 8.730 9.050 8.600 9.540 0.280 0.190 0.231 0.237     218.600 0.00 1 1 14.540 15.160 14.940 14.800 14.820 10.060 9.620 1.7190 14.380 14.720 14.470 13.870 14.510 7.390 7.233 0.9410 50.34 28.26 20 0                             16.468 11.402 5.061 16.639 11.196 5.433
UPLMET_235 2016-09-29 14:10:00 235 11678.0 14.64 14.930 14.640 14.710 14.150 72.470 70.480 9.760 9.410 8.730 9.050 8.600 9.540 0.280 0.190 0.231 0.237     218.700 0.00 1 1 14.710 14.980 14.670 14.270 14.770 10.500 10.130 1.8710 14.550 14.830 14.560 13.990 14.620 8.860 8.750 0.9380 73.87 32.77 20 0                             16.661 12.083 4.587 16.736 11.802 4.941
UPLMET_235 2016-09-29 14:05:00 235 11678.0 14.93 15.230 14.860 15.020 14.240 71.430 69.090 9.820 9.410 8.730 9.050 8.600 9.540 0.280 0.190 0.231 0.237     218.600 0.00 1 1 15.080 15.460 15.110 14.560 15.200 10.240 10.100 2.5210 14.730 14.970 14.640 14.050 14.790 9.210 8.970 1.1150 69.64 55.80 20 0                             16.975 12.131 4.850 17.074 11.802 5.278
UPLMET_235 2016-09-29 14:00:00 235 11678.0 15.10 15.460 15.130 15.230 14.580 71.230 69.720 9.940 9.750 8.720 9.050 8.600 9.540 0.280 0.190 0.231 0.237     218.600 0.00 1 1 15.160 15.530 15.200 14.750 15.290 10.570 10.610 1.2830 15.050 15.380 15.050 14.400 15.190 9.230 9.270 0.8590 68.56 46.76 20 0                             17.162 12.229 4.937 17.306 12.075 5.240
UPLMET_235 2016-09-29 13:55:00 235 11678.0 15.14 15.520 15.250 15.290 14.630 67.140 65.170 9.070 8.790 8.720 9.050 8.600 9.540 0.280 0.190 0.231 0.237     218.600 0.00 1 1 15.170 15.590 15.330 14.800 15.360 10.480 9.970 1.5950 15.100 15.410 15.120 14.510 15.250 7.198 7.597 0.7390 91.60 51.36 20 0                             17.206 11.534 5.654 17.373 11.318 6.051
UPLMET_235 2016-09-29 13:50:00 235 11678.0 15.12 15.510 15.410 15.240 14.630 66.570 64.280 8.940 8.540 8.720 9.060 8.600 9.540 0.280 0.190 0.231 0.237     218.600 0.00 1 1 15.230 15.560 15.520 14.710 15.270 9.980 9.630 1.7370 15.060 15.480 15.310 14.490 15.210 7.678 7.502 0.7380 43.71 88.70 20 0                             17.184 11.433 5.745 17.317 11.128 6.186
UPLMET_235 2016-09-29 13:45:00 235 11678.0 15.41 15.620 15.550 15.280 14.670 68.560 66.130 9.670 9.010 8.720 9.060 8.600 9.540 0.280 0.190 0.231 0.237     218.600 0.00 1 1 15.480 15.730 15.680 14.910 15.350 10.300 9.570 1.4430 15.290 15.480 15.410 14.470 15.210 9.060 8.470 0.5400 96.60 65.17 20 0                             17.507 12.010 5.504 17.362 11.488 5.880
UPLMET_235 2016-09-29 13:40:00 235 11678.0 15.60 15.850 15.750 15.490 14.790 68.690 68.510 9.870 9.720 8.720 9.060 8.600 9.540 0.280 0.190 0.231 0.237     218.700 0.00 1 1 15.660 15.980 15.910 15.010 15.600 10.840 10.410 2.7530 15.510 15.620 15.440 14.500 15.400 7.994 7.155 1.1740 37.75 30.47 20 0                             17.722 12.172 5.549 17.597 12.050 5.541
UPLMET_235 2016-09-29 13:35:00 235 11678.0 15.99 15.940 15.650 15.290 14.480 62.430 64.680 8.760 8.620 8.720 9.060 8.600 9.540 0.280 0.190 0.231 0.237     218.700 0.00 1 1 16.160 16.080 15.760 14.640 15.400 10.980 10.560 1.4170 15.630 15.740 15.500 14.160 15.130 6.635 6.496 0.7230 99.70 70.83 20 0                             18.170 11.295 6.826 17.373 11.188 6.136
UPLMET_235 2016-09-29 13:30:00 235 11678.0 15.97 16.010 15.510 15.140 14.240 69.220 70.520 10.340 9.830 8.720 9.070 8.600 9.540 0.280 0.190 0.231 0.237     218.700 0.00 1 1 16.020 16.110 15.610 14.480 15.190 11.090 10.060 1.2120 15.930 15.910 15.410 13.990 15.080 9.880 9.660 0.6210 114.50 23.64 20 0                             18.146 12.561 5.585 17.206 12.140 5.072
UPLMET_235 2016-09-29 13:25:00 235 11678.0 15.97 16.110 15.580 15.350 14.630 68.390 69.900 10.170 9.900 8.720 9.070 8.600 9.540 0.280 0.190 0.231 0.237     218.700 0.00 1 1 16.080 16.340 15.850 15.050 15.510 11.080 10.840 2.0310 15.880 15.840 15.250 13.960 15.220 9.580 9.470 1.0880 71.11 48.46 20 0                             18.146 12.419 5.736 17.440 12.197 5.249
UPLMET_235 2016-09-29 13:20:00 235 11678.0 16.26 16.070 15.450 15.390 14.640 69.160 70.950 10.610 10.160 8.720 9.070 8.600 9.540 0.280 0.190 0.231 0.237     218.700 0.00 1 1 16.490 16.350 15.680 14.850 15.600 11.570 10.770 2.3070 15.960 15.740 15.220 14.370 15.210 9.950 9.400 1.5710 74.55 18.01 20 0                             18.485 12.790 5.701 17.485 12.411 5.079
UPLMET_235 2016-09-29 13:15:00 235 11678.0 16.48 16.440 15.890 15.620 14.830 68.280 70.460 10.620 10.280 8.720 9.070 8.600 9.540 0.280 0.190 0.231 0.237     218.700 0.00 1 1 16.550 16.580 15.970 14.940 15.660 11.660 10.830 2.5210 16.350 16.320 15.770 14.720 15.520 9.590 9.270 1.3360 107.20 25.29 20 0                             18.746 12.798 5.946 17.745 12.511 5.242
UPLMET_235 2016-09-29 13:10:00 235 11678.0 16.30 16.320 15.780 15.550 14.660 69.460 71.530 10.720 10.440 8.720 9.080 8.600 9.540 0.280 0.190 0.231 0.237     218.800 0.00 1 1 16.390 16.460 15.940 14.980 15.650 11.160 11.010 1.5860 16.200 16.170 15.650 14.530 15.470 10.170 10.160 1.0940 97.30 30.30 20 0                             18.532 12.884 5.660 17.665 12.645 5.029
UPLMET_235 2016-09-29 13:05:00 235 11678.0 16.15 16.380 15.800 15.480 14.690 69.940 71.720 10.670 10.400 8.720 9.080 8.600 9.540 0.280 0.190 0.231 0.237     218.700 0.00 1 1 16.350 16.490 15.900 14.980 15.550 11.540 11.360 1.3900 15.960 16.280 15.720 14.510 15.360 10.020 9.300 0.8230 91.90 34.64 20 0                             18.356 12.841 5.518 17.586 12.612 4.973
UPLMET_235 2016-09-29 13:00:00 235 11678.0 16.02 15.980 15.520 15.250 14.400 70.460 72.460 10.670 10.340 8.720 9.080 8.600 9.540 0.280 0.190 0.231 0.237     218.700 0.00 1 1 16.290 16.210 15.680 14.560 15.360 11.100 10.720 1.3900 15.880 15.790 15.350 14.290 15.140 10.390 10.190 0.7820 162.20 42.79 20 0                             18.204 12.841 5.378 17.328 12.561 4.772
UPLMET_235 2016-09-29 12:55:00 235 11678.0 16.38 16.270 15.730 15.410 14.290 68.950 72.150 10.680 10.440 8.720 9.080 8.600 9.540 0.280 0.190 0.231 0.237     218.800 0.00 1 1 16.650 16.500 15.900 14.490 15.450 11.250 10.720 1.1230 16.150 16.030 15.530 14.060 15.380 10.240 10.220 0.6180 82.80 72.05 20 0                             18.627 12.850 5.784 17.507 12.645 4.876
UPLMET_235 2016-09-29 12:50:00 235 11678.0 16.58 16.660 16.020 15.600 14.470 69.790 72.410 11.060 10.660 8.730 9.090 8.600 9.540 0.280 0.190 0.231 0.237     218.800 0.00 1 1 16.680 16.800 16.130 14.690 15.800 11.470 11.180 1.4880 16.490 16.550 15.900 14.260 15.470 10.570 10.340 0.8070 134.30 38.76 20 0                             18.866 13.179 5.699 17.722 12.832 4.889
UPLMET_235 2016-09-29 12:45:00 235 11678.0 16.36 16.710 16.160 15.740 14.930 71.980 73.130 11.310 10.950 8.730 9.090 8.600 9.540 0.280 0.190 0.231 0.237     218.900 0.00 1 1 16.640 17.090 16.500 15.520 15.910 12.140 11.570 1.5590 16.180 16.380 15.880 14.550 15.640 10.490 10.440 0.8680 70.67 33.02 20 0                             18.603 13.399 5.213 17.881 13.083 4.805
UPLMET_235 2016-09-29 12:40:00 235 11678.0 16.07 16.190 15.740 15.410 14.550 71.030 72.810 10.830 10.570 8.730 9.090 8.600 9.540 0.280 0.190 0.231 0.237     218.800 0.00 1 1 16.150 16.410 16.020 14.840 15.580 11.270 10.830 1.3450 16.000 16.030 15.570 14.300 15.270 10.530 10.300 0.7230 73.56 42.72 20 0                             18.263 12.979 5.291 17.507 12.756 4.760
UPLMET_235 2016-09-29 12:35:00 235 11678.0 16.08 16.230 15.680 15.440 14.460 71.460 73.490 10.930 10.740 8.730 9.090 8.600 9.540 0.280 0.190 0.231 0.237     218.800 0.00 1 1 16.260 16.490 15.900 14.790 15.580 11.580 11.320 1.2920 15.960 16.010 15.530 14.110 15.310 10.260 10.290 0.5220 28.77 51.11 20 0                             18.274 13.065 5.215 17.541 12.901 4.650
UPLMET_235 2016-09-29 12:30:00 235 11678.0 15.84 15.980 15.520 15.250 14.280 72.230 73.520 10.860 10.560 8.730 9.100 8.600 9.540 0.280 0.190 0.231 0.237     218.800 0.00 1 1 15.960 16.100 15.740 14.950 15.390 11.550 11.200 1.4520 15.710 15.750 15.320 13.810 15.120 10.310 10.140 0.7800 45.87 74.48 20 0                             17.996 13.004 4.998 17.328 12.747 4.589
UPLMET_235 2016-09-29 12:25:00 235 11678.0 15.45 15.640 15.270 14.980 14.480 75.070 76.250 11.060 10.840 8.740 9.100 8.600 9.540 0.280 0.190 0.231 0.237     218.800 0.00 1 1 15.660 16.170 15.810 15.340 15.340 11.780 11.430 1.6570 15.330 15.300 14.920 13.700 14.780 10.410 10.280 0.6080 18.71 45.90 20 0                             17.552 13.179 4.376 17.030 12.987 4.045
UPLMET_235 2016-09-29 12:20:00 235 11678.0 15.60 15.430 14.950 14.820 13.780 72.060 74.430 10.600 10.330 8.740 9.100 8.600 9.540 0.280 0.190 0.231 0.237     218.800 0.00 1 1 15.870 15.690 15.140 14.050 15.030 10.940 10.580 1.7460 15.470 15.270 14.790 13.610 14.680 10.310 10.140 0.8990 86.90 17.12 20 0                             17.722 12.781 4.951 16.855 12.553 4.310
UPLMET_235 2016-09-29 12:15:00 235 11678.0 16.15 16.020 15.370 15.180 14.120 71.180 73.850 10.930 10.560 8.740 9.100 8.600 9.540 0.280 0.190 0.231 0.237     218.800 0.00 1 1 16.290 16.330 15.630 14.550 15.330 11.530 11.120 1.8000 15.940 15.810 15.170 13.650 15.030 10.330 10.110 0.7050 54.76 73.07 20 0                             18.356 13.065 5.290 17.250 12.747 4.511
UPLMET_235 2016-09-29 12:10:00 235 11678.0 16.22 16.180 15.590 15.290 14.380 72.110 74.710 11.200 10.840 8.750 9.110 8.600 9.540 0.280 0.190 0.231 0.237     218.700 0.00 1 1 16.300 16.350 15.750 14.920 15.360 11.960 11.400 1.3540 16.140 16.030 15.480 13.960 15.240 10.580 10.450 0.5300 352.20 61.58 20 0                             18.438 13.302 5.142 17.373 12.987 4.394
UPLMET_235 2016-09-29 12:05:00 235 11678.0 16.15 16.290 15.730 15.330 14.200 71.390 73.740 10.980 10.680 8.750 9.110 8.600 9.540 0.280 0.190 0.231 0.237     218.800 0.00 1 1 16.250 16.540 15.950 14.720 15.480 11.460 11.310 1.5320 15.990 16.040 15.510 13.840 15.230 10.390 10.200 0.5590 82.90 32.33 20 0                             18.356 13.109 5.252 17.418 12.850 4.574
UPLMET_235 2016-09-29 12:00:00 235 11678.0 15.88 16.200 15.690 15.310 14.040 72.250 73.050 10.900 10.520 8.750 9.110 8.600 9.540 0.280 0.190 0.231 0.237     218.700 0.00 1 1 15.990 16.330 15.810 14.460 15.430 11.470 10.870 0.7840 15.770 16.090 15.600 13.630 15.250 10.340 10.200 0.2500 98.50 45.97 20 0                             18.042 13.039 5.007 17.395 12.713 4.688
UPLMET_235 2016-09-29 11:55:00 235 11678.0 15.67 16.050 15.510 15.250 14.450 72.860 74.180 10.830 10.690 8.760 9.120 8.600 9.540 0.280 0.190 0.231 0.237     218.700 0.00 1 1 15.720 16.280 15.820 14.750 15.410 11.410 11.230 1.1310 15.650 15.810 15.200 13.820 15.080 10.180 10.190 0.3330 309.20 48.94 20 0                             17.801 12.979 4.831 17.328 12.858 4.474
UPLMET_235 2016-09-29 11:50:00 235 11678.0 15.69 15.960 15.350 15.170 13.940 71.920 72.820 10.640 10.340 8.760 9.120 8.600 9.540 0.280 0.190 0.231 0.237     218.600 0.00 1 1 15.770 16.170 15.630 14.370 15.330 11.680 11.070 1.7020 15.590 15.730 15.060 13.490 15.060 10.010 9.900 0.8330 41.47 52.24 20 0                             17.824 12.815 5.005 17.239 12.561 4.686
UPLMET_235 2016-09-29 11:45:00 235 11678.0 15.38 15.690 15.340 15.000 14.140 74.000 75.020 10.780 10.610 8.770 9.120 8.600 9.540 0.280 0.190 0.231 0.237     218.600 0.00 1 1 15.570 15.960 15.650 14.480 15.270 11.430 11.170 0.8200 15.250 15.360 14.970 13.680 14.690 10.270 10.000 0.2150 324.30 65.78 20 0                             17.474 12.935 4.543 17.052 12.790 4.260
UPLMET_235 2016-09-29 11:40:00 235 11678.0 15.19 15.310 14.970 14.670 13.500 73.940 75.600 10.590 10.420 8.770 9.120 8.600 9.540 0.280 0.190 0.231 0.237     218.700 0.00 1 1 15.270 15.380 15.020 13.960 14.720 11.150 10.830 0.6500 15.130 15.240 14.930 13.220 14.620 10.100 10.030 0.1760 97.10 53.89 20 0                             17.262 12.773 4.498 16.693 12.629 4.073
UPLMET_235 2016-09-29 11:35:00 235 11678.0 15.23 15.280 14.870 14.580 13.300 73.100 75.250 10.450 10.260 8.770 9.130 8.600 9.540 0.281 0.190 0.231 0.237     218.600 0.00 1 1 15.300 15.390 14.940 13.900 14.640 11.320 10.850 0.9800 15.120 15.160 14.800 13.070 14.520 9.950 9.850 0.4040 127.80 69.90 20 0                             17.306 12.654 4.655 16.596 12.494 4.108
UPLMET_235 2016-09-29 11:30:00 235 11678.0 15.41 15.540 15.030 14.830 13.740 73.100 74.620 10.630 10.380 8.780 9.130 8.600 9.540 0.281 0.190 0.231 0.237     218.600 0.00 1 1 15.610 15.760 15.240 14.020 15.010 11.420 11.010 1.6750 15.270 15.320 14.850 13.440 14.680 10.070 9.770 0.4690 28.56 46.85 20 0                             17.507 12.807 4.709 16.866 12.595 4.281
UPLMET_235 2016-09-29 11:25:00 235 11678.0 15.75 15.880 15.400 15.140 13.690 71.400 73.580 10.600 10.470 8.780 9.130 8.600 9.540 0.280 0.190 0.231 0.237     218.700 0.00 1 1 15.850 16.080 15.600 14.220 15.300 11.200 11.200 1.6750 15.630 15.580 15.140 13.360 14.950 10.050 10.000 0.5160 35.75 74.61 20 0                             17.893 12.781 5.117 17.206 12.671 4.546
UPLMET_235 2016-09-29 11:20:00 235 11678.0 15.52 15.850 15.400 15.220 14.100 74.020 74.270 10.920 10.680 8.790 9.140 8.600 9.540 0.281 0.190 0.231 0.237     218.700 0.00 1 1 15.630 16.000 15.550 14.410 15.330 11.440 11.220 1.4880 15.440 15.690 15.190 13.660 15.150 10.220 10.090 0.4870 336.40 62.19 20 0                             17.631 13.056 4.581 17.295 12.850 4.450
UPLMET_235 2016-09-29 11:15:00 235 11678.0 15.28 15.560 15.220 15.000 13.920 74.940 75.220 10.880 10.660 8.790 9.140 8.600 9.540 0.281 0.190 0.231 0.237     218.600 0.00 1 1 15.410 15.720 15.430 14.340 15.140 11.270 11.080 1.0780 15.140 15.320 15.020 13.660 14.880 10.550 10.300 0.1710 287.30 55.42 20 0                             17.362 13.022 4.351 17.052 12.832 4.225
UPLMET_235 2016-09-29 11:10:00 235 11678.0 15.17 15.320 14.900 14.790 13.580 75.220 75.850 10.830 10.580 8.800 9.140 8.600 9.540 0.281 0.190 0.231 0.237     218.700 0.00 1 1 15.220 15.420 14.980 14.070 14.860 11.100 10.910 1.1310 15.080 15.240 14.800 13.270 14.720 10.440 10.300 0.3700 270.20 83.90 20 0                             17.239 12.979 4.272 16.823 12.764 4.063
UPLMET_235 2016-09-29 11:05:00 235 11678.0 15.09 15.380 14.970 14.910 13.860 75.700 76.070 10.850 10.740 8.810 9.150 8.600 9.540 0.281 0.190 0.231 0.237     218.700 0.00 1 1 15.210 15.630 15.220 14.200 15.060 11.500 11.210 1.1140 14.990 15.100 14.700 13.500 14.810 10.250 10.150 0.3320 328.30 46.21 20 0                             17.151 12.996 4.168 16.953 12.901 4.057
UPLMET_235 2016-09-29 11:00:00 235 11678.0 14.78 15.130 14.740 14.700 13.540 78.220 77.670 11.030 10.850 8.810 9.150 8.600 9.540 0.281 0.190 0.231 0.237     218.600 0.00 1 1 15.070 15.400 14.920 13.810 14.840 11.620 11.260 0.9980 14.500 14.830 14.560 13.240 14.510 10.520 10.410 0.3240 103.60 55.92 20 0                             16.812 13.152 3.662 16.725 12.996 3.735
UPLMET_235 2016-09-29 10:55:00 235 11678.0 14.76 15.090 14.830 14.800 13.510 77.790 76.740 10.930 10.760 8.820 9.150 8.600 9.540 0.281 0.190 0.231 0.237     218.600 0.00 1 1 14.890 15.410 15.150 14.130 15.050 11.510 11.500 1.8890 14.490 14.670 14.430 13.010 14.450 10.210 10.160 0.5100 92.90 32.40 20 0                             16.790 13.065 3.729 16.834 12.918 3.915
UPLMET_235 2016-09-29 10:50:00 235 11678.0 14.58 15.000 14.730 14.860 13.740 78.740 76.580 10.940 10.800 8.820 9.160 8.600 9.540 0.281 0.190 0.231 0.237     218.600 0.00 1 1 14.790 15.320 15.040 14.240 15.020 11.450 11.530 1.0330 14.420 14.690 14.460 13.220 14.680 10.480 10.100 0.3700 336.70 72.20 20 0                             16.596 13.074 3.528 16.899 12.953 3.958
UPLMET_235 2016-09-29 10:45:00 235 11678.0 14.59 14.940 14.790 14.870 13.620 77.110 74.800 10.630 10.450 8.830 9.160 8.600 9.540 0.281 0.190 0.231 0.237     218.600 0.00 1 1 14.680 15.340 15.160 14.270 15.090 11.040 11.230 1.5860 14.420 14.550 14.420 13.180 14.670 10.190 10.020 0.5430 345.30 78.91 20 0                             16.607 12.807 3.801 16.910 12.654 4.261
UPLMET_235 2016-09-29 10:40:00 235 11678.0 14.55 15.010 14.800 14.700 13.920 78.550 76.360 10.870 10.600 8.830 9.160 8.600 9.540 0.281 0.190 0.231 0.237     218.700 0.00 1 1 14.650 15.330 15.010 14.250 14.850 11.370 11.140 1.0160 14.510 14.770 14.610 13.620 14.580 10.240 10.040 0.3310 296.30 58.95 20 0                             16.564 13.013 3.553 16.725 12.781 3.954
UPLMET_235 2016-09-29 10:35:00 235 11678.0 14.67 14.910 14.830 14.690 13.630 77.410 75.480 10.770 10.410 8.840 9.160 8.600 9.540 0.281 0.190 0.231 0.237     218.700 0.00 1 1 14.860 15.240 15.110 14.050 14.800 11.410 11.030 1.0780 14.530 14.690 14.580 13.300 14.530 9.920 9.870 0.5100 292.60 30.36 20 0                             16.693 12.927 3.771 16.715 12.620 4.098
UPLMET_235 2016-09-29 10:30:00 235 11678.0 14.65 14.770 14.950 14.810 13.650 76.770 75.690 10.630 10.570 8.850 9.170 8.600 9.540 0.281 0.190 0.231 0.237     218.800 0.00 1 1 14.770 14.870 15.160 13.860 14.930 11.090 10.970 1.4340 14.530 14.590 14.740 13.450 14.720 9.880 9.980 0.6570 313.00 39.62 20 0                             16.671 12.807 3.873 16.844 12.756 4.095
UPLMET_235 2016-09-29 10:25:00 235 11678.0 14.86 14.900 14.760 14.500 13.460 78.250 78.540 11.110 10.830 8.860 9.170 8.590 9.540 0.281 0.190 0.231 0.237     218.800 0.00 1 1 14.980 15.090 14.940 13.610 14.670 11.990 11.080 1.1230 14.740 14.610 14.490 13.170 14.310 10.430 10.340 0.4000 326.30 20.34 20 0                             16.899 13.222 3.675 16.511 12.979 3.543
UPLMET_235 2016-09-29 10:20:00 235 11678.0 14.59 14.710 14.710 14.510 13.250 78.990 78.400 10.990 10.800 8.860 9.170 8.590 9.540 0.281 0.190 0.231 0.237     218.700 0.00 1 1 14.790 14.940 14.880 13.670 14.590 11.610 11.470 0.9530 14.420 14.470 14.530 13.010 14.390 10.450 10.130 0.4030 340.90 70.05 20 0                             16.607 13.117 3.489 16.521 12.953 3.569
UPLMET_235 2016-09-29 10:15:00 235 11678.0 14.57 14.460 14.410 14.280 12.870 78.000 79.270 10.790 10.750 8.870 9.180 8.590 9.540 0.281 0.190 0.231 0.237     218.600 0.00 1 1 14.670 14.620 14.610 13.230 14.450 11.260 11.140 0.9710 14.440 14.270 14.180 12.410 14.100 10.290 10.420 0.2150 349.90 63.67 20 0                             16.586 12.944 3.649 16.277 12.910 3.374
UPLMET_235 2016-09-29 10:10:00 235 11678.0 14.49 14.350 14.320 14.230 12.980 78.880 79.340 10.880 10.710 8.880 9.180 8.590 9.540 0.281 0.190 0.231 0.237     218.600 0.00 1 1 14.720 14.490 14.410 13.200 14.300 11.350 11.160 1.1050 14.390 14.230 14.170 12.680 14.150 10.440 10.240 0.4770 354.40 51.60 20 0                             16.500 13.022 3.485 16.225 12.875 3.352
UPLMET_235 2016-09-29 10:05:00 235 11678.0 14.57 14.550 14.570 14.130 13.090 79.250 79.790 11.030 10.700 8.880 9.180 8.590 9.540 0.281 0.190 0.231 0.237     218.600 0.00 1 1 14.750 14.650 14.720 13.290 14.260 11.470 11.180 1.0250 14.420 14.470 14.480 12.800 14.000 10.460 10.330 0.2730 279.30 55.17 20 0                             16.586 13.152 3.442 16.120 12.867 3.258
UPLMET_235 2016-09-29 10:00:00 235 11678.0 14.46 14.380 14.240 13.830 12.870 79.360 81.600 10.940 10.750 8.890 9.190 8.590 9.540 0.281 0.190 0.231 0.237     218.500 0.00 1 1 14.600 14.540 14.460 13.130 14.020 11.340 11.130 0.8550 14.310 14.190 13.940 12.630 13.520 10.340 10.490 0.2310 326.70 52.34 20 0                             16.468 13.074 3.399 15.809 12.910 2.909
UPLMET_235 2016-09-29 09:55:00 235 11678.0 14.14 13.840 13.480 13.260 12.310 80.600 83.500 10.870 10.540 8.900 9.190 8.590 9.540 0.281 0.190 0.231 0.237     218.700 0.00 1 1 14.270 14.070 13.800 12.860 13.490 11.170 11.000 1.3900 14.030 13.630 13.220 11.840 13.080 10.360 9.980 0.3290 38.33 43.22 20 0                             16.130 13.013 3.129 15.233 12.730 2.513
UPLMET_235 2016-09-29 09:50:00 235 11678.0 14.06 13.670 13.310 13.200 11.940 78.680 80.900 10.420 10.010 8.910 9.190 8.590 9.540 0.281 0.190 0.231 0.237     218.700 0.00 1 1 14.210 13.910 13.540 12.040 13.380 10.900 10.350 1.4520 13.980 13.570 13.180 11.850 13.100 10.090 9.790 0.8850 70.95 15.40 20 0                             16.047 12.629 3.421 15.173 12.287 2.898
UPLMET_235 2016-09-29 09:45:00 235 11678.0 14.12 14.030 13.650 13.360 12.000 81.700 82.500 11.040 10.450 8.910 9.190 8.590 9.540 0.281 0.190 0.231 0.237     218.800 0.00 1 1 14.240 14.110 13.760 12.170 13.430 11.520 11.150 0.9270 14.010 13.940 13.580 11.860 13.270 10.660 10.050 0.3990 69.64 8.17 20 0                             16.110 13.161 2.948 15.333 12.654 2.683
UPLMET_235 2016-09-29 09:40:00 235 11678.0 14.06 14.170 13.520 13.260 11.860 79.270 80.700 10.530 10.030 8.920 9.200 8.590 9.540 0.281 0.190 0.231 0.236     218.700 0.00 1 1 14.180 14.430 13.790 12.040 13.400 11.210 10.850 1.1670 13.960 13.960 13.380 11.680 13.100 9.820 9.640 0.3170 50.54 8.21 20 0                             16.047 12.722 3.327 15.233 12.303 2.940
UPLMET_235 2016-09-29 09:35:00 235 11678.0 13.68 14.330 13.630 13.230 11.830 84.300 82.900 11.090 10.390 8.930 9.200 8.590 9.540 0.281 0.190 0.231 0.236     218.800 0.00 1 1 14.040 15.680 13.750 12.100 13.300 11.860 10.830 0.7570 13.400 13.930 13.520 11.580 13.180 10.450 10.030 0.3450 76.48 23.98 20 0                             15.656 13.205 2.458 15.203 12.603 2.600
UPLMET_235 2016-09-29 09:30:00 235 11678.0 13.09 14.370 13.400 13.100 11.960 84.100 83.000 10.480 10.290 8.940 9.200 8.590 9.540 0.281 0.190 0.231 0.236     218.800 0.00 1 1 13.310   13.640 12.160 13.230 11.150 10.870 1.2210 12.970   13.230 11.700 12.960 9.870 9.850 0.5770 303.40 36.20 20 0                             15.065 12.679 2.395 15.075 12.519 2.563
UPLMET_235 2016-09-29 09:25:00 235 11678.0 12.80 14.410 12.970 12.720 11.330 86.300 85.800 10.580 10.410 8.940 9.210 8.590 9.540 0.281 0.190 0.231 0.236     218.800 0.00 1 1 12.910 15.580 13.280 11.850 12.910 11.070 10.880 1.0250 12.740 13.860 12.710 11.040 12.570 9.840 9.930 0.3300 300.90 19.57 20 0                             14.782 12.764 2.025 14.704 12.620 2.088
UPLMET_235 2016-09-29 09:20:00 235 11678.0 12.75 13.610 12.690 12.490 11.090 85.300 85.200 10.340 10.090 8.950 9.210 8.590 9.540 0.281 0.190 0.231 0.236     218.800 0.00 1 1 12.810 13.970 12.800 11.370 12.550 10.980 10.560 1.0690 12.710 13.420 12.590 10.870 12.400 9.860 9.650 0.2800 351.10 65.30 20 0                             14.733 12.561 2.166 14.484 12.353 2.144
UPLMET_235 2016-09-29 09:15:00 235 11678.0 12.68 13.390 12.770 12.640 10.970 87.000 85.900 10.580 10.360 8.960 9.210 8.590 9.540 0.281 0.190 0.231 0.236     218.800 0.00 1 1 12.760 13.710 12.830 11.170 12.750 10.850 10.630 0.5700 12.630 13.160 12.680 10.830 12.550 10.270 10.110 0.0810 79.44 10.85 20 0                             14.666 12.764 1.907 14.627 12.578 2.062
UPLMET_235 2016-09-29 09:10:00 235 11678.0 12.77 22.560 12.730 12.580 10.940 87.200 86.700 10.710 10.440 8.970 9.210 8.590 9.550 0.281 0.190 0.231 0.236     218.800 0.00 1 1 12.820 55.510 12.790 11.110 12.730 11.060 10.650 0.6770 12.690 13.320 12.640 10.740 12.440 10.240 10.210 0.1520 359.40 31.38 20 0                             14.753 12.875 1.888 14.570 12.645 1.938
UPLMET_235 2016-09-29 09:05:00 235 11678.0 12.74 15.530 12.700 12.510 10.770 87.500 86.100 10.730 10.270 8.980 9.220 8.590 9.550 0.281 0.190 0.231 0.236     218.900 0.00 1 1 12.870 16.690 12.800 10.960 12.610 11.080 10.380 0.2940 12.690 14.720 12.650 10.630 12.380 10.380 10.110 0.0860 49.93 12.06 20 0                             14.724 12.892 1.840 14.503 12.503 2.016
UPLMET_235 2016-09-29 09:00:00 235 11678.0 13.02 6.156 12.910 12.700 10.870 86.000 86.100 10.740 10.440 8.980 9.220 8.590 9.550 0.281 0.190 0.231 0.236     218.700 0.00 1 1 13.170 47.840 12.970 11.030 12.770 11.040 10.630 0.6770 12.910 -273.200 12.870 10.750 12.610 10.460 10.250 0.0830 2.81 43.07 20 0                             14.996 12.901 2.099 14.685 12.645 2.041
UPLMET_235 2016-09-29 08:55:00 235 11678.0 13.03 17.220 12.870 12.650 10.830 87.300 86.500 10.980 10.470 8.990 9.220 8.590 9.540 0.281 0.190 0.231 0.236     218.800 0.00 1 1 13.160 33.970 12.970 11.080 12.720 11.350 10.790 1.0600 12.870 14.710 12.740 10.630 12.600 10.620 10.200 0.2980 74.64 15.30 20 0                             15.006 13.109 1.906 14.637 12.671 1.976
UPLMET_235 2016-09-29 08:50:00 235 11678.0 12.60 29.150 12.690 12.540 10.640 88.700 87.600 10.800 10.550 9.000 9.230 8.590 9.550 0.281 0.190 0.231 0.236     218.600 0.00 1 1 12.820 145.000 12.830 11.190 12.640 11.240 10.890 0.6060 12.410 14.670 12.500 10.230 12.350 10.520 10.320 0.1830 89.40 26.26 20 0                             14.589 12.953 1.649 14.532 12.739 1.802
UPLMET_235 2016-09-29 08:45:00 235 11678.0 12.36 13.990 12.360 12.170 10.320 89.100 89.000 10.640 10.410 9.010 9.230 8.590 9.550 0.281 0.190 0.231 0.236     218.800 0.00 1 1 12.410 14.420 12.480 10.450 12.350 10.800 10.590 0.0620 12.320 13.620 12.210 10.190 12.040 10.440 10.240 0.0040 279.60 0.01 20 0                             14.361 12.815 1.565 14.182 12.620 1.560
UPLMET_235 2016-09-29 08:40:00 235 11678.0 12.20 13.740 12.050 11.980 10.390 90.800 88.900 10.760 10.210 9.020 9.230 8.590 9.550 0.281 0.190 0.231 0.236     218.900 0.00 1 1 12.320 14.640 12.170 10.580 12.050 11.040 10.530 0.6860 12.100 12.910 11.960 10.220 11.930 10.570 9.990 0.2800 63.76 11.73 20 0                             14.211 12.918 1.307 14.006 12.453 1.555
UPLMET_235 2016-09-29 08:35:00 235 11678.0 11.96 12.640 11.860 11.850 10.410 91.300 90.600 10.600 10.370 9.030 9.230 8.590 9.550 0.281 0.190 0.231 0.236     218.700 0.00 1 1 12.070 12.880 12.050 10.670 11.970 10.860 10.620 0.5260 11.900 12.480 11.760 10.250 11.770 10.260 10.180 0.1720 277.70 51.01 20 0                             13.988 12.781 1.217 13.886 12.586 1.305
UPLMET_235 2016-09-29 08:30:00 235 11678.0 11.87 13.550 11.750 11.730 10.520 91.400 90.300 10.520 10.210 9.030 9.240 8.590 9.550 0.281 0.190 0.231 0.236     218.600 0.00 1 1 11.950 14.340 11.820 10.720 11.790 10.700 10.370 1.0510 11.770 12.680 11.700 10.300 11.700 10.320 10.060 0.4050 63.01 6.42 20 0                             13.905 12.713 1.196 13.777 12.453 1.336
UPLMET_235 2016-09-29 08:25:00 235 11678.0 11.52 12.650 11.680 11.680 10.460 93.800 90.300 10.560 10.150 9.040 9.240 8.590 9.550 0.281 0.190 0.231 0.236     218.800 0.00 1 1 11.730   11.760 10.570 11.720 10.870 10.290 1.1670 11.210   11.490 10.310 11.570 10.410 10.030 0.6860 79.55 9.85 20 0                             13.587 12.747 0.842 13.731 12.403 1.332
UPLMET_235 2016-09-29 08:20:00 235 11678.0 10.84 11.750 11.090 11.230 10.260 95.900 93.200 10.220 10.180 9.050 9.240 8.590 9.550 0.281 0.190 0.231 0.236     218.800 0.00 1 1 11.130 12.480 11.440 10.420 11.530 10.440 10.370 0.6150 10.600 11.380 10.780 10.110 10.910 10.080 10.070 0.1060 74.10 0.02 20 0                             12.987 12.461 0.532 13.328 12.428 0.906
UPLMET_235 2016-09-29 08:15:00 235 11678.0 10.46 11.250 10.760 10.750 10.010 97.100 93.900 10.020 9.820 9.060 9.240 8.590 9.550 0.281 0.190 0.231 0.236     218.800 0.00 1 1 10.570 11.330 10.830 10.090 10.860 10.140 10.020 0.7570 10.350 11.160 10.720 9.900 10.710 9.950 9.750 0.4950 75.04 1.19 20 0                             12.662 12.295 0.367 12.910 12.131 0.787
UPLMET_235 2016-09-29 08:10:00 235 11678.0 10.06 10.820 10.580 10.570 9.890 98.700 95.000 9.870 9.810 9.070 9.250 8.590 9.550 0.281 0.190 0.231 0.236     218.700 0.00 1 1 10.310 11.140 10.820 10.040 10.720 10.100 9.970 0.9710 9.910 10.570 10.340 9.770 10.400 9.720 9.680 0.5740 74.76 2.28 20 0                             12.328 12.172 0.160 12.756 12.123 0.638
UPLMET_235 2016-09-29 08:05:00 235 11678.0 9.84 10.500 10.110 10.270 9.750 99.100 96.700 9.710 9.780 9.070 9.250 8.590 9.550 0.281 0.190 0.231 0.236     218.600 0.00 1 1 9.900 10.560 10.310 9.800 10.410 9.740 9.900 1.0330 9.790 10.460 10.000 9.690 10.120 9.680 9.680 0.8130 82.30 8.43 20 0                             12.148 12.042 0.109 12.503 12.099 0.413
UPLMET_235 2016-09-29 08:00:00 235 11678.0 9.77 10.430 9.990 10.120 9.720 99.300 96.700 9.680 9.630 9.080 9.250 8.590 9.550 0.281 0.190 0.231 0.236     218.700 0.00 1 1 9.820 10.460 10.000 9.760 10.140 9.720 9.690 0.9180 9.740 10.390 9.970 9.660 10.100 9.650 9.590 0.4780 78.47 4.00 20 0                             12.091 12.018 0.085 12.378 11.978 0.408
UPLMET_235 2016-09-29 07:55:00 235 11678.0 9.72 10.360 9.970 10.100 9.650 99.400 96.400 9.650 9.560 9.090 9.250 8.590 9.550 0.281 0.190 0.231 0.236     218.600 0.00 1 1 9.750 10.380 9.990 9.720 10.120 9.670 9.590 0.0000 9.700 10.340 9.960 9.570 10.080 9.620 9.520 0.0000 0.00 0.00 20 0                             12.050 11.994 0.072 12.361 11.921 0.445
UPLMET_235 2016-09-29 07:50:00 235 11678.0 9.75 10.320 10.000 10.200 9.550 99.600 95.900 9.700 9.580 9.100 9.260 8.590 9.550 0.281 0.190 0.231 0.236     218.600 0.00 1 1 9.790 10.330 10.010 9.570 10.280 9.750 9.630 0.8020 9.710 10.310 9.990 9.540 10.120 9.650 9.520 0.4560 58.88 1.27 20 0                             12.075 12.034 0.048 12.444 11.937 0.510
UPLMET_235 2016-09-29 07:45:00 235 11678.0 9.85 10.410 10.060 10.330 9.610 99.900 96.200 9.850 9.750 9.110 9.260 8.590 9.550 0.281 0.190 0.231 0.236     218.500 0.00 1 1 9.880 10.450 10.130 9.730 10.360 9.890 9.820 0.8910 9.800 10.340 9.990 9.540 10.280 9.770 9.650 0.1320 61.17 0.05 20 0                             12.156 12.156 0.012 12.553 12.075 0.477
UPLMET_235 2016-09-29 07:40:00 235 11678.0 9.89 10.480 10.230 10.430 9.820 100.000 95.800 9.900 9.800 9.120 9.260 8.580 9.550 0.281 0.190 0.231 0.236     218.600 0.00 1 1 9.920 10.520 10.340 9.910 10.510 9.930 9.820 0.8820 9.870 10.460 10.150 9.760 10.370 9.880 9.770 0.3640 60.52 10.15 20 0                             12.189 12.197 0.000 12.637 12.115 0.531
UPLMET_235 2016-09-29 07:35:00 235 11678.0 9.92 10.550 10.400 10.590 10.080 100.000 95.200 9.930 9.860 9.130 9.260 8.580 9.550 0.281 0.190 0.231 0.236     218.500 0.00 1 1 9.950 10.560 10.440 10.190 10.640 9.960 9.900 0.8370 9.900 10.520 10.340 9.950 10.540 9.910 9.820 0.5450 66.84 10.34 20 0                             12.213 12.221 -0.000 12.773 12.164 0.613
UPLMET_235 2016-09-29 07:30:00 235 11678.0 9.89 10.530 10.200 10.640 10.080 100.000 95.600 9.900 9.970 9.130 9.270 8.580 9.550 0.281 0.190 0.231 0.236     218.500 0.00 1 1 9.900 10.540 10.310 10.190 10.660 9.910 10.070 0.5970 9.860 10.530 10.160 10.020 10.610 9.870 9.860 0.2830 90.20 46.77 20 0                             12.189 12.197 0.000 12.815 12.254 0.564
UPLMET_235 2016-09-29 07:25:00 235 11678.0 9.84 10.510 10.160 10.560 10.030 100.000 96.800 9.850 10.080 9.140 9.270 8.590 9.550 0.281 0.190 0.231 0.236     218.500 0.00 1 1 9.860 10.530 10.180 10.070 10.600 9.870 10.170 0.0000 9.810 10.500 10.110 9.940 10.530 9.810 10.010 0.0000 0.00 0.00 20 0                             12.148 12.156 -0.000 12.747 12.345 0.408
UPLMET_235 2016-09-29 07:20:00 235 11678.0 9.75 10.460 10.090 10.510 10.100 100.000 98.000 9.760 10.220 9.150 9.270 8.580 9.550 0.281 0.190 0.231 0.236     218.500 0.00 1 1 9.810 10.510 10.110 10.160 10.540 9.810 10.260 0.0000 9.700 10.430 10.080 9.960 10.460 9.710 10.160 0.0000 0.00 0.00 20 0                             12.075 12.083 0.000 12.705 12.461 0.254
UPLMET_235 2016-09-29 07:15:00 235 11678.0 9.64 10.410 10.060 10.400 10.110 100.000 99.500 9.650 10.330 9.160 9.270 8.580 9.550 0.281 0.190 0.231 0.236     218.600 0.00 1 1 9.710 10.430 10.110 10.230 10.490 9.720 10.380 0.0000 9.550 10.370 9.970 9.870 10.300 9.560 10.240 0.0000 0.00 0.00 20 0                             11.986 11.994 0.000 12.612 12.553 0.063
UPLMET_235 2016-09-29 07:10:00 235 11678.0 9.46 10.280 9.810 10.070 9.790 100.000 100.000 9.470 10.070 9.170 9.280 8.580 9.550 0.281 0.190 0.231 0.236     218.500 0.00 1 1 9.530 10.360 9.950 9.820 10.270 9.540 10.270 0.0000 9.410 10.240 9.690 9.760 9.820 9.410 9.830 0.0000 0.00 0.00 20 0                             11.841 11.849 0.000 12.336 12.336 0.000
UPLMET_235 2016-09-29 07:05:00 235 11678.0 9.36 10.240 9.680 9.720 9.770 100.000 100.000 9.360 9.720 9.180 9.280 8.580 9.550 0.281 0.190 0.231 0.236     218.500 0.00 1 1 9.410 10.250 9.680 9.890 9.800 9.420 9.800 0.0000 9.250 10.200 9.670 9.530 9.650 9.260 9.660 0.0000 0.00 0.00 20 0                             11.762 11.762 0.000 12.050 12.050 0.000
UPLMET_235 2016-09-29 07:00:00 235 11678.0 9.09 10.030 9.560 9.580 9.400 100.000 100.000 9.100 9.590 9.180 9.280 8.580 9.550 0.281 0.190 0.231 0.236     218.600 0.00 1 1 9.230 10.180 9.660 9.450 9.640 9.240 9.650 0.0000 8.960 9.900 9.420 9.310 9.500 8.960 9.510 0.0000 0.00 0.00 20 0                             11.550 11.558 0.000 11.937 11.945 0.000
UPLMET_235 2016-09-29 06:55:00 235 11678.0 8.86 9.820 9.360 9.440 9.260 100.000 100.000 8.870 9.450 9.190 9.280 8.580 9.550 0.281 0.190 0.231 0.236     218.600 0.00 1 1 8.940 9.890 9.410 9.280 9.490 8.940 9.500 0.0000 8.780 9.750 9.300 9.210 9.390 8.790 9.390 0.0000 0.00 0.00 20 0                             11.372 11.379 0.000 11.826 11.833 0.000
UPLMET_235 2016-09-29 06:50:00 235 11678.0 8.72 9.690 9.270 9.340 9.160 100.000 100.000 8.720 9.350 9.200 9.280 8.580 9.550 0.281 0.190 0.231 0.236     218.400 0.00 1 1 8.770 9.730 9.290 9.200 9.400 8.780 9.400 0.0000 8.660 9.670 9.240 9.140 9.290 8.670 9.300 0.0000 0.00 0.00 20 0                             11.264 11.264 0.000 11.746 11.754 0.000
UPLMET_235 2016-09-29 06:45:00 235 11678.0 8.56 9.530 9.090 9.150 9.040 100.000 100.000 8.570 9.150 9.210 9.290 8.580 9.550 0.281 0.190 0.231 0.236     218.500 0.00 1 1 8.640 9.670 9.220 9.200 9.270 8.650 9.280 0.0000 8.460 9.410 8.960 8.870 9.020 8.470 9.030 0.0000 0.00 0.00 20 0                             11.143 11.151 0.000 11.597 11.597 0.000
UPLMET_235 2016-09-29 06:40:00 235 11678.0 8.31 9.280 8.840 8.900 8.740 100.000 100.000 8.320 8.910 9.220 9.290 8.580 9.550 0.281 0.190 0.231 0.236     218.500 0.00 1 1 8.450 9.400 8.940 8.850 9.020 8.460 9.020 0.2580 8.200 9.170 8.740 8.620 8.800 8.210 8.810 0.0780 227.70 0.02 20 0                             10.956 10.963 -0.000 11.402 11.410 -0.000
UPLMET_235 2016-09-29 06:35:00 235 11678.0 8.07 9.010 8.620 8.720 8.440 100.000 100.000 8.070 8.720 9.230 9.290 8.580 9.550 0.281 0.190 0.231 0.236     218.500 0.00 1 1 8.160 9.150 8.720 8.610 8.790 8.170 8.800 0.3210 8.020 8.930 8.540 8.310 8.670 8.020 8.670 0.1560 227.70 0.02 20 0                             10.778 10.778 0.000 11.264 11.264 0.000
UPLMET_235 2016-09-29 06:30:00 235 11678.0 8.08 8.990 8.570 8.680 8.340 100.000 100.000 8.080 8.680 9.240 9.290 8.580 9.550 0.281 0.190 0.231 0.236     218.500 0.00 1 1 8.120 9.040 8.600 8.380 8.690 8.120 8.700 0.2490 8.020 8.930 8.540 8.280 8.660 8.030 8.670 0.0180 227.70 0.00 20 0                             10.786 10.786 0.000 11.234 11.234 0.000
UPLMET_235 2016-09-29 06:25:00 235 11678.0 8.05 9.020 8.570 8.620 8.370 100.000 100.000 8.050 8.630 9.240 9.300 8.580 9.550 0.281 0.190 0.231 0.236     218.500 0.00 1 1 8.120 9.040 8.600 8.390 8.670 8.120 8.670 0.3740 7.972 8.980 8.540 8.350 8.590 7.979 8.590 0.1610 227.70 0.00 20 0                             10.764 10.764 0.000 11.188 11.196 0.000
UPLMET_235 2016-09-29 06:20:00 235 11678.0 7.86 8.910 8.480 8.540 8.280 100.000 100.000 7.866 8.550 9.250 9.300 8.580 9.550 0.281 0.190 0.231 0.236     218.500 0.00 1 1 7.972 8.970 8.540 8.360 8.590 7.979 8.590 0.4100 7.704 8.800 8.400 8.210 8.480 7.711 8.480 0.3320 227.70 0.03 20 0                             10.624 10.629 0.000 11.128 11.135 0.000
UPLMET_235 2016-09-29 06:15:00 235 11678.0 7.63 8.660 8.310 8.440 8.060 100.000 100.000 7.632 8.440 9.260 9.300 8.580 9.550 0.281 0.190 0.231 0.236     218.600 0.00 1 1 7.671 8.770 8.390 8.200 8.490 7.677 8.490 0.3300 7.602 8.620 8.260 7.977 8.400 7.608 8.410 0.2840 227.70 0.02 20 0                             10.457 10.461 0.000 11.053 11.053 0.000
UPLMET_235 2016-09-29 06:10:00 235 11678.0 7.61 8.580 8.220 8.370 7.966 100.000 100.000 7.617 8.380 9.270 9.300 8.580 9.550 0.281 0.190 0.231 0.236     218.500 0.00 1 1 7.638 8.660 8.270 8.030 8.400 7.645 8.410 0.3830 7.589 8.540 8.170 7.905 8.340 7.595 8.350 0.3200 227.80 0.03 20 0                             10.446 10.450 0.000 11.000 11.008 0.000
UPLMET_235 2016-09-29 06:05:00 235 11678.0 7.74 8.680 8.250 8.380 7.996 100.000 100.000 7.742 8.390 9.280 9.300 8.580 9.550 0.281 0.190 0.231 0.236     218.600 0.00 1 1 7.813 8.750 8.290 8.040 8.390 7.820 8.400 0.4010 7.658 8.600 8.180 7.936 8.370 7.664 8.380 0.3430 227.70 0.00 20 0                             10.536 10.540 0.000 11.008 11.015 0.000
UPLMET_235 2016-09-29 06:00:00 235 11678.0 7.88 8.840 8.320 8.410 8.110 100.000 100.000 7.891 8.410 9.280 9.300 8.580 9.550 0.281 0.190 0.231 0.236     218.600 0.00 1 1 7.915 8.870 8.340 8.150 8.440 7.922 8.440 0.4280 7.839 8.770 8.290 8.040 8.390 7.846 8.390 0.2700 227.70 0.02 20 0                             10.643 10.648 0.000 11.030 11.030 0.000
UPLMET_235 2016-09-29 05:55:00 235 11678.0 7.88 8.790 8.260 8.400 8.040 100.000 100.000 7.886 8.410 9.290 9.310 8.580 9.550 0.281 0.190 0.231 0.236     218.600 0.00 1 1 7.951 8.860 8.280 8.110 8.440 7.958 8.450 0.4010 7.836 8.750 8.240 7.993 8.370 7.842 8.380 0.0720 227.70 0.01 20 0                             10.640 10.644 -0.000 11.023 11.030 0.000
UPLMET_235 2016-09-29 05:50:00 235 11678.0 7.99 8.900 8.330 8.490 8.120 100.000 100.000 7.993 8.500 9.300 9.310 8.580 9.550 0.281 0.190 0.231 0.236     218.500 0.00 1 1 8.020 8.930 8.370 8.170 8.570 8.030 8.570 0.0000 7.945 8.870 8.300 8.070 8.440 7.951 8.440 0.0000 0.00 0.00 20 0                             10.717 10.722 0.000 11.090 11.098 0.000
UPLMET_235 2016-09-29 05:45:00 235 11678.0 8.06 8.990 8.450 8.620 8.260 100.000 100.000 8.070 8.630 9.310 9.310 8.580 9.550 0.281 0.190 0.231 0.236     218.500 0.00 1 1 8.110 9.070 8.520 8.320 8.680 8.120 8.690 0.0000 8.010 8.910 8.380 8.190 8.580 8.020 8.580 0.0000 0.00 0.00 20 0                             10.771 10.778 0.000 11.188 11.196 0.000
UPLMET_235 2016-09-29 05:40:00 235 11678.0 8.10 9.090 8.570 8.730 8.400 100.000 100.000 8.110 8.740 9.320 9.310 8.580 9.550 0.281 0.190 0.231 0.236     218.500 0.00 1 1 8.130 9.110 8.610 8.460 8.770 8.140 8.780 0.0000 8.080 9.070 8.530 8.350 8.680 8.090 8.690 0.0000 0.00 0.00 20 0                             10.800 10.808 0.000 11.272 11.280 0.000
UPLMET_235 2016-09-29 05:35:00 235 11678.0 8.13 9.170 8.680 8.850 8.490 100.000 100.000 8.140 8.860 9.330 9.310 8.580 9.550 0.281 0.190 0.231 0.236     218.500 0.00 1 1 8.150 9.220 8.720 8.540 8.910 8.160 8.920 0.0000 8.100 9.090 8.620 8.440 8.800 8.110 8.810 0.0000 0.00 0.00 20 0                             10.822 10.830 -0.000 11.364 11.372 0.000
UPLMET_235 2016-09-29 05:30:00 235 11678.0 8.19 9.330 8.810 8.930 8.570 100.000 100.000 8.200 8.940 9.330 9.320 8.580 9.550 0.281 0.190 0.231 0.236     218.500 0.00 1 1 8.210 9.370 8.830 8.650 8.960 8.220 8.970 0.2050 8.150 9.240 8.740 8.460 8.900 8.160 8.910 0.0400 227.80 0.01 20 0                             10.867 10.874 0.000 11.426 11.433 0.000
UPLMET_235 2016-09-29 05:25:00 235 11678.0 8.21 9.330 8.810 8.960 8.570 100.000 100.000 8.210 8.970 9.340 9.320 8.580 9.550 0.281 0.190 0.231 0.236     218.500 0.00 1 1 8.230 9.380 8.880 8.630 9.010 8.240 9.020 0.3470 8.190 9.280 8.780 8.510 8.920 8.200 8.930 0.2370 227.80 0.03 20 0                             10.881 10.881 0.000 11.449 11.457 0.000
UPLMET_235 2016-09-29 05:20:00 235 11678.0 8.21 9.390 8.890 9.010 8.690 100.000 100.000 8.220 9.020 9.350 9.320 8.580 9.550 0.281 0.190 0.231 0.236     218.500 0.00 1 1 8.230 9.440 8.950 8.730 9.050 8.240 9.050 0.3210 8.200 9.370 8.860 8.620 9.000 8.210 9.010 0.1180 227.80 0.00 20 0                             10.881 10.889 0.000 11.488 11.495 -0.000
UPLMET_235 2016-09-29 05:15:00 235 11678.0 8.22 9.380 8.890 9.010 8.680 100.000 100.000 8.230 9.010 9.360 9.320 8.580 9.550 0.281 0.190 0.231 0.236     218.600 0.00 1 1 8.240 9.420 8.950 8.760 9.030 8.240 9.040 0.4370 8.190 9.350 8.850 8.610 8.970 8.200 8.980 0.1980 227.70 0.01 20 0                             10.889 10.896 0.000 11.488 11.488 -0.000
UPLMET_235 2016-09-29 05:10:00 235 11678.0 8.22 9.370 8.880 9.040 8.600 100.000 100.000 8.220 9.050 9.370 9.320 8.580 9.550 0.281 0.190 0.231 0.236     218.500 0.00 1 1 8.260 9.420 8.920 8.620 9.080 8.270 9.080 0.3030 8.190 9.340 8.850 8.580 9.020 8.200 9.030 0.2310 227.70 0.03 20 0                             10.889 10.889 0.000 11.511 11.519 -0.000
UPLMET_235 2016-09-29 05:05:00 235 11678.0 8.22 9.450 8.950 9.040 8.740 100.000 100.000 8.220 9.050 9.370 9.320 8.580 9.550 0.281 0.190 0.231 0.236     218.500 0.00 1 1 8.260 9.530 9.010 8.850 9.080 8.270 9.090 0.4100 8.170 9.350 8.890 8.630 8.990 8.170 8.990 0.2900 227.70 0.03 20 0                             10.889 10.889 0.000 11.511 11.519 -0.000
UPLMET_235 2016-09-29 05:00:00 235 11678.0 8.21 9.310 8.840 8.970 8.590 100.000 100.000 8.220 8.980 9.380 9.330 8.580 9.550 0.281 0.190 0.231 0.236     218.400 0.00 1 1 8.260 9.360 8.900 8.660 9.010 8.270 9.020 0.4190 8.180 9.260 8.770 8.500 8.950 8.180 8.960 0.3020 227.70 0.00 20 0                             10.881 10.889 0.000 11.457 11.464 0.000
UPLMET_235 2016-09-29 04:55:00 235 11678.0 8.38 9.440 8.880 9.040 8.620 100.000 100.000 8.390 9.040 9.390 9.330 8.580 9.550 0.281 0.190 0.231 0.236     218.600 0.00 1 1 8.500 9.570 8.930 8.720 9.060 8.510 9.070 0.3030 8.260 9.280 8.780 8.480 8.990 8.270 8.990 0.1830 227.70 0.02 20 0                             11.008 11.015 0.000 11.511 11.511 -0.000
UPLMET_235 2016-09-29 04:50:00 235 11678.0 8.51 9.590 8.970 9.090 8.750 100.000 100.000 8.520 9.090 9.400 9.330 8.580 9.550 0.281 0.190 0.231 0.236     218.600 0.00 1 1 8.540 9.620 9.000 8.800 9.120 8.550 9.120 0.1510 8.480 9.570 8.920 8.730 9.060 8.490 9.060 0.0080 227.70 0.00 20 0                             11.105 11.113 0.000 11.550 11.550 0.000
UPLMET_235 2016-09-29 04:45:00 235 11678.0 8.50 9.610 9.010 9.120 8.810 100.000 100.000 8.510 9.130 9.400 9.330 8.580 9.550 0.281 0.190 0.231 0.236     218.500 0.00 1 1 8.560 9.630 9.010 8.840 9.140 8.570 9.140 0.3390 8.430 9.590 9.000 8.770 9.100 8.440 9.110 0.1170 227.80 0.01 20 0                             11.098 11.105 -0.000 11.573 11.581 -0.000
UPLMET_235 2016-09-29 04:40:00 235 11678.0 8.43 9.580 9.020 9.150 8.780 100.000 100.000 8.440 9.160 9.410 9.330 8.580 9.550 0.281 0.190 0.231 0.236     218.600 0.00 1 1 8.460 9.600 9.040 8.820 9.170 8.460 9.180 0.3650 8.410 9.560 9.010 8.740 9.130 8.420 9.140 0.2980 227.70 0.02 20 0                             11.045 11.053 -0.000 11.597 11.604 0.000
UPLMET_235 2016-09-29 04:35:00 235 11678.0 8.48 9.560 9.010 9.170 8.810 100.000 100.000 8.490 9.180 9.420 9.330 8.580 9.550 0.281 0.190 0.231 0.236     218.600 0.00 1 1 8.580 9.640 9.060 8.860 9.210 8.590 9.220 0.3920 8.410 9.520 8.980 8.760 9.130 8.420 9.140 0.2880 227.70 0.00 20 0                             11.083 11.090 0.000 11.612 11.620 0.000
UPLMET_235 2016-09-29 04:30:00 235 11678.0 8.60 9.780 9.160 9.230 8.930 100.000 100.000 8.610 9.240 9.430 9.330 8.580 9.550 0.281 0.190 0.231 0.236     218.500 0.00 1 1 8.660 9.810 9.190 9.000 9.250 8.660 9.260 0.3030 8.520 9.690 9.070 8.790 9.200 8.530 9.210 0.2520 227.70 0.01 20 0                             11.173 11.181 0.000 11.659 11.667 0.000
UPLMET_235 2016-09-29 04:25:00 235 11678.0 8.43 9.650 9.090 9.210 8.850 100.000 100.000 8.440 9.220 9.440 9.340 8.580 9.550 0.281 0.190 0.231 0.236     218.400 0.00 1 1 8.490 9.760 9.180 8.940 9.250 8.490 9.260 0.4810 8.390 9.520 9.020 8.740 9.190 8.400 9.190 0.4030 227.70 0.02 20 0                             11.045 11.053 -0.000 11.644 11.652 -0.000
UPLMET_235 2016-09-29 04:20:00 235 11678.0 8.51 9.590 9.090 9.280 8.790 100.000 100.000 8.520 9.280 9.440 9.340 8.580 9.550 0.281 0.190 0.231 0.236     218.500 0.00 1 1 8.600 9.700 9.150 8.840 9.330 8.600 9.340 0.4540 8.430 9.510 9.030 8.730 9.220 8.440 9.220 0.3960 227.70 0.02 20 0                             11.105 11.113 0.000 11.699 11.699 0.000
UPLMET_235 2016-09-29 04:15:00 235 11678.0 8.67 9.830 9.230 9.360 8.980 100.000 100.000 8.680 9.370 9.450 9.340 8.580 9.550 0.281 0.190 0.231 0.236     218.600 0.00 1 1 8.720 9.890 9.270 9.080 9.380 8.730 9.390 0.4810 8.620 9.730 9.160 8.850 9.350 8.620 9.360 0.4060 227.70 0.02 20 0                             11.226 11.234 0.000 11.762 11.770 0.000
UPLMET_235 2016-09-29 04:10:00 235 11678.0 8.77 9.850 9.240 9.340 9.010 100.000 100.000 8.780 9.350 9.460 9.340 8.580 9.550 0.281 0.190 0.231 0.236     218.500 0.00 1 1 8.830 9.920 9.250 9.070 9.360 8.840 9.370 0.4630 8.660 9.760 9.200 8.950 9.330 8.670 9.340 0.3670 227.70 0.03 20 0                             11.303 11.310 0.000 11.746 11.754 0.000
UPLMET_235 2016-09-29 04:05:00 235 11678.0 8.76 9.880 9.240 9.340 9.030 100.000 100.000 8.770 9.350 9.470 9.340 8.580 9.550 0.281 0.190 0.231 0.236     218.500 0.00 1 1 8.780 9.890 9.270 9.060 9.360 8.790 9.370 0.3650 8.740 9.860 9.220 8.970 9.310 8.750 9.320 0.3020 227.70 0.00 20 0                             11.295 11.303 0.000 11.746 11.754 0.000
UPLMET_235 2016-09-29 04:00:00 235 11678.0 8.67 9.850 9.260 9.350 9.040 100.000 100.000 8.680 9.350 9.470 9.340 8.580 9.550 0.281 0.190 0.231 0.236     218.600 0.00 1 1 8.750 9.890 9.290 9.080 9.360 8.750 9.360 0.4720 8.610 9.780 9.220 8.940 9.330 8.620 9.330 0.3960 227.70 0.00 20 0                             11.226 11.234 0.000 11.754 11.754 0.000
UPLMET_235 2016-09-29 03:55:00 235 11678.0 8.64 9.730 9.170 9.340 8.950 100.000 100.000 8.650 9.350 9.480 9.340 8.580 9.550 0.281 0.190 0.231 0.236     218.500 0.00 1 1 8.780 9.820 9.220 9.010 9.390 8.790 9.400 0.4010 8.580 9.670 9.130 8.870 9.320 8.590 9.320 0.3450 227.80 0.02 20 0                             11.204 11.211 0.000 11.746 11.754 0.000
UPLMET_235 2016-09-29 03:50:00 235 11678.0 8.83 9.960 9.310 9.400 9.090 100.000 100.000 8.840 9.400 9.490 9.340 8.580 9.550 0.281 0.190 0.231 0.236     218.500 0.00 1 1 8.870 9.990 9.330 9.140 9.420 8.870 9.430 0.3560 8.790 9.870 9.250 8.940 9.380 8.800 9.390 0.2870 227.70 0.03 20 0                             11.349 11.356 0.000 11.794 11.794 0.000
UPLMET_235 2016-09-29 03:45:00 235 11678.0 8.66 9.890 9.260 9.360 9.060 100.000 100.000 8.670 9.370 9.500 9.350 8.580 9.550 0.281 0.190 0.231 0.236     218.500 0.00 1 1 8.800 9.960 9.320 9.120 9.390 8.800 9.400 0.3740 8.540 9.760 9.190 8.970 9.330 8.550 9.330 0.3180 227.70 0.00 20 0                             11.219 11.226 0.000 11.762 11.770 0.000
UPLMET_235 2016-09-29 03:40:00 235 11678.0 8.53 9.720 9.170 9.330 8.890 100.000 100.000 8.540 9.340 9.500 9.350 8.580 9.550 0.281 0.190 0.231 0.236     218.500 0.00 1 1 8.550 9.760 9.190 8.950 9.350 8.560 9.350 0.3830 8.520 9.670 9.140 8.860 9.310 8.530 9.320 0.3530 227.70 0.00 20 0                             11.120 11.128 0.000 11.738 11.746 -0.000
UPLMET_235 2016-09-29 03:35:00 235 11678.0 8.66 9.820 9.240 9.380 8.950 100.000 100.000 8.660 9.390 9.510 9.350 8.580 9.550 0.281 0.190 0.231 0.236     218.600 0.00 1 1 8.710 9.900 9.280 9.050 9.410 8.720 9.420 0.4010 8.590 9.700 9.160 8.850 9.340 8.600 9.350 0.3020 227.70 0.04 20 0                             11.219 11.219 0.000 11.778 11.786 0.000
UPLMET_235 2016-09-29 03:30:00 235 11678.0 8.72 9.870 9.280 9.440 9.020 100.000 100.000 8.720 9.450 9.520 9.350 8.580 9.550 0.281 0.190 0.231 0.236     218.600 0.00 1 1 8.810 10.000 9.360 9.080 9.500 8.820 9.510 0.3920 8.670 9.800 9.230 8.960 9.390 8.670 9.400 0.3590 227.80 0.00 20 0                             11.264 11.264 0.000 11.826 11.833 0.000
UPLMET_235 2016-09-29 03:25:00 235 11678.0 8.75 9.980 9.370 9.490 9.190 100.000 100.000 8.760 9.500 9.530 9.350 8.580 9.550 0.281 0.190 0.231 0.236     218.500 0.00 1 1 8.830 10.050 9.400 9.250 9.520 8.830 9.530 0.4450 8.690 9.870 9.290 9.110 9.450 8.690 9.460 0.3630 227.70 0.02 20 0                             11.287 11.295 0.000 11.865 11.873 0.000
UPLMET_235 2016-09-29 03:20:00 235 11678.0 8.72 9.930 9.340 9.480 9.100 100.000 100.000 8.730 9.480 9.530 9.350 8.580 9.550 0.281 0.190 0.231 0.236     218.500 0.00 1 1 8.790 9.990 9.380 9.150 9.500 8.800 9.510 0.4450 8.680 9.870 9.290 9.020 9.450 8.680 9.460 0.3400 227.70 0.02 20 0                             11.264 11.272 0.000 11.857 11.857 0.000
UPLMET_235 2016-09-29 03:15:00 235 11678.0 8.75 9.950 9.340 9.470 9.100 100.000 100.000 8.760 9.480 9.540 9.350 8.580 9.550 0.281 0.190 0.231 0.236     218.600 0.00 1 1 8.790 10.000 9.370 9.160 9.500 8.800 9.510 0.3120 8.720 9.910 9.310 9.050 9.440 8.730 9.450 0.2820 227.70 0.00 20 0                             11.287 11.295 0.000 11.849 11.857 0.000
UPLMET_235 2016-09-29 03:10:00 235 11678.0 8.78 9.900 9.290 9.450 9.080 100.000 100.000 8.790 9.460 9.550 9.350 8.580 9.550 0.281 0.190 0.231 0.236     218.600 0.00 1 1 8.890 10.010 9.340 9.100 9.470 8.900 9.480 0.3560 8.730 9.850 9.260 9.040 9.430 8.740 9.440 0.2260 227.70 0.01 20 0                             11.310 11.318 0.000 11.833 11.841 0.000
UPLMET_235 2016-09-29 03:05:00 235 11678.0 8.84 10.020 9.340 9.470 9.130 100.000 100.000 8.850 9.470 9.550 9.350 8.580 9.550 0.281 0.190 0.231 0.236     218.500 0.00 1 1 8.900 10.040 9.350 9.180 9.490 8.900 9.500 0.2410 8.780 9.990 9.330 9.080 9.450 8.790 9.460 0.0690 227.70 0.00 20 0                             11.356 11.364 0.000 11.849 11.849 0.000
UPLMET_235 2016-09-29 03:00:00 235 11678.0 8.77 9.960 9.350 9.500 9.060 100.000 100.000 8.780 9.510 9.560 9.350 8.580 9.550 0.281 0.191 0.231 0.236     218.500 0.00 1 1 8.810 9.980 9.390 9.100 9.550 8.810 9.560 0.2850 8.750 9.930 9.330 9.030 9.460 8.760 9.470 0.1020 227.70 0.01 20 0                             11.303 11.310 0.000 11.873 11.881 0.000
UPLMET_235 2016-09-29 02:55:00 235 11678.0 8.84 10.020 9.400 9.530 9.100 100.000 100.000 8.850 9.540 9.570 9.350 8.580 9.550 0.281 0.190 0.231 0.236     218.500 0.00 1 1 8.880 10.040 9.410 9.130 9.550 8.890 9.560 0.3830 8.810 10.000 9.380 9.080 9.520 8.820 9.530 0.3270 227.70 0.02 20 0                             11.356 11.364 0.000 11.897 11.905 -0.000
UPLMET_235 2016-09-29 02:50:00 235 11678.0 9.01 10.100 9.430 9.540 9.190 100.000 100.000 9.020 9.550 9.570 9.350 8.580 9.550 0.281 0.191 0.231 0.236     218.600 0.00 1 1 9.080 10.180 9.470 9.290 9.570 9.090 9.580 0.3830 8.900 9.980 9.380 9.100 9.510 8.900 9.520 0.1660 227.70 0.00 20 0                             11.488 11.495 -0.000 11.905 11.913 0.000
UPLMET_235 2016-09-29 02:45:00 235 11678.0 9.02 10.200 9.500 9.590 9.300 100.000 100.000 9.030 9.600 9.580 9.360 8.580 9.550 0.281 0.191 0.231 0.236     218.500 0.00 1 1 9.050 10.220 9.520 9.320 9.630 9.060 9.630 0.2760 8.970 10.180 9.470 9.280 9.560 8.980 9.560 0.1890 227.70 0.00 20 0                             11.495 11.503 0.000 11.945 11.953 0.000
UPLMET_235 2016-09-29 02:40:00 235 11678.0 8.95 10.210 9.530 9.650 9.270 100.000 100.000 8.960 9.660 9.590 9.360 8.580 9.550 0.281 0.191 0.231 0.236     218.500 0.00 1 1 8.970 10.260 9.550 9.360 9.690 8.970 9.700 0.3920 8.920 10.160 9.510 9.200 9.620 8.920 9.630 0.3140 227.70 0.03 20 0                             11.441 11.449 0.000 11.994 12.002 0.000
UPLMET_235 2016-09-29 02:35:00 235 11678.0 8.89 10.130 9.500 9.670 9.290 100.000 100.000 8.900 9.680 9.590 9.360 8.580 9.550 0.281 0.191 0.231 0.236     218.500 0.00 1 1 8.940 10.240 9.550 9.380 9.690 8.950 9.700 0.4100 8.850 10.080 9.450 9.220 9.650 8.860 9.650 0.3100 227.80 0.02 20 0                             11.395 11.402 0.000 12.010 12.018 0.000
UPLMET_235 2016-09-29 02:30:00 235 11678.0 8.92 10.140 9.520 9.720 9.270 100.000 100.000 8.930 9.730 9.600 9.360 8.580 9.550 0.281 0.191 0.231 0.236     218.500 0.00 1 1 8.960 10.230 9.630 9.350 9.780 8.960 9.790 0.3470 8.890 10.090 9.450 9.200 9.660 8.900 9.670 0.1580 227.80 0.02 20 0                             11.418 11.426 0.000 12.050 12.058 0.000
UPLMET_235 2016-09-29 02:25:00 235 11678.0 8.97 10.220 9.610 9.790 9.350 100.000 100.000 8.980 9.800 9.610 9.360 8.580 9.550 0.281 0.191 0.231 0.236     218.600 0.00 1 1 9.020 10.260 9.640 9.410 9.820 9.030 9.830 0.3120 8.940 10.190 9.590 9.310 9.760 8.950 9.770 0.2390 227.70 0.00 20 0                             11.457 11.464 0.000 12.107 12.115 0.000
UPLMET_235 2016-09-29 02:20:00 235 11678.0 9.07 10.310 9.680 9.810 9.430 100.000 100.000 9.070 9.820 9.610 9.360 8.580 9.550 0.281 0.191 0.231 0.236     218.500 0.00 1 1 9.110 10.360 9.700 9.480 9.830 9.120 9.840 0.4190 9.030 10.260 9.630 9.350 9.800 9.040 9.810 0.2890 227.80 0.02 20 0                             11.534 11.534 0.000 12.123 12.131 0.000
UPLMET_235 2016-09-29 02:15:00 235 11678.0 9.22 10.380 9.650 9.880 9.440 100.000 100.000 9.230 9.890 9.620 9.360 8.570 9.550 0.281 0.191 0.231 0.236     218.600 0.00 1 1 9.330 10.510 9.770 9.470 9.950 9.340 9.960 0.4720 9.110 10.290 9.600 9.400 9.820 9.120 9.830 0.1860 227.70 0.01 20 0                             11.652 11.659 0.000 12.180 12.189 0.000
UPLMET_235 2016-09-29 02:10:00 235 11678.0 9.42 10.620 9.870 10.010 9.660 100.000 100.000 9.430 10.020 9.630 9.360 8.580 9.550 0.281 0.191 0.231 0.236     218.500 0.00 1 1 9.450 10.660 9.910 9.710 10.040 9.460 10.050 0.2580 9.370 10.530 9.790 9.530 9.960 9.380 9.970 0.0770 227.70 0.00 20 0                             11.810 11.818 0.000 12.287 12.295 0.000
UPLMET_235 2016-09-29 02:05:00 235 11678.0 9.31 10.630 9.910 10.020 9.720 100.000 100.000 9.320 10.030 9.630 9.360 8.570 9.550 0.281 0.191 0.231 0.236     218.500 0.00 1 1 9.410 10.660 9.930 9.750 10.040 9.420 10.040 0.3030 9.210 10.560 9.890 9.680 10.010 9.210 10.020 0.2230 227.70 0.03 20 0                             11.722 11.730 0.000 12.295 12.303 0.000
UPLMET_235 2016-09-29 02:00:00 235 11678.0 9.25 10.570 9.890 10.010 9.680 100.000 100.000 9.260 10.020 9.640 9.360 8.570 9.550 0.281 0.191 0.231 0.236     218.600 0.00 1 1 9.320 10.650 9.930 9.780 10.040 9.330 10.050 0.3390 9.180 10.500 9.860 9.590 9.970 9.190 9.980 0.3000 227.70 0.00 20 0                             11.675 11.683 0.000 12.287 12.295 0.000
UPLMET_235 2016-09-29 01:55:00 235 11678.0 9.06 10.450 9.810 9.940 9.620 100.000 100.000 9.070 9.940 9.640 9.360 8.570 9.550 0.281 0.191 0.231 0.236     218.500 0.00 1 1 9.170 10.550 9.840 9.720 9.970 9.180 9.970 0.3650 9.000 10.390 9.780 9.550 9.910 9.010 9.920 0.1960 227.80 0.00 20 0                             11.526 11.534 0.000 12.229 12.229 0.000
UPLMET_235 2016-09-29 01:50:00 235 11678.0 8.98 10.400 9.740 9.840 9.590 100.000 100.000 8.990 9.850 9.650 9.360 8.570 9.550 0.281 0.191 0.231 0.236     218.500 0.00 1 1 9.030 10.520 9.870 9.700 9.950 9.040 9.950 0.4450 8.940 10.230 9.530 9.380 9.740 8.950 9.750 0.1850 227.80 0.01 20 0                             11.464 11.472 0.000 12.148 12.156 -0.000
UPLMET_235 2016-09-29 01:45:00 235 11678.0 9.04 10.340 9.580 9.750 9.370 100.000 100.000 9.050 9.760 9.660 9.360 8.570 9.550 0.281 0.191 0.231 0.236     218.500 0.00 1 1 9.100 10.390 9.610 9.450 9.770 9.100 9.780 0.2670 8.980 10.250 9.530 9.250 9.710 8.990 9.720 0.1510 227.70 0.02 20 0                             11.511 11.519 -0.000 12.075 12.083 0.000
UPLMET_235 2016-09-29 01:40:00 235 11678.0 8.99 10.330 9.500 9.660 9.380 100.000 100.000 8.990 9.670 9.660 9.360 8.570 9.550 0.281 0.191 0.231 0.236     218.500 0.00 1 1 9.050 10.370 9.560 9.430 9.710 9.060 9.720 0.3650 8.910 10.260 9.430 9.310 9.580 8.920 9.590 0.2860 227.70 0.01 20 0                             11.472 11.472 0.000 12.002 12.010 0.000
UPLMET_235 2016-09-29 01:35:00 235 11678.0 8.88 10.200 9.360 9.510 9.190 100.000 100.000 8.890 9.520 9.670 9.360 8.570 9.550 0.281 0.191 0.231 0.236     218.500 0.00 1 1 8.920 10.240 9.410 9.300 9.560 8.930 9.570 0.4540 8.850 10.180 9.330 9.110 9.480 8.860 9.490 0.3430 227.70 0.02 20 0                             11.387 11.395 0.000 11.881 11.889 -0.000
UPLMET_235 2016-09-29 01:30:00 235 11678.0 8.90 10.150 9.300 9.490 9.090 100.000 99.800 8.910 9.460 9.670 9.360 8.570 9.550 0.281 0.191 0.231 0.236     218.500 0.00 1 1 8.960 10.180 9.320 9.160 9.510 8.970 9.500 0.3920 8.860 10.140 9.290 9.040 9.460 8.870 9.420 0.3200 227.70 0.00 20 0                             11.402 11.410 -0.000 11.865 11.841 0.024
UPLMET_235 2016-09-29 01:25:00 235 11678.0 8.99 10.260 9.380 9.570 9.160 100.000 99.600 9.000 9.520 9.680 9.360 8.570 9.550 0.281 0.191 0.231 0.236     218.500 0.00 1 1 9.030 10.290 9.430 9.190 9.620 9.040 9.570 0.3920 8.970 10.200 9.320 9.060 9.520 8.980 9.470 0.2710 227.70 0.03 20 0                             11.472 11.480 0.000 11.929 11.889 0.048
UPLMET_235 2016-09-29 01:20:00 235 11678.0 9.10 10.380 9.490 9.670 9.270 100.000 99.700 9.100 9.630 9.690 9.360 8.570 9.550 0.281 0.191 0.231 0.236     218.600 0.00 1 1 9.140 10.440 9.550 9.300 9.730 9.140 9.720 0.4370 9.040 10.310 9.430 9.180 9.620 9.050 9.570 0.3280 227.80 0.03 20 0                             11.558 11.558 0.000 12.010 11.978 0.036
UPLMET_235 2016-09-29 01:15:00 235 11678.0 9.16 10.480 9.580 9.770 9.370 100.000 100.000 9.170 9.770 9.690 9.360 8.570 9.550 0.281 0.191 0.231 0.236     218.500 0.00 1 1 9.200 10.500 9.620 9.430 9.820 9.210 9.820 0.4810 9.140 10.460 9.550 9.320 9.730 9.150 9.730 0.3710 227.80 0.03 20 0                             11.604 11.612 0.000 12.091 12.091 0.000
UPLMET_235 2016-09-29 01:10:00 235 11678.0 9.28 10.580 9.680 9.890 9.450 100.000 100.000 9.280 9.900 9.700 9.360 8.570 9.550 0.281 0.191 0.231 0.236     218.500 0.00 1 1 9.330 10.600 9.730 9.500 9.960 9.340 9.970 0.4190 9.210 10.500 9.630 9.330 9.830 9.220 9.840 0.1330 227.80 0.01 20 0                             11.699 11.699 0.000 12.189 12.197 0.000
UPLMET_235 2016-09-29 01:05:00 235 11678.0 9.41 10.740 9.850 10.050 9.610 100.000 100.000 9.420 10.060 9.700 9.360 8.570 9.550 0.281 0.191 0.231 0.236     218.400 0.00 1 1 9.510 10.870 9.940 9.770 10.110 9.520 10.120 0.3830 9.330 10.620 9.740 9.480 9.980 9.340 9.990 0.1470 227.80 0.00 20 0                             11.802 11.810 0.000 12.320 12.328 0.000
UPLMET_235 2016-09-29 01:00:00 235 11678.0 9.49 10.930 10.000 10.170 9.810 100.000 100.000 9.500 10.180 9.710 9.360 8.570 9.550 0.281 0.191 0.231 0.236     218.500 0.00 1 1 9.510 10.990 10.060 9.890 10.230 9.510 10.230 0.4280 9.470 10.860 9.930 9.720 10.110 9.470 10.120 0.0820 229.30 0.56 20 0                             11.865 11.873 0.000 12.419 12.428 0.000
UPLMET_235 2016-09-29 00:55:00 235 11678.0 9.50 10.960 10.050 10.200 9.860 100.000 100.000 9.510 10.210 9.710 9.360 8.570 9.550 0.281 0.191 0.231 0.236     218.500 0.00 1 1 9.530 11.020 10.080 9.970 10.240 9.530 10.240 0.0000 9.470 10.920 10.000 9.760 10.190 9.480 10.190 0.0000 0.00 0.00 20 0                             11.873 11.881 0.000 12.444 12.453 0.000
UPLMET_235 2016-09-29 00:50:00 235 11678.0 9.45 10.990 10.060 10.190 9.920 100.000 100.000 9.460 10.190 9.710 9.360 8.570 9.550 0.281 0.191 0.231 0.236     218.500 0.00 1 1 9.530 11.070 10.110 9.990 10.240 9.540 10.240 0.0000 9.370 10.940 10.020 9.790 10.160 9.370 10.170 0.0000 0.00 0.00 20 0                             11.833 11.841 0.000 12.436 12.436 0.000
UPLMET_235 2016-09-29 00:45:00 235 11678.0 9.27 10.850 9.990 10.160 9.770 100.000 100.000 9.280 10.170 9.720 9.360 8.570 9.550 0.281 0.191 0.231 0.236     218.600 0.00 1 1 9.360 10.970 10.040 9.940 10.180 9.370 10.190 0.5430 9.230 10.790 9.940 9.680 10.140 9.240 10.150 0.3940 229.90 0.01 20 0                             11.691 11.699 0.000 12.411 12.419 -0.000
UPLMET_235 2016-09-29 00:40:00 235 11678.0 9.34 10.880 10.030 10.160 9.750 100.000 100.000 9.350 10.170 9.720 9.350 8.570 9.550 0.281 0.191 0.231 0.236     218.500 0.00 1 1 9.440 10.930 10.060 9.780 10.190 9.450 10.200 0.6860 9.270 10.830 9.980 9.710 10.120 9.280 10.120 0.5820 228.80 1.57 20 0                             11.746 11.754 0.000 12.411 12.419 -0.000
UPLMET_235 2016-09-29 00:35:00 235 11678.0 9.39 10.930 9.970 10.100 9.830 100.000 100.000 9.400 10.110 9.730 9.350 8.570 9.550 0.281 0.191 0.231 0.236     218.600 0.00 1 1 9.460 10.960 9.990 9.870 10.130 9.470 10.140 0.5350 9.290 10.870 9.940 9.780 10.060 9.290 10.070 0.4390 226.20 0.03 20 0                             11.786 11.794 0.000 12.361 12.370 -0.000
UPLMET_235 2016-09-29 00:30:00 235 11678.0 9.24 10.720 9.820 9.940 9.640 100.000 100.000 9.250 9.950 9.730 9.350 8.570 9.550 0.281 0.191 0.231 0.236     218.500 0.00 1 1 9.300 10.840 9.920 9.800 10.050 9.300 10.060 0.4810 9.210 10.640 9.750 9.540 9.870 9.220 9.880 0.4030 226.20 0.01 20 0                             11.667 11.675 -0.000 12.229 12.238 0.000
UPLMET_235 2016-09-29 00:25:00 235 11678.0 9.28 10.620 9.750 9.890 9.570 100.000 100.000 9.280 9.890 9.740 9.350 8.570 9.550 0.281 0.191 0.231 0.236     218.500 0.00 1 1 9.320 10.650 9.770 9.610 9.910 9.330 9.920 0.5260 9.210 10.580 9.690 9.530 9.860 9.220 9.870 0.3980 226.20 0.02 20 0                             11.699 11.699 0.000 12.189 12.189 0.000
UPLMET_235 2016-09-29 00:20:00 235 11678.0 9.29 10.560 9.700 9.860 9.520 100.000 100.000 9.300 9.870 9.740 9.350 8.570 9.550 0.281 0.191 0.231 0.236     218.600 0.00 1 1 9.320 10.570 9.710 9.540 9.880 9.320 9.890 0.4540 9.270 10.530 9.680 9.500 9.830 9.280 9.840 0.3720 226.20 0.00 20 0                             11.707 11.715 0.000 12.164 12.172 0.000
UPLMET_235 2016-09-29 00:15:00 235 11678.0 9.27 10.530 9.760 9.920 9.580 100.000 100.000 9.280 9.920 9.750 9.350 8.570 9.550 0.281 0.191 0.231 0.236     218.400 0.00 1 1 9.290 10.570 9.780 9.700 9.940 9.300 9.950 0.3300 9.250 10.510 9.720 9.530 9.890 9.260 9.900 0.2560 226.20 0.02 20 0                             11.691 11.699 0.000 12.213 12.213 -0.000
UPLMET_235 2016-09-29 00:10:00 235 11678.0 9.34 10.530 9.790 9.950 9.580 100.000 100.000 9.350 9.960 9.750 9.350 8.570 9.550 0.281 0.191 0.230 0.236     218.500 0.00 1 1 9.420 10.570 9.810 9.660 9.980 9.430 9.990 0.4450 9.240 10.490 9.760 9.510 9.930 9.250 9.940 0.3450 226.20 0.03 20 0                             11.746 11.754 0.000 12.238 12.246 0.000
UPLMET_235 2016-09-29 00:05:00 235 11678.0 9.42 10.500 9.820 9.970 9.640 100.000 100.000 9.420 9.980 9.750 9.350 8.570 9.550 0.281 0.191 0.230 0.236     218.500 0.00 1 1 9.440 10.540 9.850 9.660 9.990 9.450 9.990 0.4010 9.390 10.440 9.800 9.610 9.950 9.400 9.960 0.3010 226.20 0.02 20 0                             11.810 11.810 0.000 12.254 12.262 0.000
UPLMET_235 2016-09-29 00:00:00 235 11678.0 9.35 10.400 9.860 10.010 9.650 100.000 100.000 9.360 10.020 9.760 9.350 8.570 9.550 0.281 0.191 0.230 0.236     218.500 0.00 1 1 9.400 10.450 9.870 9.720 10.050 9.410 10.060 0.4280 9.300 10.350 9.850 9.540 9.990 9.310 9.990 0.2330 226.20 0.01 20 0                             11.754 11.762 0.000 12.287 12.295 0.000
UPLMET_235 2016-09-28 23:55:00 235 11678.0 9.43 10.410 9.940 10.100 9.650 100.000 100.000 9.440 10.110 9.760 9.350 8.570 9.550 0.281 0.191 0.230 0.236     218.600 0.00 1 1 9.510 10.450 10.000 9.760 10.150 9.520 10.160 0.3560 9.340 10.360 9.880 9.550 10.050 9.340 10.050 0.3040 226.20 0.00 20 0                             11.818 11.826 0.000 12.361 12.370 -0.000
UPLMET_235 2016-09-28 23:50:00 235 11678.0 9.52 10.430 10.000 10.160 9.820 100.000 100.000 9.530 10.170 9.760 9.350 8.570 9.550 0.281 0.191 0.230 0.236     218.700 0.00 1 1 9.550 10.460 10.010 9.840 10.200 9.550 10.210 0.3470 9.460 10.410 10.000 9.780 10.130 9.470 10.140 0.2720 226.20 0.02 20 0                             11.889 11.897 0.000 12.411 12.419 -0.000
UPLMET_235 2016-09-28 23:45:00 235 11678.0 9.52 10.420 10.050 10.250 9.790 100.000 100.000 9.530 10.260 9.770 9.350 8.570 9.550 0.281 0.191 0.230 0.236     218.600 0.00 1 1 9.600 10.550 10.140 9.940 10.300 9.610 10.300 0.3390 9.460 10.330 9.990 9.700 10.200 9.470 10.210 0.2050 226.20 0.02 20 0                             11.889 11.897 0.000 12.486 12.494 0.000
UPLMET_235 2016-09-28 23:40:00 235 11678.0 9.61 10.520 10.130 10.290 9.950 100.000 100.000 9.620 10.290 9.770 9.340 8.570 9.550 0.281 0.191 0.230 0.236     218.600 0.00 1 1 9.650 10.560 10.150 9.990 10.320 9.660 10.330 0.4450 9.570 10.480 10.110 9.880 10.270 9.580 10.280 0.2040 226.20 0.01 20 0                             11.962 11.970 0.000 12.519 12.519 0.000
UPLMET_235 2016-09-28 23:35:00 235 11678.0 9.57 10.520 10.160 10.340 9.980 100.000 100.000 9.570 10.350 9.770 9.340 8.570 9.550 0.281 0.191 0.230 0.236     218.500 0.00 1 1 9.610 10.560 10.180 10.010 10.370 9.620 10.370 0.3830 9.510 10.490 10.140 9.950 10.310 9.520 10.320 0.0940 226.20 0.00 20 0                             11.929 11.929 0.000 12.561 12.570 0.000
UPLMET_235 2016-09-28 23:30:00 235 11678.0 9.57 10.500 10.180